<?xml version="1.0" encoding="UTF-8" standalone="no" ?>
<gpx xmlns="http://www.topografix.com/GPX/1/1" xmlns:xsi="http://www.w3.org/2001/XMLSchema-instance" xsi:schemaLocation="http://www.topografix.com/GPX/1/1 http://www.topografix.com/GPX/1/1/gpx.xsd" version="1.1" creator="VisuGPX - https://www.visugpx.com">
  <metadata>
    <name>Circuit 7 (Plogonnec)</name>
    <desc><![CDATA[Circuit permanent]]></desc>
  </metadata>
  <trk>
    <name><![CDATA[trace7valleeodet2015]]></name>
    <trkseg>
      <trkpt lat="48.07558" lon="-4.19208">
        <ele>123.6</ele>
        <time>2015-02-26T09:50:37Z</time>
      </trkpt>
      <trkpt lat="48.07539" lon="-4.19214">
        <ele>124.4</ele>
        <time>2015-02-26T09:50:37Z</time>
      </trkpt>
      <trkpt lat="48.07531" lon="-4.19242">
        <ele>125.9</ele>
        <time>2015-02-26T09:50:37Z</time>
      </trkpt>
      <trkpt lat="48.07519" lon="-4.19269">
        <ele>127.1</ele>
        <time>2015-02-26T09:50:37Z</time>
      </trkpt>
      <trkpt lat="48.07507" lon="-4.19298">
        <ele>128</ele>
        <time>2015-02-26T09:50:37Z</time>
      </trkpt>
      <trkpt lat="48.07496" lon="-4.19326">
        <ele>128.8</ele>
        <time>2015-02-26T09:50:37Z</time>
      </trkpt>
      <trkpt lat="48.07485" lon="-4.19354">
        <ele>128.3</ele>
        <time>2015-02-26T09:50:37Z</time>
      </trkpt>
      <trkpt lat="48.07478" lon="-4.19377">
        <ele>127.7</ele>
        <time>2015-02-26T09:50:37Z</time>
      </trkpt>
      <trkpt lat="48.07477" lon="-4.19385">
        <ele>127.5</ele>
        <time>2015-02-26T09:50:37Z</time>
      </trkpt>
      <trkpt lat="48.07479" lon="-4.19392">
        <ele>127.3</ele>
        <time>2015-02-26T09:50:37Z</time>
      </trkpt>
      <trkpt lat="48.07513" lon="-4.1941">
        <ele>127.3</ele>
        <time>2015-02-26T09:50:37Z</time>
      </trkpt>
      <trkpt lat="48.07546" lon="-4.19427">
        <ele>127.3</ele>
        <time>2015-02-26T09:50:37Z</time>
      </trkpt>
      <trkpt lat="48.07579" lon="-4.19445">
        <ele>127.6</ele>
        <time>2015-02-26T09:50:37Z</time>
      </trkpt>
      <trkpt lat="48.0761" lon="-4.19462">
        <ele>127.6</ele>
        <time>2015-02-26T09:50:37Z</time>
      </trkpt>
      <trkpt lat="48.07635" lon="-4.19474">
        <ele>127.7</ele>
        <time>2015-02-26T09:50:37Z</time>
      </trkpt>
      <trkpt lat="48.07661" lon="-4.19481">
        <ele>128</ele>
        <time>2015-02-26T09:50:37Z</time>
      </trkpt>
      <trkpt lat="48.07685" lon="-4.19482">
        <ele>127.8</ele>
        <time>2015-02-26T09:50:37Z</time>
      </trkpt>
      <trkpt lat="48.07706" lon="-4.19482">
        <ele>127.5</ele>
        <time>2015-02-26T09:50:37Z</time>
      </trkpt>
      <trkpt lat="48.07721" lon="-4.19476">
        <ele>127.3</ele>
        <time>2015-02-26T09:50:37Z</time>
      </trkpt>
      <trkpt lat="48.07729" lon="-4.19466">
        <ele>127.3</ele>
        <time>2015-02-26T09:50:37Z</time>
      </trkpt>
      <trkpt lat="48.07735" lon="-4.19454">
        <ele>127.2</ele>
        <time>2015-02-26T09:50:37Z</time>
      </trkpt>
      <trkpt lat="48.0774" lon="-4.19432">
        <ele>127.1</ele>
        <time>2015-02-26T09:50:37Z</time>
      </trkpt>
      <trkpt lat="48.07746" lon="-4.19408">
        <ele>127.1</ele>
        <time>2015-02-26T09:50:37Z</time>
      </trkpt>
      <trkpt lat="48.07753" lon="-4.19384">
        <ele>127.2</ele>
        <time>2015-02-26T09:50:37Z</time>
      </trkpt>
      <trkpt lat="48.0776" lon="-4.1936">
        <ele>127</ele>
        <time>2015-02-26T09:50:37Z</time>
      </trkpt>
      <trkpt lat="48.07766" lon="-4.19335">
        <ele>126.8</ele>
        <time>2015-02-26T09:50:37Z</time>
      </trkpt>
      <trkpt lat="48.07773" lon="-4.19312">
        <ele>126.7</ele>
        <time>2015-02-26T09:50:37Z</time>
      </trkpt>
      <trkpt lat="48.07775" lon="-4.19288">
        <ele>126.9</ele>
        <time>2015-02-26T09:50:37Z</time>
      </trkpt>
      <trkpt lat="48.07777" lon="-4.19264">
        <ele>127.2</ele>
        <time>2015-02-26T09:50:37Z</time>
      </trkpt>
      <trkpt lat="48.07779" lon="-4.19239">
        <ele>127</ele>
        <time>2015-02-26T09:50:37Z</time>
      </trkpt>
      <trkpt lat="48.0778" lon="-4.1922">
        <ele>126.5</ele>
        <time>2015-02-26T09:50:37Z</time>
      </trkpt>
      <trkpt lat="48.0778" lon="-4.19202">
        <ele>126.1</ele>
        <time>2015-02-26T09:50:37Z</time>
      </trkpt>
      <trkpt lat="48.0778" lon="-4.19191">
        <ele>125.8</ele>
        <time>2015-02-26T09:50:37Z</time>
      </trkpt>
      <trkpt lat="48.07781" lon="-4.19179">
        <ele>125.5</ele>
        <time>2015-02-26T09:50:37Z</time>
      </trkpt>
      <trkpt lat="48.07787" lon="-4.19167">
        <ele>124.8</ele>
        <time>2015-02-26T09:50:37Z</time>
      </trkpt>
      <trkpt lat="48.07796" lon="-4.19153">
        <ele>124.2</ele>
        <time>2015-02-26T09:50:37Z</time>
      </trkpt>
      <trkpt lat="48.07805" lon="-4.19138">
        <ele>123.8</ele>
        <time>2015-02-26T09:50:37Z</time>
      </trkpt>
      <trkpt lat="48.07814" lon="-4.19124">
        <ele>123.4</ele>
        <time>2015-02-26T09:50:37Z</time>
      </trkpt>
      <trkpt lat="48.0782" lon="-4.19119">
        <ele>123.2</ele>
        <time>2015-02-26T09:50:37Z</time>
      </trkpt>
      <trkpt lat="48.07826" lon="-4.19115">
        <ele>122.9</ele>
        <time>2015-02-26T09:50:37Z</time>
      </trkpt>
      <trkpt lat="48.07829" lon="-4.19105">
        <ele>122.9</ele>
        <time>2015-02-26T09:50:37Z</time>
      </trkpt>
      <trkpt lat="48.07831" lon="-4.19087">
        <ele>123</ele>
        <time>2015-02-26T09:50:37Z</time>
      </trkpt>
      <trkpt lat="48.07833" lon="-4.19068">
        <ele>122.8</ele>
        <time>2015-02-26T09:50:37Z</time>
      </trkpt>
      <trkpt lat="48.07836" lon="-4.19048">
        <ele>122.4</ele>
        <time>2015-02-26T09:50:37Z</time>
      </trkpt>
      <trkpt lat="48.0784" lon="-4.19028">
        <ele>122</ele>
        <time>2015-02-26T09:50:37Z</time>
      </trkpt>
      <trkpt lat="48.07842" lon="-4.19008">
        <ele>121.6</ele>
        <time>2015-02-26T09:50:37Z</time>
      </trkpt>
      <trkpt lat="48.07844" lon="-4.18987">
        <ele>121.1</ele>
        <time>2015-02-26T09:50:37Z</time>
      </trkpt>
      <trkpt lat="48.07847" lon="-4.18966">
        <ele>120.5</ele>
        <time>2015-02-26T09:50:37Z</time>
      </trkpt>
      <trkpt lat="48.07849" lon="-4.18946">
        <ele>120</ele>
        <time>2015-02-26T09:50:37Z</time>
      </trkpt>
      <trkpt lat="48.07848" lon="-4.18939">
        <ele>119.9</ele>
        <time>2015-02-26T09:50:37Z</time>
      </trkpt>
      <trkpt lat="48.07838" lon="-4.18935">
        <ele>120.2</ele>
        <time>2015-02-26T09:50:37Z</time>
      </trkpt>
      <trkpt lat="48.07822" lon="-4.1893">
        <ele>120.8</ele>
        <time>2015-02-26T09:50:37Z</time>
      </trkpt>
      <trkpt lat="48.07807" lon="-4.18924">
        <ele>121.4</ele>
        <time>2015-02-26T09:50:37Z</time>
      </trkpt>
      <trkpt lat="48.0779" lon="-4.18915">
        <ele>122</ele>
        <time>2015-02-26T09:50:37Z</time>
      </trkpt>
      <trkpt lat="48.07774" lon="-4.18908">
        <ele>122.7</ele>
        <time>2015-02-26T09:50:37Z</time>
      </trkpt>
      <trkpt lat="48.07762" lon="-4.18901">
        <ele>123.2</ele>
        <time>2015-02-26T09:50:37Z</time>
      </trkpt>
      <trkpt lat="48.0774" lon="-4.18885">
        <ele>123</ele>
        <time>2015-02-26T09:50:37Z</time>
      </trkpt>
      <trkpt lat="48.07718" lon="-4.18869">
        <ele>121.5</ele>
        <time>2015-02-26T09:50:37Z</time>
      </trkpt>
      <trkpt lat="48.07699" lon="-4.18843">
        <ele>120.1</ele>
        <time>2015-02-26T09:50:37Z</time>
      </trkpt>
      <trkpt lat="48.07679" lon="-4.18813">
        <ele>118.4</ele>
        <time>2015-02-26T09:50:37Z</time>
      </trkpt>
      <trkpt lat="48.07668" lon="-4.18797">
        <ele>117.6</ele>
        <time>2015-02-26T09:50:37Z</time>
      </trkpt>
      <trkpt lat="48.07673" lon="-4.1875">
        <ele>117.1</ele>
        <time>2015-02-26T09:50:37Z</time>
      </trkpt>
      <trkpt lat="48.07678" lon="-4.18702">
        <ele>115.6</ele>
        <time>2015-02-26T09:50:37Z</time>
      </trkpt>
      <trkpt lat="48.0768" lon="-4.18685">
        <ele>115</ele>
        <time>2015-02-26T09:50:37Z</time>
      </trkpt>
      <trkpt lat="48.07688" lon="-4.18642">
        <ele>113.6</ele>
        <time>2015-02-26T09:50:37Z</time>
      </trkpt>
      <trkpt lat="48.07698" lon="-4.18598">
        <ele>112</ele>
        <time>2015-02-26T09:50:37Z</time>
      </trkpt>
      <trkpt lat="48.07705" lon="-4.18565">
        <ele>111.1</ele>
        <time>2015-02-26T09:50:37Z</time>
      </trkpt>
      <trkpt lat="48.07727" lon="-4.18547">
        <ele>111</ele>
        <time>2015-02-26T09:50:37Z</time>
      </trkpt>
      <trkpt lat="48.07754" lon="-4.18525">
        <ele>110.7</ele>
        <time>2015-02-26T09:50:37Z</time>
      </trkpt>
      <trkpt lat="48.07767" lon="-4.18513">
        <ele>110.5</ele>
        <time>2015-02-26T09:50:37Z</time>
      </trkpt>
      <trkpt lat="48.07787" lon="-4.18489">
        <ele>110.4</ele>
        <time>2015-02-26T09:50:37Z</time>
      </trkpt>
      <trkpt lat="48.07806" lon="-4.18464">
        <ele>110.4</ele>
        <time>2015-02-26T09:50:37Z</time>
      </trkpt>
      <trkpt lat="48.07816" lon="-4.18452">
        <ele>110.3</ele>
        <time>2015-02-26T09:50:37Z</time>
      </trkpt>
      <trkpt lat="48.07834" lon="-4.1847">
        <ele>110.6</ele>
        <time>2015-02-26T09:50:37Z</time>
      </trkpt>
      <trkpt lat="48.07851" lon="-4.18488">
        <ele>110.7</ele>
        <time>2015-02-26T09:50:37Z</time>
      </trkpt>
      <trkpt lat="48.07869" lon="-4.18506">
        <ele>110.7</ele>
        <time>2015-02-26T09:50:37Z</time>
      </trkpt>
      <trkpt lat="48.07888" lon="-4.18524">
        <ele>110.8</ele>
        <time>2015-02-26T09:50:37Z</time>
      </trkpt>
      <trkpt lat="48.07891" lon="-4.18514">
        <ele>110.6</ele>
        <time>2015-02-26T09:50:37Z</time>
      </trkpt>
      <trkpt lat="48.07894" lon="-4.18502">
        <ele>110.3</ele>
        <time>2015-02-26T09:50:37Z</time>
      </trkpt>
      <trkpt lat="48.07898" lon="-4.18491">
        <ele>110.2</ele>
        <time>2015-02-26T09:50:37Z</time>
      </trkpt>
      <trkpt lat="48.07901" lon="-4.18479">
        <ele>110.1</ele>
        <time>2015-02-26T09:50:37Z</time>
      </trkpt>
      <trkpt lat="48.07904" lon="-4.18467">
        <ele>110.1</ele>
        <time>2015-02-26T09:50:37Z</time>
      </trkpt>
      <trkpt lat="48.07909" lon="-4.18454">
        <ele>110</ele>
        <time>2015-02-26T09:50:37Z</time>
      </trkpt>
      <trkpt lat="48.07916" lon="-4.18438">
        <ele>110</ele>
        <time>2015-02-26T09:50:37Z</time>
      </trkpt>
      <trkpt lat="48.07923" lon="-4.18422">
        <ele>110.2</ele>
        <time>2015-02-26T09:50:37Z</time>
      </trkpt>
      <trkpt lat="48.07931" lon="-4.18406">
        <ele>110.9</ele>
        <time>2015-02-26T09:50:37Z</time>
      </trkpt>
      <trkpt lat="48.07939" lon="-4.1839">
        <ele>111.7</ele>
        <time>2015-02-26T09:50:37Z</time>
      </trkpt>
      <trkpt lat="48.07947" lon="-4.18373">
        <ele>112.6</ele>
        <time>2015-02-26T09:50:37Z</time>
      </trkpt>
      <trkpt lat="48.07954" lon="-4.18356">
        <ele>113.5</ele>
        <time>2015-02-26T09:50:37Z</time>
      </trkpt>
      <trkpt lat="48.07962" lon="-4.18339">
        <ele>114.4</ele>
        <time>2015-02-26T09:50:37Z</time>
      </trkpt>
      <trkpt lat="48.07969" lon="-4.18323">
        <ele>115.4</ele>
        <time>2015-02-26T09:50:37Z</time>
      </trkpt>
      <trkpt lat="48.07977" lon="-4.18305">
        <ele>116.5</ele>
        <time>2015-02-26T09:50:37Z</time>
      </trkpt>
      <trkpt lat="48.07985" lon="-4.18287">
        <ele>117.7</ele>
        <time>2015-02-26T09:50:37Z</time>
      </trkpt>
      <trkpt lat="48.07995" lon="-4.18264">
        <ele>119.1</ele>
        <time>2015-02-26T09:50:37Z</time>
      </trkpt>
      <trkpt lat="48.08005" lon="-4.18239">
        <ele>119.5</ele>
        <time>2015-02-26T09:50:37Z</time>
      </trkpt>
      <trkpt lat="48.08017" lon="-4.18213">
        <ele>118.3</ele>
        <time>2015-02-26T09:50:37Z</time>
      </trkpt>
      <trkpt lat="48.08028" lon="-4.18187">
        <ele>117.3</ele>
        <time>2015-02-26T09:50:37Z</time>
      </trkpt>
      <trkpt lat="48.08041" lon="-4.18155">
        <ele>116</ele>
        <time>2015-02-26T09:50:37Z</time>
      </trkpt>
      <trkpt lat="48.08054" lon="-4.18123">
        <ele>114.1</ele>
        <time>2015-02-26T09:50:37Z</time>
      </trkpt>
      <trkpt lat="48.08058" lon="-4.18114">
        <ele>113.7</ele>
        <time>2015-02-26T09:50:37Z</time>
      </trkpt>
      <trkpt lat="48.08066" lon="-4.18122">
        <ele>113.8</ele>
        <time>2015-02-26T09:50:37Z</time>
      </trkpt>
      <trkpt lat="48.08104" lon="-4.1816">
        <ele>114.6</ele>
        <time>2015-02-26T09:50:37Z</time>
      </trkpt>
      <trkpt lat="48.08132" lon="-4.1819">
        <ele>114.7</ele>
        <time>2015-02-26T09:50:37Z</time>
      </trkpt>
      <trkpt lat="48.0816" lon="-4.1822">
        <ele>115.3</ele>
        <time>2015-02-26T09:50:37Z</time>
      </trkpt>
      <trkpt lat="48.08187" lon="-4.18246">
        <ele>116.1</ele>
        <time>2015-02-26T09:50:37Z</time>
      </trkpt>
      <trkpt lat="48.08201" lon="-4.18252">
        <ele>116.5</ele>
        <time>2015-02-26T09:50:37Z</time>
      </trkpt>
      <trkpt lat="48.08218" lon="-4.18258">
        <ele>116.8</ele>
        <time>2015-02-26T09:50:37Z</time>
      </trkpt>
      <trkpt lat="48.08239" lon="-4.18267">
        <ele>117.3</ele>
        <time>2015-02-26T09:50:37Z</time>
      </trkpt>
      <trkpt lat="48.08259" lon="-4.18275">
        <ele>117.8</ele>
        <time>2015-02-26T09:50:37Z</time>
      </trkpt>
      <trkpt lat="48.0828" lon="-4.18284">
        <ele>118.4</ele>
        <time>2015-02-26T09:50:37Z</time>
      </trkpt>
      <trkpt lat="48.08302" lon="-4.18292">
        <ele>119</ele>
        <time>2015-02-26T09:50:37Z</time>
      </trkpt>
      <trkpt lat="48.08324" lon="-4.18302">
        <ele>119.5</ele>
        <time>2015-02-26T09:50:37Z</time>
      </trkpt>
      <trkpt lat="48.08346" lon="-4.18312">
        <ele>120.9</ele>
        <time>2015-02-26T09:50:37Z</time>
      </trkpt>
      <trkpt lat="48.08364" lon="-4.1832">
        <ele>122.6</ele>
        <time>2015-02-26T09:50:37Z</time>
      </trkpt>
      <trkpt lat="48.0837" lon="-4.18322">
        <ele>123</ele>
        <time>2015-02-26T09:50:37Z</time>
      </trkpt>
      <trkpt lat="48.08369" lon="-4.18332">
        <ele>123</ele>
        <time>2015-02-26T09:50:37Z</time>
      </trkpt>
      <trkpt lat="48.08368" lon="-4.18345">
        <ele>123</ele>
        <time>2015-02-26T09:50:37Z</time>
      </trkpt>
      <trkpt lat="48.08368" lon="-4.18358">
        <ele>123.1</ele>
        <time>2015-02-26T09:50:37Z</time>
      </trkpt>
      <trkpt lat="48.08368" lon="-4.18371">
        <ele>123.2</ele>
        <time>2015-02-26T09:50:37Z</time>
      </trkpt>
      <trkpt lat="48.08371" lon="-4.1838">
        <ele>123.6</ele>
        <time>2015-02-26T09:50:37Z</time>
      </trkpt>
      <trkpt lat="48.08393" lon="-4.18383">
        <ele>124.9</ele>
        <time>2015-02-26T09:50:37Z</time>
      </trkpt>
      <trkpt lat="48.08415" lon="-4.18384">
        <ele>126.3</ele>
        <time>2015-02-26T09:50:37Z</time>
      </trkpt>
      <trkpt lat="48.0844" lon="-4.18384">
        <ele>128.7</ele>
        <time>2015-02-26T09:50:37Z</time>
      </trkpt>
      <trkpt lat="48.08465" lon="-4.18383">
        <ele>131.3</ele>
        <time>2015-02-26T09:50:37Z</time>
      </trkpt>
      <trkpt lat="48.08491" lon="-4.18383">
        <ele>133.9</ele>
        <time>2015-02-26T09:50:37Z</time>
      </trkpt>
      <trkpt lat="48.08497" lon="-4.18383">
        <ele>134.5</ele>
        <time>2015-02-26T09:50:37Z</time>
      </trkpt>
      <trkpt lat="48.08519" lon="-4.18403">
        <ele>137.6</ele>
        <time>2015-02-26T09:50:37Z</time>
      </trkpt>
      <trkpt lat="48.08543" lon="-4.18422">
        <ele>140.8</ele>
        <time>2015-02-26T09:50:37Z</time>
      </trkpt>
      <trkpt lat="48.08566" lon="-4.18442">
        <ele>143.2</ele>
        <time>2015-02-26T09:50:37Z</time>
      </trkpt>
      <trkpt lat="48.0859" lon="-4.18462">
        <ele>145.1</ele>
        <time>2015-02-26T09:50:37Z</time>
      </trkpt>
      <trkpt lat="48.08605" lon="-4.18475">
        <ele>146.5</ele>
        <time>2015-02-26T09:50:37Z</time>
      </trkpt>
      <trkpt lat="48.08611" lon="-4.1844">
        <ele>149.9</ele>
        <time>2015-02-26T09:50:37Z</time>
      </trkpt>
      <trkpt lat="48.08616" lon="-4.18405">
        <ele>153</ele>
        <time>2015-02-26T09:50:37Z</time>
      </trkpt>
      <trkpt lat="48.08621" lon="-4.18369">
        <ele>155.5</ele>
        <time>2015-02-26T09:50:37Z</time>
      </trkpt>
      <trkpt lat="48.08623" lon="-4.18352">
        <ele>156.7</ele>
        <time>2015-02-26T09:50:37Z</time>
      </trkpt>
      <trkpt lat="48.08622" lon="-4.18303">
        <ele>158.1</ele>
        <time>2015-02-26T09:50:37Z</time>
      </trkpt>
      <trkpt lat="48.08621" lon="-4.18255">
        <ele>158.9</ele>
        <time>2015-02-26T09:50:37Z</time>
      </trkpt>
      <trkpt lat="48.0862" lon="-4.18206">
        <ele>159.8</ele>
        <time>2015-02-26T09:50:37Z</time>
      </trkpt>
      <trkpt lat="48.0862" lon="-4.18157">
        <ele>160.8</ele>
        <time>2015-02-26T09:50:37Z</time>
      </trkpt>
      <trkpt lat="48.0862" lon="-4.18144">
        <ele>161</ele>
        <time>2015-02-26T09:50:37Z</time>
      </trkpt>
      <trkpt lat="48.08625" lon="-4.1808">
        <ele>162.4</ele>
        <time>2015-02-26T09:50:37Z</time>
      </trkpt>
      <trkpt lat="48.08627" lon="-4.18045">
        <ele>161.9</ele>
        <time>2015-02-26T09:50:37Z</time>
      </trkpt>
      <trkpt lat="48.08634" lon="-4.17996">
        <ele>161.4</ele>
        <time>2015-02-26T09:50:37Z</time>
      </trkpt>
      <trkpt lat="48.08648" lon="-4.17973">
        <ele>161.8</ele>
        <time>2015-02-26T09:50:37Z</time>
      </trkpt>
      <trkpt lat="48.0866" lon="-4.17965">
        <ele>162.7</ele>
        <time>2015-02-26T09:50:37Z</time>
      </trkpt>
      <trkpt lat="48.08689" lon="-4.17961">
        <ele>163.3</ele>
        <time>2015-02-26T09:50:37Z</time>
      </trkpt>
      <trkpt lat="48.08712" lon="-4.1796">
        <ele>163.3</ele>
        <time>2015-02-26T09:50:37Z</time>
      </trkpt>
      <trkpt lat="48.0873" lon="-4.17962">
        <ele>163.6</ele>
        <time>2015-02-26T09:50:37Z</time>
      </trkpt>
      <trkpt lat="48.08739" lon="-4.1797">
        <ele>163.9</ele>
        <time>2015-02-26T09:50:37Z</time>
      </trkpt>
      <trkpt lat="48.08746" lon="-4.17986">
        <ele>164.5</ele>
        <time>2015-02-26T09:50:37Z</time>
      </trkpt>
      <trkpt lat="48.0875" lon="-4.18014">
        <ele>165.5</ele>
        <time>2015-02-26T09:50:37Z</time>
      </trkpt>
      <trkpt lat="48.08753" lon="-4.18076">
        <ele>167.7</ele>
        <time>2015-02-26T09:50:37Z</time>
      </trkpt>
      <trkpt lat="48.08757" lon="-4.18138">
        <ele>169.4</ele>
        <time>2015-02-26T09:50:37Z</time>
      </trkpt>
      <trkpt lat="48.0876" lon="-4.182">
        <ele>170.7</ele>
        <time>2015-02-26T09:50:37Z</time>
      </trkpt>
      <trkpt lat="48.08763" lon="-4.1825">
        <ele>171.6</ele>
        <time>2015-02-26T09:50:37Z</time>
      </trkpt>
      <trkpt lat="48.08765" lon="-4.18263">
        <ele>171.8</ele>
        <time>2015-02-26T09:50:37Z</time>
      </trkpt>
      <trkpt lat="48.08774" lon="-4.18271">
        <ele>172.3</ele>
        <time>2015-02-26T09:50:37Z</time>
      </trkpt>
      <trkpt lat="48.08787" lon="-4.18277">
        <ele>173.1</ele>
        <time>2015-02-26T09:50:37Z</time>
      </trkpt>
      <trkpt lat="48.08822" lon="-4.18283">
        <ele>175.2</ele>
        <time>2015-02-26T09:50:37Z</time>
      </trkpt>
      <trkpt lat="48.08858" lon="-4.18291">
        <ele>178.6</ele>
        <time>2015-02-26T09:50:37Z</time>
      </trkpt>
      <trkpt lat="48.08895" lon="-4.18299">
        <ele>182.3</ele>
        <time>2015-02-26T09:50:37Z</time>
      </trkpt>
      <trkpt lat="48.08919" lon="-4.18306">
        <ele>184.6</ele>
        <time>2015-02-26T09:50:37Z</time>
      </trkpt>
      <trkpt lat="48.08938" lon="-4.18309">
        <ele>186.8</ele>
        <time>2015-02-26T09:50:37Z</time>
      </trkpt>
      <trkpt lat="48.08942" lon="-4.18268">
        <ele>187.2</ele>
        <time>2015-02-26T09:50:37Z</time>
      </trkpt>
      <trkpt lat="48.08942" lon="-4.18268">
        <ele>187.2</ele>
        <time>2015-02-26T09:50:37Z</time>
      </trkpt>
      <trkpt lat="48.08947" lon="-4.18227">
        <ele>187.1</ele>
        <time>2015-02-26T09:50:37Z</time>
      </trkpt>
      <trkpt lat="48.08948" lon="-4.18215">
        <ele>186.9</ele>
        <time>2015-02-26T09:50:37Z</time>
      </trkpt>
      <trkpt lat="48.08923" lon="-4.18175">
        <ele>184.5</ele>
        <time>2015-02-26T09:50:37Z</time>
      </trkpt>
      <trkpt lat="48.08898" lon="-4.18132">
        <ele>179</ele>
        <time>2015-02-26T09:50:37Z</time>
      </trkpt>
      <trkpt lat="48.08895" lon="-4.18124">
        <ele>178.1</ele>
        <time>2015-02-26T09:50:37Z</time>
      </trkpt>
      <trkpt lat="48.08896" lon="-4.18082">
        <ele>175.4</ele>
        <time>2015-02-26T09:50:37Z</time>
      </trkpt>
      <trkpt lat="48.08897" lon="-4.18039">
        <ele>171.4</ele>
        <time>2015-02-26T09:50:37Z</time>
      </trkpt>
      <trkpt lat="48.08899" lon="-4.17988">
        <ele>167.1</ele>
        <time>2015-02-26T09:50:37Z</time>
      </trkpt>
      <trkpt lat="48.08902" lon="-4.17937">
        <ele>164.6</ele>
        <time>2015-02-26T09:50:37Z</time>
      </trkpt>
      <trkpt lat="48.08904" lon="-4.17886">
        <ele>162.2</ele>
        <time>2015-02-26T09:50:37Z</time>
      </trkpt>
      <trkpt lat="48.08905" lon="-4.17849">
        <ele>160.5</ele>
        <time>2015-02-26T09:50:37Z</time>
      </trkpt>
      <trkpt lat="48.0891" lon="-4.17846">
        <ele>160.4</ele>
        <time>2015-02-26T09:50:37Z</time>
      </trkpt>
      <trkpt lat="48.08918" lon="-4.17858">
        <ele>161.3</ele>
        <time>2015-02-26T09:50:37Z</time>
      </trkpt>
      <trkpt lat="48.08929" lon="-4.17874">
        <ele>162.7</ele>
        <time>2015-02-26T09:50:37Z</time>
      </trkpt>
      <trkpt lat="48.08942" lon="-4.17892">
        <ele>164.2</ele>
        <time>2015-02-26T09:50:37Z</time>
      </trkpt>
      <trkpt lat="48.08955" lon="-4.1791">
        <ele>166</ele>
        <time>2015-02-26T09:50:37Z</time>
      </trkpt>
      <trkpt lat="48.08969" lon="-4.17923">
        <ele>167.6</ele>
        <time>2015-02-26T09:50:37Z</time>
      </trkpt>
      <trkpt lat="48.08983" lon="-4.17931">
        <ele>169.2</ele>
        <time>2015-02-26T09:50:37Z</time>
      </trkpt>
      <trkpt lat="48.08999" lon="-4.17939">
        <ele>170.8</ele>
        <time>2015-02-26T09:50:37Z</time>
      </trkpt>
      <trkpt lat="48.09015" lon="-4.17946">
        <ele>173.3</ele>
        <time>2015-02-26T09:50:37Z</time>
      </trkpt>
      <trkpt lat="48.09031" lon="-4.17954">
        <ele>175.8</ele>
        <time>2015-02-26T09:50:37Z</time>
      </trkpt>
      <trkpt lat="48.09047" lon="-4.17962">
        <ele>178.5</ele>
        <time>2015-02-26T09:50:37Z</time>
      </trkpt>
      <trkpt lat="48.09071" lon="-4.17972">
        <ele>182.6</ele>
        <time>2015-02-26T09:50:37Z</time>
      </trkpt>
      <trkpt lat="48.09099" lon="-4.17985">
        <ele>187.9</ele>
        <time>2015-02-26T09:50:37Z</time>
      </trkpt>
      <trkpt lat="48.09112" lon="-4.1799">
        <ele>190.5</ele>
        <time>2015-02-26T09:50:37Z</time>
      </trkpt>
      <trkpt lat="48.09123" lon="-4.17992">
        <ele>192.3</ele>
        <time>2015-02-26T09:50:37Z</time>
      </trkpt>
      <trkpt lat="48.09136" lon="-4.17991">
        <ele>194.3</ele>
        <time>2015-02-26T09:50:37Z</time>
      </trkpt>
      <trkpt lat="48.0915" lon="-4.17986">
        <ele>195.9</ele>
        <time>2015-02-26T09:50:37Z</time>
      </trkpt>
      <trkpt lat="48.09157" lon="-4.17984">
        <ele>196.9</ele>
        <time>2015-02-26T09:50:37Z</time>
      </trkpt>
      <trkpt lat="48.09157" lon="-4.17992">
        <ele>197.8</ele>
        <time>2015-02-26T09:50:37Z</time>
      </trkpt>
      <trkpt lat="48.09156" lon="-4.18">
        <ele>198.3</ele>
        <time>2015-02-26T09:50:37Z</time>
      </trkpt>
      <trkpt lat="48.09154" lon="-4.18008">
        <ele>198.5</ele>
        <time>2015-02-26T09:50:37Z</time>
      </trkpt>
      <trkpt lat="48.0915" lon="-4.18021">
        <ele>198.4</ele>
        <time>2015-02-26T09:50:37Z</time>
      </trkpt>
      <trkpt lat="48.09147" lon="-4.18034">
        <ele>198.6</ele>
        <time>2015-02-26T09:50:37Z</time>
      </trkpt>
      <trkpt lat="48.09145" lon="-4.18047">
        <ele>198.9</ele>
        <time>2015-02-26T09:50:37Z</time>
      </trkpt>
      <trkpt lat="48.09144" lon="-4.18062">
        <ele>199.4</ele>
        <time>2015-02-26T09:50:37Z</time>
      </trkpt>
      <trkpt lat="48.09145" lon="-4.18085">
        <ele>200.7</ele>
        <time>2015-02-26T09:50:37Z</time>
      </trkpt>
      <trkpt lat="48.09149" lon="-4.18128">
        <ele>201.6</ele>
        <time>2015-02-26T09:50:37Z</time>
      </trkpt>
      <trkpt lat="48.09154" lon="-4.18176">
        <ele>202.5</ele>
        <time>2015-02-26T09:50:37Z</time>
      </trkpt>
      <trkpt lat="48.09159" lon="-4.18227">
        <ele>202.7</ele>
        <time>2015-02-26T09:50:37Z</time>
      </trkpt>
      <trkpt lat="48.09165" lon="-4.18298">
        <ele>203.5</ele>
        <time>2015-02-26T09:50:37Z</time>
      </trkpt>
      <trkpt lat="48.09172" lon="-4.18369">
        <ele>207.6</ele>
        <time>2015-02-26T09:50:37Z</time>
      </trkpt>
      <trkpt lat="48.09179" lon="-4.1843">
        <ele>213.2</ele>
        <time>2015-02-26T09:50:37Z</time>
      </trkpt>
      <trkpt lat="48.09185" lon="-4.18468">
        <ele>217</ele>
        <time>2015-02-26T09:50:37Z</time>
      </trkpt>
      <trkpt lat="48.09194" lon="-4.18518">
        <ele>221.2</ele>
        <time>2015-02-26T09:50:37Z</time>
      </trkpt>
      <trkpt lat="48.09207" lon="-4.18576">
        <ele>224.2</ele>
        <time>2015-02-26T09:50:37Z</time>
      </trkpt>
      <trkpt lat="48.09217" lon="-4.18618">
        <ele>223.9</ele>
        <time>2015-02-26T09:50:37Z</time>
      </trkpt>
      <trkpt lat="48.0923" lon="-4.18639">
        <ele>223.9</ele>
        <time>2015-02-26T09:50:37Z</time>
      </trkpt>
      <trkpt lat="48.09246" lon="-4.18663">
        <ele>223.9</ele>
        <time>2015-02-26T09:50:37Z</time>
      </trkpt>
      <trkpt lat="48.09269" lon="-4.18699">
        <ele>226.2</ele>
        <time>2015-02-26T09:50:37Z</time>
      </trkpt>
      <trkpt lat="48.09291" lon="-4.18734">
        <ele>228.7</ele>
        <time>2015-02-26T09:50:37Z</time>
      </trkpt>
      <trkpt lat="48.09311" lon="-4.18772">
        <ele>230.4</ele>
        <time>2015-02-26T09:50:37Z</time>
      </trkpt>
      <trkpt lat="48.0933" lon="-4.18806">
        <ele>231.6</ele>
        <time>2015-02-26T09:50:37Z</time>
      </trkpt>
      <trkpt lat="48.09346" lon="-4.1884">
        <ele>231.8</ele>
        <time>2015-02-26T09:50:37Z</time>
      </trkpt>
      <trkpt lat="48.0936" lon="-4.1888">
        <ele>231.6</ele>
        <time>2015-02-26T09:50:37Z</time>
      </trkpt>
      <trkpt lat="48.09374" lon="-4.18912">
        <ele>231.6</ele>
        <time>2015-02-26T09:50:37Z</time>
      </trkpt>
      <trkpt lat="48.09388" lon="-4.18942">
        <ele>232.2</ele>
        <time>2015-02-26T09:50:37Z</time>
      </trkpt>
      <trkpt lat="48.09404" lon="-4.18972">
        <ele>232.8</ele>
        <time>2015-02-26T09:50:37Z</time>
      </trkpt>
      <trkpt lat="48.09419" lon="-4.19003">
        <ele>233</ele>
        <time>2015-02-26T09:50:37Z</time>
      </trkpt>
      <trkpt lat="48.09434" lon="-4.19033">
        <ele>232.9</ele>
        <time>2015-02-26T09:50:37Z</time>
      </trkpt>
      <trkpt lat="48.09451" lon="-4.19067">
        <ele>232.7</ele>
        <time>2015-02-26T09:50:37Z</time>
      </trkpt>
      <trkpt lat="48.0947" lon="-4.19109">
        <ele>231.5</ele>
        <time>2015-02-26T09:50:37Z</time>
      </trkpt>
      <trkpt lat="48.0948" lon="-4.19131">
        <ele>230.4</ele>
        <time>2015-02-26T09:50:37Z</time>
      </trkpt>
      <trkpt lat="48.09495" lon="-4.1915">
        <ele>229.2</ele>
        <time>2015-02-26T09:50:37Z</time>
      </trkpt>
      <trkpt lat="48.0951" lon="-4.19171">
        <ele>227.7</ele>
        <time>2015-02-26T09:50:37Z</time>
      </trkpt>
      <trkpt lat="48.09525" lon="-4.19191">
        <ele>226.7</ele>
        <time>2015-02-26T09:50:37Z</time>
      </trkpt>
      <trkpt lat="48.0953" lon="-4.19197">
        <ele>226.4</ele>
        <time>2015-02-26T09:50:37Z</time>
      </trkpt>
      <trkpt lat="48.09531" lon="-4.19206">
        <ele>226</ele>
        <time>2015-02-26T09:50:37Z</time>
      </trkpt>
      <trkpt lat="48.09529" lon="-4.1922">
        <ele>225.5</ele>
        <time>2015-02-26T09:50:37Z</time>
      </trkpt>
      <trkpt lat="48.09523" lon="-4.19237">
        <ele>225.1</ele>
        <time>2015-02-26T09:50:37Z</time>
      </trkpt>
      <trkpt lat="48.09517" lon="-4.19255">
        <ele>224.8</ele>
        <time>2015-02-26T09:50:37Z</time>
      </trkpt>
      <trkpt lat="48.09516" lon="-4.19269">
        <ele>224.4</ele>
        <time>2015-02-26T09:50:37Z</time>
      </trkpt>
      <trkpt lat="48.09533" lon="-4.19301">
        <ele>221.8</ele>
        <time>2015-02-26T09:50:37Z</time>
      </trkpt>
      <trkpt lat="48.09552" lon="-4.19338">
        <ele>218.2</ele>
        <time>2015-02-26T09:50:37Z</time>
      </trkpt>
      <trkpt lat="48.09574" lon="-4.19386">
        <ele>214.1</ele>
        <time>2015-02-26T09:50:37Z</time>
      </trkpt>
      <trkpt lat="48.09596" lon="-4.19434">
        <ele>208.6</ele>
        <time>2015-02-26T09:50:37Z</time>
      </trkpt>
      <trkpt lat="48.09611" lon="-4.19461">
        <ele>203.6</ele>
        <time>2015-02-26T09:50:37Z</time>
      </trkpt>
      <trkpt lat="48.09613" lon="-4.19469">
        <ele>202.8</ele>
        <time>2015-02-26T09:50:37Z</time>
      </trkpt>
      <trkpt lat="48.09608" lon="-4.19489">
        <ele>202.9</ele>
        <time>2015-02-26T09:50:37Z</time>
      </trkpt>
      <trkpt lat="48.09604" lon="-4.19511">
        <ele>202.6</ele>
        <time>2015-02-26T09:50:37Z</time>
      </trkpt>
      <trkpt lat="48.09599" lon="-4.19535">
        <ele>201.8</ele>
        <time>2015-02-26T09:50:37Z</time>
      </trkpt>
      <trkpt lat="48.09594" lon="-4.19563">
        <ele>200.5</ele>
        <time>2015-02-26T09:50:37Z</time>
      </trkpt>
      <trkpt lat="48.09586" lon="-4.19596">
        <ele>198.7</ele>
        <time>2015-02-26T09:50:37Z</time>
      </trkpt>
      <trkpt lat="48.0958" lon="-4.19631">
        <ele>195.8</ele>
        <time>2015-02-26T09:50:37Z</time>
      </trkpt>
      <trkpt lat="48.09574" lon="-4.19667">
        <ele>192.8</ele>
        <time>2015-02-26T09:50:37Z</time>
      </trkpt>
      <trkpt lat="48.09568" lon="-4.19702">
        <ele>190.9</ele>
        <time>2015-02-26T09:50:37Z</time>
      </trkpt>
      <trkpt lat="48.09567" lon="-4.19716">
        <ele>189.9</ele>
        <time>2015-02-26T09:50:37Z</time>
      </trkpt>
      <trkpt lat="48.09566" lon="-4.19731">
        <ele>188.6</ele>
        <time>2015-02-26T09:50:37Z</time>
      </trkpt>
      <trkpt lat="48.09566" lon="-4.19749">
        <ele>187.2</ele>
        <time>2015-02-26T09:50:37Z</time>
      </trkpt>
      <trkpt lat="48.09564" lon="-4.19755">
        <ele>187.1</ele>
        <time>2015-02-26T09:50:37Z</time>
      </trkpt>
      <trkpt lat="48.09558" lon="-4.19762">
        <ele>187.7</ele>
        <time>2015-02-26T09:50:37Z</time>
      </trkpt>
      <trkpt lat="48.09553" lon="-4.19776">
        <ele>187.3</ele>
        <time>2015-02-26T09:50:37Z</time>
      </trkpt>
      <trkpt lat="48.09549" lon="-4.19795">
        <ele>186.5</ele>
        <time>2015-02-26T09:50:37Z</time>
      </trkpt>
      <trkpt lat="48.09543" lon="-4.19813">
        <ele>186.3</ele>
        <time>2015-02-26T09:50:37Z</time>
      </trkpt>
      <trkpt lat="48.09536" lon="-4.19827">
        <ele>186.5</ele>
        <time>2015-02-26T09:50:37Z</time>
      </trkpt>
      <trkpt lat="48.09526" lon="-4.19839">
        <ele>187.8</ele>
        <time>2015-02-26T09:50:37Z</time>
      </trkpt>
      <trkpt lat="48.09512" lon="-4.1985">
        <ele>190.3</ele>
        <time>2015-02-26T09:50:37Z</time>
      </trkpt>
      <trkpt lat="48.09495" lon="-4.19866">
        <ele>193.3</ele>
        <time>2015-02-26T09:50:37Z</time>
      </trkpt>
      <trkpt lat="48.09478" lon="-4.19882">
        <ele>196.4</ele>
        <time>2015-02-26T09:50:37Z</time>
      </trkpt>
      <trkpt lat="48.09463" lon="-4.19899">
        <ele>199.1</ele>
        <time>2015-02-26T09:50:37Z</time>
      </trkpt>
      <trkpt lat="48.09459" lon="-4.19909">
        <ele>199.5</ele>
        <time>2015-02-26T09:50:37Z</time>
      </trkpt>
      <trkpt lat="48.0946" lon="-4.19919">
        <ele>199.3</ele>
        <time>2015-02-26T09:50:37Z</time>
      </trkpt>
      <trkpt lat="48.09468" lon="-4.19931">
        <ele>197.8</ele>
        <time>2015-02-26T09:50:37Z</time>
      </trkpt>
      <trkpt lat="48.09483" lon="-4.19961">
        <ele>195.2</ele>
        <time>2015-02-26T09:50:37Z</time>
      </trkpt>
      <trkpt lat="48.09498" lon="-4.19991">
        <ele>192.3</ele>
        <time>2015-02-26T09:50:37Z</time>
      </trkpt>
      <trkpt lat="48.09508" lon="-4.20012">
        <ele>191.8</ele>
        <time>2015-02-26T09:50:37Z</time>
      </trkpt>
      <trkpt lat="48.09508" lon="-4.2002">
        <ele>192.8</ele>
        <time>2015-02-26T09:50:37Z</time>
      </trkpt>
      <trkpt lat="48.09505" lon="-4.2003">
        <ele>194.8</ele>
        <time>2015-02-26T09:50:37Z</time>
      </trkpt>
      <trkpt lat="48.09492" lon="-4.20083">
        <ele>204.9</ele>
        <time>2015-02-26T09:50:37Z</time>
      </trkpt>
      <trkpt lat="48.09479" lon="-4.20135">
        <ele>212.4</ele>
        <time>2015-02-26T09:50:37Z</time>
      </trkpt>
      <trkpt lat="48.09466" lon="-4.20188">
        <ele>218.9</ele>
        <time>2015-02-26T09:50:37Z</time>
      </trkpt>
      <trkpt lat="48.09452" lon="-4.2024">
        <ele>223.8</ele>
        <time>2015-02-26T09:50:37Z</time>
      </trkpt>
      <trkpt lat="48.09438" lon="-4.20294">
        <ele>225.8</ele>
        <time>2015-02-26T09:50:37Z</time>
      </trkpt>
      <trkpt lat="48.09424" lon="-4.20347">
        <ele>226</ele>
        <time>2015-02-26T09:50:37Z</time>
      </trkpt>
      <trkpt lat="48.09411" lon="-4.204">
        <ele>223.7</ele>
        <time>2015-02-26T09:50:37Z</time>
      </trkpt>
      <trkpt lat="48.09397" lon="-4.20453">
        <ele>219.9</ele>
        <time>2015-02-26T09:50:37Z</time>
      </trkpt>
      <trkpt lat="48.09379" lon="-4.20527">
        <ele>213.5</ele>
        <time>2015-02-26T09:50:37Z</time>
      </trkpt>
      <trkpt lat="48.09361" lon="-4.20604">
        <ele>206.2</ele>
        <time>2015-02-26T09:50:37Z</time>
      </trkpt>
      <trkpt lat="48.09343" lon="-4.20675">
        <ele>201.9</ele>
        <time>2015-02-26T09:50:37Z</time>
      </trkpt>
      <trkpt lat="48.09342" lon="-4.20686">
        <ele>201.5</ele>
        <time>2015-02-26T09:50:37Z</time>
      </trkpt>
      <trkpt lat="48.09355" lon="-4.20703">
        <ele>200.8</ele>
        <time>2015-02-26T09:50:37Z</time>
      </trkpt>
      <trkpt lat="48.09368" lon="-4.20721">
        <ele>199.9</ele>
        <time>2015-02-26T09:50:37Z</time>
      </trkpt>
      <trkpt lat="48.09376" lon="-4.20733">
        <ele>199</ele>
        <time>2015-02-26T09:50:37Z</time>
      </trkpt>
      <trkpt lat="48.09378" lon="-4.20742">
        <ele>198.5</ele>
        <time>2015-02-26T09:50:37Z</time>
      </trkpt>
      <trkpt lat="48.09375" lon="-4.20766">
        <ele>197.2</ele>
        <time>2015-02-26T09:50:37Z</time>
      </trkpt>
      <trkpt lat="48.09372" lon="-4.20796">
        <ele>196</ele>
        <time>2015-02-26T09:50:37Z</time>
      </trkpt>
      <trkpt lat="48.0937" lon="-4.20825">
        <ele>194.9</ele>
        <time>2015-02-26T09:50:37Z</time>
      </trkpt>
      <trkpt lat="48.09367" lon="-4.20857">
        <ele>193.2</ele>
        <time>2015-02-26T09:50:37Z</time>
      </trkpt>
      <trkpt lat="48.09364" lon="-4.20888">
        <ele>191.1</ele>
        <time>2015-02-26T09:50:37Z</time>
      </trkpt>
      <trkpt lat="48.09361" lon="-4.2092">
        <ele>189</ele>
        <time>2015-02-26T09:50:37Z</time>
      </trkpt>
      <trkpt lat="48.0936" lon="-4.20936">
        <ele>187.7</ele>
        <time>2015-02-26T09:50:37Z</time>
      </trkpt>
      <trkpt lat="48.09364" lon="-4.20947">
        <ele>186.5</ele>
        <time>2015-02-26T09:50:37Z</time>
      </trkpt>
      <trkpt lat="48.09368" lon="-4.20958">
        <ele>185.6</ele>
        <time>2015-02-26T09:50:37Z</time>
      </trkpt>
      <trkpt lat="48.09368" lon="-4.20966">
        <ele>185</ele>
        <time>2015-02-26T09:50:37Z</time>
      </trkpt>
      <trkpt lat="48.0936" lon="-4.20975">
        <ele>184.2</ele>
        <time>2015-02-26T09:50:37Z</time>
      </trkpt>
      <trkpt lat="48.09351" lon="-4.20978">
        <ele>183.8</ele>
        <time>2015-02-26T09:50:37Z</time>
      </trkpt>
      <trkpt lat="48.09339" lon="-4.20981">
        <ele>183.3</ele>
        <time>2015-02-26T09:50:37Z</time>
      </trkpt>
      <trkpt lat="48.09328" lon="-4.20987">
        <ele>182</ele>
        <time>2015-02-26T09:50:37Z</time>
      </trkpt>
      <trkpt lat="48.09323" lon="-4.20996">
        <ele>180.8</ele>
        <time>2015-02-26T09:50:37Z</time>
      </trkpt>
      <trkpt lat="48.09322" lon="-4.21011">
        <ele>178.4</ele>
        <time>2015-02-26T09:50:37Z</time>
      </trkpt>
      <trkpt lat="48.0932" lon="-4.2103">
        <ele>175.7</ele>
        <time>2015-02-26T09:50:37Z</time>
      </trkpt>
      <trkpt lat="48.09317" lon="-4.21057">
        <ele>171.6</ele>
        <time>2015-02-26T09:50:37Z</time>
      </trkpt>
      <trkpt lat="48.09312" lon="-4.21087">
        <ele>167.5</ele>
        <time>2015-02-26T09:50:37Z</time>
      </trkpt>
      <trkpt lat="48.09307" lon="-4.21118">
        <ele>165.1</ele>
        <time>2015-02-26T09:50:37Z</time>
      </trkpt>
      <trkpt lat="48.09302" lon="-4.21149">
        <ele>162.9</ele>
        <time>2015-02-26T09:50:37Z</time>
      </trkpt>
      <trkpt lat="48.093" lon="-4.21169">
        <ele>161.8</ele>
        <time>2015-02-26T09:50:37Z</time>
      </trkpt>
      <trkpt lat="48.09306" lon="-4.21181">
        <ele>161.7</ele>
        <time>2015-02-26T09:50:37Z</time>
      </trkpt>
      <trkpt lat="48.0932" lon="-4.21196">
        <ele>161.3</ele>
        <time>2015-02-26T09:50:37Z</time>
      </trkpt>
      <trkpt lat="48.09336" lon="-4.21214">
        <ele>161.1</ele>
        <time>2015-02-26T09:50:37Z</time>
      </trkpt>
      <trkpt lat="48.09353" lon="-4.21234">
        <ele>161.2</ele>
        <time>2015-02-26T09:50:37Z</time>
      </trkpt>
      <trkpt lat="48.0937" lon="-4.21254">
        <ele>160.9</ele>
        <time>2015-02-26T09:50:37Z</time>
      </trkpt>
      <trkpt lat="48.09384" lon="-4.2127">
        <ele>160.8</ele>
        <time>2015-02-26T09:50:37Z</time>
      </trkpt>
      <trkpt lat="48.09383" lon="-4.21281">
        <ele>160.6</ele>
        <time>2015-02-26T09:50:37Z</time>
      </trkpt>
      <trkpt lat="48.09382" lon="-4.2129">
        <ele>160.5</ele>
        <time>2015-02-26T09:50:37Z</time>
      </trkpt>
      <trkpt lat="48.09379" lon="-4.21296">
        <ele>160.4</ele>
        <time>2015-02-26T09:50:37Z</time>
      </trkpt>
      <trkpt lat="48.09372" lon="-4.213">
        <ele>160.4</ele>
        <time>2015-02-26T09:50:37Z</time>
      </trkpt>
      <trkpt lat="48.09362" lon="-4.21305">
        <ele>160.3</ele>
        <time>2015-02-26T09:50:37Z</time>
      </trkpt>
      <trkpt lat="48.09333" lon="-4.21313">
        <ele>160.2</ele>
        <time>2015-02-26T09:50:37Z</time>
      </trkpt>
      <trkpt lat="48.09319" lon="-4.21318">
        <ele>160.6</ele>
        <time>2015-02-26T09:50:37Z</time>
      </trkpt>
      <trkpt lat="48.09305" lon="-4.21324">
        <ele>161.1</ele>
        <time>2015-02-26T09:50:37Z</time>
      </trkpt>
      <trkpt lat="48.09301" lon="-4.21328">
        <ele>161.2</ele>
        <time>2015-02-26T09:50:37Z</time>
      </trkpt>
      <trkpt lat="48.093" lon="-4.21336">
        <ele>161.2</ele>
        <time>2015-02-26T09:50:37Z</time>
      </trkpt>
      <trkpt lat="48.09299" lon="-4.21347">
        <ele>161.3</ele>
        <time>2015-02-26T09:50:37Z</time>
      </trkpt>
      <trkpt lat="48.09303" lon="-4.2136">
        <ele>161.2</ele>
        <time>2015-02-26T09:50:37Z</time>
      </trkpt>
      <trkpt lat="48.09307" lon="-4.21374">
        <ele>161.1</ele>
        <time>2015-02-26T09:50:37Z</time>
      </trkpt>
      <trkpt lat="48.0931" lon="-4.21388">
        <ele>161</ele>
        <time>2015-02-26T09:50:37Z</time>
      </trkpt>
      <trkpt lat="48.09311" lon="-4.21401">
        <ele>161</ele>
        <time>2015-02-26T09:50:37Z</time>
      </trkpt>
      <trkpt lat="48.09311" lon="-4.21413">
        <ele>161.1</ele>
        <time>2015-02-26T09:50:37Z</time>
      </trkpt>
      <trkpt lat="48.09311" lon="-4.21426">
        <ele>161.1</ele>
        <time>2015-02-26T09:50:37Z</time>
      </trkpt>
      <trkpt lat="48.09312" lon="-4.21438">
        <ele>161.2</ele>
        <time>2015-02-26T09:50:37Z</time>
      </trkpt>
      <trkpt lat="48.09315" lon="-4.21451">
        <ele>161.1</ele>
        <time>2015-02-26T09:50:37Z</time>
      </trkpt>
      <trkpt lat="48.09317" lon="-4.21465">
        <ele>161.1</ele>
        <time>2015-02-26T09:50:37Z</time>
      </trkpt>
      <trkpt lat="48.09316" lon="-4.21486">
        <ele>161.3</ele>
        <time>2015-02-26T09:50:37Z</time>
      </trkpt>
      <trkpt lat="48.09314" lon="-4.21509">
        <ele>161.4</ele>
        <time>2015-02-26T09:50:37Z</time>
      </trkpt>
      <trkpt lat="48.09313" lon="-4.21532">
        <ele>161.4</ele>
        <time>2015-02-26T09:50:37Z</time>
      </trkpt>
      <trkpt lat="48.0931" lon="-4.21554">
        <ele>161.4</ele>
        <time>2015-02-26T09:50:37Z</time>
      </trkpt>
      <trkpt lat="48.09306" lon="-4.21581">
        <ele>161.3</ele>
        <time>2015-02-26T09:50:37Z</time>
      </trkpt>
      <trkpt lat="48.093" lon="-4.21605">
        <ele>161.4</ele>
        <time>2015-02-26T09:50:37Z</time>
      </trkpt>
      <trkpt lat="48.09293" lon="-4.21628">
        <ele>161.5</ele>
        <time>2015-02-26T09:50:37Z</time>
      </trkpt>
      <trkpt lat="48.0929" lon="-4.21647">
        <ele>161.5</ele>
        <time>2015-02-26T09:50:37Z</time>
      </trkpt>
      <trkpt lat="48.09291" lon="-4.21666">
        <ele>161.5</ele>
        <time>2015-02-26T09:50:37Z</time>
      </trkpt>
      <trkpt lat="48.09298" lon="-4.21695">
        <ele>161.1</ele>
        <time>2015-02-26T09:50:37Z</time>
      </trkpt>
      <trkpt lat="48.09305" lon="-4.21726">
        <ele>160.6</ele>
        <time>2015-02-26T09:50:37Z</time>
      </trkpt>
      <trkpt lat="48.09312" lon="-4.21757">
        <ele>160.1</ele>
        <time>2015-02-26T09:50:37Z</time>
      </trkpt>
      <trkpt lat="48.09318" lon="-4.21789">
        <ele>159.4</ele>
        <time>2015-02-26T09:50:37Z</time>
      </trkpt>
      <trkpt lat="48.09323" lon="-4.21824">
        <ele>158.5</ele>
        <time>2015-02-26T09:50:37Z</time>
      </trkpt>
      <trkpt lat="48.09326" lon="-4.21857">
        <ele>157.4</ele>
        <time>2015-02-26T09:50:37Z</time>
      </trkpt>
      <trkpt lat="48.09332" lon="-4.21887">
        <ele>156.1</ele>
        <time>2015-02-26T09:50:37Z</time>
      </trkpt>
      <trkpt lat="48.09338" lon="-4.21916">
        <ele>154.7</ele>
        <time>2015-02-26T09:50:37Z</time>
      </trkpt>
      <trkpt lat="48.09343" lon="-4.21946">
        <ele>154</ele>
        <time>2015-02-26T09:50:37Z</time>
      </trkpt>
      <trkpt lat="48.09344" lon="-4.21959">
        <ele>153.9</ele>
        <time>2015-02-26T09:50:37Z</time>
      </trkpt>
      <trkpt lat="48.09341" lon="-4.2197">
        <ele>153.9</ele>
        <time>2015-02-26T09:50:37Z</time>
      </trkpt>
      <trkpt lat="48.09327" lon="-4.21999">
        <ele>154.2</ele>
        <time>2015-02-26T09:50:37Z</time>
      </trkpt>
      <trkpt lat="48.09297" lon="-4.22056">
        <ele>154</ele>
        <time>2015-02-26T09:50:37Z</time>
      </trkpt>
      <trkpt lat="48.09264" lon="-4.22113">
        <ele>153.5</ele>
        <time>2015-02-26T09:50:37Z</time>
      </trkpt>
      <trkpt lat="48.09246" lon="-4.22145">
        <ele>152.8</ele>
        <time>2015-02-26T09:50:37Z</time>
      </trkpt>
      <trkpt lat="48.09217" lon="-4.22185">
        <ele>152.4</ele>
        <time>2015-02-26T09:50:37Z</time>
      </trkpt>
      <trkpt lat="48.09188" lon="-4.22226">
        <ele>152.6</ele>
        <time>2015-02-26T09:50:37Z</time>
      </trkpt>
      <trkpt lat="48.09157" lon="-4.22271">
        <ele>153.5</ele>
        <time>2015-02-26T09:50:37Z</time>
      </trkpt>
      <trkpt lat="48.09127" lon="-4.2231">
        <ele>154.3</ele>
        <time>2015-02-26T09:50:37Z</time>
      </trkpt>
      <trkpt lat="48.09095" lon="-4.22347">
        <ele>154.4</ele>
        <time>2015-02-26T09:50:37Z</time>
      </trkpt>
      <trkpt lat="48.09065" lon="-4.22379">
        <ele>153</ele>
        <time>2015-02-26T09:50:37Z</time>
      </trkpt>
      <trkpt lat="48.09047" lon="-4.22403">
        <ele>152</ele>
        <time>2015-02-26T09:50:37Z</time>
      </trkpt>
      <trkpt lat="48.09029" lon="-4.22436">
        <ele>151</ele>
        <time>2015-02-26T09:50:37Z</time>
      </trkpt>
      <trkpt lat="48.09009" lon="-4.22487">
        <ele>150.2</ele>
        <time>2015-02-26T09:50:37Z</time>
      </trkpt>
      <trkpt lat="48.0899" lon="-4.22538">
        <ele>149.6</ele>
        <time>2015-02-26T09:50:37Z</time>
      </trkpt>
      <trkpt lat="48.0897" lon="-4.22591">
        <ele>149</ele>
        <time>2015-02-26T09:50:37Z</time>
      </trkpt>
      <trkpt lat="48.08951" lon="-4.22643">
        <ele>148.4</ele>
        <time>2015-02-26T09:50:37Z</time>
      </trkpt>
      <trkpt lat="48.08931" lon="-4.22698">
        <ele>146.1</ele>
        <time>2015-02-26T09:50:37Z</time>
      </trkpt>
      <trkpt lat="48.08911" lon="-4.22751">
        <ele>142.6</ele>
        <time>2015-02-26T09:50:37Z</time>
      </trkpt>
      <trkpt lat="48.0889" lon="-4.22803">
        <ele>139.9</ele>
        <time>2015-02-26T09:50:37Z</time>
      </trkpt>
      <trkpt lat="48.08866" lon="-4.22858">
        <ele>137.7</ele>
        <time>2015-02-26T09:50:37Z</time>
      </trkpt>
      <trkpt lat="48.08859" lon="-4.2288">
        <ele>137</ele>
        <time>2015-02-26T09:50:37Z</time>
      </trkpt>
      <trkpt lat="48.08854" lon="-4.22898">
        <ele>136.6</ele>
        <time>2015-02-26T09:50:37Z</time>
      </trkpt>
      <trkpt lat="48.08861" lon="-4.22904">
        <ele>136.6</ele>
        <time>2015-02-26T09:50:37Z</time>
      </trkpt>
      <trkpt lat="48.08865" lon="-4.22915">
        <ele>136.4</ele>
        <time>2015-02-26T09:50:37Z</time>
      </trkpt>
      <trkpt lat="48.08864" lon="-4.22936">
        <ele>136.8</ele>
        <time>2015-02-26T09:50:37Z</time>
      </trkpt>
      <trkpt lat="48.08864" lon="-4.22958">
        <ele>137.2</ele>
        <time>2015-02-26T09:50:37Z</time>
      </trkpt>
      <trkpt lat="48.0887" lon="-4.22985">
        <ele>137.7</ele>
        <time>2015-02-26T09:50:37Z</time>
      </trkpt>
      <trkpt lat="48.08875" lon="-4.23014">
        <ele>138</ele>
        <time>2015-02-26T09:50:37Z</time>
      </trkpt>
      <trkpt lat="48.08872" lon="-4.23044">
        <ele>138</ele>
        <time>2015-02-26T09:50:37Z</time>
      </trkpt>
      <trkpt lat="48.08869" lon="-4.2306">
        <ele>138</ele>
        <time>2015-02-26T09:50:37Z</time>
      </trkpt>
      <trkpt lat="48.08863" lon="-4.23078">
        <ele>138</ele>
        <time>2015-02-26T09:50:37Z</time>
      </trkpt>
      <trkpt lat="48.08855" lon="-4.23098">
        <ele>137.8</ele>
        <time>2015-02-26T09:50:37Z</time>
      </trkpt>
      <trkpt lat="48.08849" lon="-4.23119">
        <ele>137.4</ele>
        <time>2015-02-26T09:50:37Z</time>
      </trkpt>
      <trkpt lat="48.08845" lon="-4.23137">
        <ele>137</ele>
        <time>2015-02-26T09:50:37Z</time>
      </trkpt>
      <trkpt lat="48.08836" lon="-4.23158">
        <ele>136.3</ele>
        <time>2015-02-26T09:50:37Z</time>
      </trkpt>
      <trkpt lat="48.08824" lon="-4.23182">
        <ele>135.8</ele>
        <time>2015-02-26T09:50:37Z</time>
      </trkpt>
      <trkpt lat="48.08813" lon="-4.23207">
        <ele>135.4</ele>
        <time>2015-02-26T09:50:37Z</time>
      </trkpt>
      <trkpt lat="48.08807" lon="-4.23225">
        <ele>135.1</ele>
        <time>2015-02-26T09:50:37Z</time>
      </trkpt>
      <trkpt lat="48.08806" lon="-4.23247">
        <ele>134.7</ele>
        <time>2015-02-26T09:50:37Z</time>
      </trkpt>
      <trkpt lat="48.08812" lon="-4.23275">
        <ele>135.3</ele>
        <time>2015-02-26T09:50:37Z</time>
      </trkpt>
      <trkpt lat="48.0882" lon="-4.23307">
        <ele>136.1</ele>
        <time>2015-02-26T09:50:37Z</time>
      </trkpt>
      <trkpt lat="48.08827" lon="-4.23339">
        <ele>136.8</ele>
        <time>2015-02-26T09:50:37Z</time>
      </trkpt>
      <trkpt lat="48.08834" lon="-4.23373">
        <ele>136.5</ele>
        <time>2015-02-26T09:50:37Z</time>
      </trkpt>
      <trkpt lat="48.08838" lon="-4.23416">
        <ele>136.1</ele>
        <time>2015-02-26T09:50:37Z</time>
      </trkpt>
      <trkpt lat="48.08842" lon="-4.23467">
        <ele>136</ele>
        <time>2015-02-26T09:50:37Z</time>
      </trkpt>
      <trkpt lat="48.08847" lon="-4.23519">
        <ele>136</ele>
        <time>2015-02-26T09:50:37Z</time>
      </trkpt>
      <trkpt lat="48.08852" lon="-4.23571">
        <ele>135.8</ele>
        <time>2015-02-26T09:50:37Z</time>
      </trkpt>
      <trkpt lat="48.08856" lon="-4.23622">
        <ele>135.3</ele>
        <time>2015-02-26T09:50:37Z</time>
      </trkpt>
      <trkpt lat="48.08856" lon="-4.23674">
        <ele>134.6</ele>
        <time>2015-02-26T09:50:37Z</time>
      </trkpt>
      <trkpt lat="48.08858" lon="-4.23686">
        <ele>134.4</ele>
        <time>2015-02-26T09:50:37Z</time>
      </trkpt>
      <trkpt lat="48.08864" lon="-4.23702">
        <ele>134</ele>
        <time>2015-02-26T09:50:37Z</time>
      </trkpt>
      <trkpt lat="48.0887" lon="-4.23723">
        <ele>133.6</ele>
        <time>2015-02-26T09:50:37Z</time>
      </trkpt>
      <trkpt lat="48.08874" lon="-4.23737">
        <ele>133.3</ele>
        <time>2015-02-26T09:50:37Z</time>
      </trkpt>
      <trkpt lat="48.08875" lon="-4.23753">
        <ele>133</ele>
        <time>2015-02-26T09:50:37Z</time>
      </trkpt>
      <trkpt lat="48.08881" lon="-4.23772">
        <ele>132.7</ele>
        <time>2015-02-26T09:50:37Z</time>
      </trkpt>
      <trkpt lat="48.08889" lon="-4.23788">
        <ele>132.2</ele>
        <time>2015-02-26T09:50:37Z</time>
      </trkpt>
      <trkpt lat="48.089" lon="-4.23802">
        <ele>131.5</ele>
        <time>2015-02-26T09:50:37Z</time>
      </trkpt>
      <trkpt lat="48.08912" lon="-4.23819">
        <ele>130.6</ele>
        <time>2015-02-26T09:50:37Z</time>
      </trkpt>
      <trkpt lat="48.08924" lon="-4.23835">
        <ele>129.8</ele>
        <time>2015-02-26T09:50:37Z</time>
      </trkpt>
      <trkpt lat="48.08937" lon="-4.2385">
        <ele>129.4</ele>
        <time>2015-02-26T09:50:37Z</time>
      </trkpt>
      <trkpt lat="48.08952" lon="-4.23863">
        <ele>129.1</ele>
        <time>2015-02-26T09:50:37Z</time>
      </trkpt>
      <trkpt lat="48.08964" lon="-4.23872">
        <ele>128.9</ele>
        <time>2015-02-26T09:50:37Z</time>
      </trkpt>
      <trkpt lat="48.0897" lon="-4.23883">
        <ele>128.9</ele>
        <time>2015-02-26T09:50:37Z</time>
      </trkpt>
      <trkpt lat="48.08973" lon="-4.23895">
        <ele>128.9</ele>
        <time>2015-02-26T09:50:37Z</time>
      </trkpt>
      <trkpt lat="48.08974" lon="-4.23908">
        <ele>129</ele>
        <time>2015-02-26T09:50:37Z</time>
      </trkpt>
      <trkpt lat="48.08972" lon="-4.23928">
        <ele>129.2</ele>
        <time>2015-02-26T09:50:37Z</time>
      </trkpt>
      <trkpt lat="48.08969" lon="-4.23948">
        <ele>129.7</ele>
        <time>2015-02-26T09:50:37Z</time>
      </trkpt>
      <trkpt lat="48.08962" lon="-4.23952">
        <ele>129.8</ele>
        <time>2015-02-26T09:50:37Z</time>
      </trkpt>
      <trkpt lat="48.0895" lon="-4.23967">
        <ele>130.3</ele>
        <time>2015-02-26T09:50:37Z</time>
      </trkpt>
      <trkpt lat="48.08941" lon="-4.2398">
        <ele>130.9</ele>
        <time>2015-02-26T09:50:37Z</time>
      </trkpt>
      <trkpt lat="48.08926" lon="-4.23993">
        <ele>131.6</ele>
        <time>2015-02-26T09:50:37Z</time>
      </trkpt>
      <trkpt lat="48.08912" lon="-4.24006">
        <ele>132.6</ele>
        <time>2015-02-26T09:50:37Z</time>
      </trkpt>
      <trkpt lat="48.08901" lon="-4.24027">
        <ele>133.9</ele>
        <time>2015-02-26T09:50:37Z</time>
      </trkpt>
      <trkpt lat="48.08891" lon="-4.24044">
        <ele>135</ele>
        <time>2015-02-26T09:50:37Z</time>
      </trkpt>
      <trkpt lat="48.08888" lon="-4.24052">
        <ele>135.5</ele>
        <time>2015-02-26T09:50:37Z</time>
      </trkpt>
      <trkpt lat="48.08893" lon="-4.24061">
        <ele>135.6</ele>
        <time>2015-02-26T09:50:37Z</time>
      </trkpt>
      <trkpt lat="48.08909" lon="-4.24077">
        <ele>135.9</ele>
        <time>2015-02-26T09:50:37Z</time>
      </trkpt>
      <trkpt lat="48.08928" lon="-4.24098">
        <ele>135.4</ele>
        <time>2015-02-26T09:50:37Z</time>
      </trkpt>
      <trkpt lat="48.08946" lon="-4.24117">
        <ele>134.8</ele>
        <time>2015-02-26T09:50:37Z</time>
      </trkpt>
      <trkpt lat="48.08949" lon="-4.24124">
        <ele>134.6</ele>
        <time>2015-02-26T09:50:37Z</time>
      </trkpt>
      <trkpt lat="48.08945" lon="-4.24132">
        <ele>134.5</ele>
        <time>2015-02-26T09:50:37Z</time>
      </trkpt>
      <trkpt lat="48.08923" lon="-4.24167">
        <ele>134</ele>
        <time>2015-02-26T09:50:37Z</time>
      </trkpt>
      <trkpt lat="48.08899" lon="-4.242">
        <ele>132.7</ele>
        <time>2015-02-26T09:50:37Z</time>
      </trkpt>
      <trkpt lat="48.08894" lon="-4.24208">
        <ele>132.4</ele>
        <time>2015-02-26T09:50:37Z</time>
      </trkpt>
      <trkpt lat="48.08882" lon="-4.24219">
        <ele>132</ele>
        <time>2015-02-26T09:50:37Z</time>
      </trkpt>
      <trkpt lat="48.08867" lon="-4.24232">
        <ele>131.6</ele>
        <time>2015-02-26T09:50:37Z</time>
      </trkpt>
      <trkpt lat="48.08851" lon="-4.24243">
        <ele>131.2</ele>
        <time>2015-02-26T09:50:37Z</time>
      </trkpt>
      <trkpt lat="48.08828" lon="-4.24253">
        <ele>130.9</ele>
        <time>2015-02-26T09:50:37Z</time>
      </trkpt>
      <trkpt lat="48.08804" lon="-4.24264">
        <ele>130.6</ele>
        <time>2015-02-26T09:50:37Z</time>
      </trkpt>
      <trkpt lat="48.08785" lon="-4.24263">
        <ele>131</ele>
        <time>2015-02-26T09:50:37Z</time>
      </trkpt>
      <trkpt lat="48.08771" lon="-4.24264">
        <ele>131.2</ele>
        <time>2015-02-26T09:50:37Z</time>
      </trkpt>
      <trkpt lat="48.08751" lon="-4.24266">
        <ele>131.4</ele>
        <time>2015-02-26T09:50:37Z</time>
      </trkpt>
      <trkpt lat="48.08732" lon="-4.2427">
        <ele>131.7</ele>
        <time>2015-02-26T09:50:37Z</time>
      </trkpt>
      <trkpt lat="48.08723" lon="-4.24277">
        <ele>131.3</ele>
        <time>2015-02-26T09:50:37Z</time>
      </trkpt>
      <trkpt lat="48.08716" lon="-4.24283">
        <ele>131</ele>
        <time>2015-02-26T09:50:37Z</time>
      </trkpt>
      <trkpt lat="48.08703" lon="-4.24282">
        <ele>131.6</ele>
        <time>2015-02-26T09:50:37Z</time>
      </trkpt>
      <trkpt lat="48.08685" lon="-4.24287">
        <ele>131.7</ele>
        <time>2015-02-26T09:50:37Z</time>
      </trkpt>
      <trkpt lat="48.0867" lon="-4.24299">
        <ele>131.1</ele>
        <time>2015-02-26T09:50:37Z</time>
      </trkpt>
      <trkpt lat="48.08658" lon="-4.24309">
        <ele>130.2</ele>
        <time>2015-02-26T09:50:37Z</time>
      </trkpt>
      <trkpt lat="48.08641" lon="-4.24295">
        <ele>131.2</ele>
        <time>2015-02-26T09:50:37Z</time>
      </trkpt>
      <trkpt lat="48.08623" lon="-4.24279">
        <ele>132.2</ele>
        <time>2015-02-26T09:50:37Z</time>
      </trkpt>
      <trkpt lat="48.08605" lon="-4.24262">
        <ele>132.9</ele>
        <time>2015-02-26T09:50:37Z</time>
      </trkpt>
      <trkpt lat="48.08586" lon="-4.24246">
        <ele>133.2</ele>
        <time>2015-02-26T09:50:37Z</time>
      </trkpt>
      <trkpt lat="48.08568" lon="-4.2423">
        <ele>133.3</ele>
        <time>2015-02-26T09:50:37Z</time>
      </trkpt>
      <trkpt lat="48.08559" lon="-4.24224">
        <ele>133.4</ele>
        <time>2015-02-26T09:50:37Z</time>
      </trkpt>
      <trkpt lat="48.08526" lon="-4.24283">
        <ele>129.9</ele>
        <time>2015-02-26T09:50:37Z</time>
      </trkpt>
      <trkpt lat="48.08492" lon="-4.24343">
        <ele>126.3</ele>
        <time>2015-02-26T09:50:37Z</time>
      </trkpt>
      <trkpt lat="48.08459" lon="-4.24403">
        <ele>123.5</ele>
        <time>2015-02-26T09:50:37Z</time>
      </trkpt>
      <trkpt lat="48.08426" lon="-4.24463">
        <ele>121.7</ele>
        <time>2015-02-26T09:50:37Z</time>
      </trkpt>
      <trkpt lat="48.08393" lon="-4.24522">
        <ele>120</ele>
        <time>2015-02-26T09:50:37Z</time>
      </trkpt>
      <trkpt lat="48.0836" lon="-4.24582">
        <ele>118</ele>
        <time>2015-02-26T09:50:37Z</time>
      </trkpt>
      <trkpt lat="48.08326" lon="-4.2464">
        <ele>117.9</ele>
        <time>2015-02-26T09:50:37Z</time>
      </trkpt>
      <trkpt lat="48.08321" lon="-4.24636">
        <ele>117.8</ele>
        <time>2015-02-26T09:50:37Z</time>
      </trkpt>
      <trkpt lat="48.08308" lon="-4.24625">
        <ele>117.5</ele>
        <time>2015-02-26T09:50:37Z</time>
      </trkpt>
      <trkpt lat="48.08305" lon="-4.24638">
        <ele>117.5</ele>
        <time>2015-02-26T09:50:37Z</time>
      </trkpt>
      <trkpt lat="48.08304" lon="-4.24649">
        <ele>117.6</ele>
        <time>2015-02-26T09:50:37Z</time>
      </trkpt>
      <trkpt lat="48.08299" lon="-4.2466">
        <ele>117.6</ele>
        <time>2015-02-26T09:50:37Z</time>
      </trkpt>
      <trkpt lat="48.08293" lon="-4.24674">
        <ele>117.7</ele>
        <time>2015-02-26T09:50:37Z</time>
      </trkpt>
      <trkpt lat="48.08284" lon="-4.24687">
        <ele>117.9</ele>
        <time>2015-02-26T09:50:37Z</time>
      </trkpt>
      <trkpt lat="48.08273" lon="-4.24705">
        <ele>118.2</ele>
        <time>2015-02-26T09:50:37Z</time>
      </trkpt>
      <trkpt lat="48.08263" lon="-4.24701">
        <ele>118</ele>
        <time>2015-02-26T09:50:37Z</time>
      </trkpt>
      <trkpt lat="48.08254" lon="-4.24695">
        <ele>117.7</ele>
        <time>2015-02-26T09:50:37Z</time>
      </trkpt>
      <trkpt lat="48.08252" lon="-4.24681">
        <ele>117.4</ele>
        <time>2015-02-26T09:50:37Z</time>
      </trkpt>
      <trkpt lat="48.08249" lon="-4.24667">
        <ele>117</ele>
        <time>2015-02-26T09:50:37Z</time>
      </trkpt>
      <trkpt lat="48.08245" lon="-4.24655">
        <ele>116.8</ele>
        <time>2015-02-26T09:50:37Z</time>
      </trkpt>
      <trkpt lat="48.08241" lon="-4.24641">
        <ele>116.6</ele>
        <time>2015-02-26T09:50:37Z</time>
      </trkpt>
      <trkpt lat="48.08235" lon="-4.24628">
        <ele>116.3</ele>
        <time>2015-02-26T09:50:37Z</time>
      </trkpt>
      <trkpt lat="48.08228" lon="-4.24614">
        <ele>116</ele>
        <time>2015-02-26T09:50:37Z</time>
      </trkpt>
      <trkpt lat="48.08223" lon="-4.24596">
        <ele>115.6</ele>
        <time>2015-02-26T09:50:37Z</time>
      </trkpt>
      <trkpt lat="48.08209" lon="-4.24586">
        <ele>115.1</ele>
        <time>2015-02-26T09:50:37Z</time>
      </trkpt>
      <trkpt lat="48.08195" lon="-4.24577">
        <ele>114.7</ele>
        <time>2015-02-26T09:50:37Z</time>
      </trkpt>
      <trkpt lat="48.0818" lon="-4.24575">
        <ele>114.3</ele>
        <time>2015-02-26T09:50:37Z</time>
      </trkpt>
      <trkpt lat="48.08165" lon="-4.24581">
        <ele>113.9</ele>
        <time>2015-02-26T09:50:37Z</time>
      </trkpt>
      <trkpt lat="48.08146" lon="-4.24591">
        <ele>113.2</ele>
        <time>2015-02-26T09:50:37Z</time>
      </trkpt>
      <trkpt lat="48.08125" lon="-4.24598">
        <ele>112.4</ele>
        <time>2015-02-26T09:50:37Z</time>
      </trkpt>
      <trkpt lat="48.08108" lon="-4.24597">
        <ele>111.6</ele>
        <time>2015-02-26T09:50:37Z</time>
      </trkpt>
      <trkpt lat="48.08097" lon="-4.24594">
        <ele>111.1</ele>
        <time>2015-02-26T09:50:37Z</time>
      </trkpt>
      <trkpt lat="48.08081" lon="-4.24579">
        <ele>109.8</ele>
        <time>2015-02-26T09:50:37Z</time>
      </trkpt>
      <trkpt lat="48.0806" lon="-4.24562">
        <ele>108.3</ele>
        <time>2015-02-26T09:50:37Z</time>
      </trkpt>
      <trkpt lat="48.0804" lon="-4.24542">
        <ele>106.7</ele>
        <time>2015-02-26T09:50:37Z</time>
      </trkpt>
      <trkpt lat="48.08033" lon="-4.2453">
        <ele>105.9</ele>
        <time>2015-02-26T09:50:37Z</time>
      </trkpt>
      <trkpt lat="48.08025" lon="-4.24521">
        <ele>105.1</ele>
        <time>2015-02-26T09:50:37Z</time>
      </trkpt>
      <trkpt lat="48.08017" lon="-4.24516">
        <ele>104.6</ele>
        <time>2015-02-26T09:50:37Z</time>
      </trkpt>
      <trkpt lat="48.0801" lon="-4.24505">
        <ele>103.7</ele>
        <time>2015-02-26T09:50:37Z</time>
      </trkpt>
      <trkpt lat="48.08008" lon="-4.24494">
        <ele>103.2</ele>
        <time>2015-02-26T09:50:37Z</time>
      </trkpt>
      <trkpt lat="48.08" lon="-4.24488">
        <ele>102.6</ele>
        <time>2015-02-26T09:50:37Z</time>
      </trkpt>
      <trkpt lat="48.07996" lon="-4.24483">
        <ele>102.1</ele>
        <time>2015-02-26T09:50:37Z</time>
      </trkpt>
      <trkpt lat="48.07995" lon="-4.24469">
        <ele>101.5</ele>
        <time>2015-02-26T09:50:37Z</time>
      </trkpt>
      <trkpt lat="48.0799" lon="-4.24442">
        <ele>100.3</ele>
        <time>2015-02-26T09:50:37Z</time>
      </trkpt>
      <trkpt lat="48.07986" lon="-4.24416">
        <ele>99</ele>
        <time>2015-02-26T09:50:37Z</time>
      </trkpt>
      <trkpt lat="48.07981" lon="-4.24389">
        <ele>98</ele>
        <time>2015-02-26T09:50:37Z</time>
      </trkpt>
      <trkpt lat="48.07977" lon="-4.24385">
        <ele>97.6</ele>
        <time>2015-02-26T09:50:37Z</time>
      </trkpt>
      <trkpt lat="48.07965" lon="-4.24381">
        <ele>96.7</ele>
        <time>2015-02-26T09:50:37Z</time>
      </trkpt>
      <trkpt lat="48.07955" lon="-4.24374">
        <ele>95.7</ele>
        <time>2015-02-26T09:50:37Z</time>
      </trkpt>
      <trkpt lat="48.0794" lon="-4.24358">
        <ele>94.3</ele>
        <time>2015-02-26T09:50:37Z</time>
      </trkpt>
      <trkpt lat="48.07925" lon="-4.24342">
        <ele>92.9</ele>
        <time>2015-02-26T09:50:37Z</time>
      </trkpt>
      <trkpt lat="48.07912" lon="-4.24329">
        <ele>91.9</ele>
        <time>2015-02-26T09:50:37Z</time>
      </trkpt>
      <trkpt lat="48.079" lon="-4.24321">
        <ele>91.6</ele>
        <time>2015-02-26T09:50:37Z</time>
      </trkpt>
      <trkpt lat="48.07878" lon="-4.24316">
        <ele>90.8</ele>
        <time>2015-02-26T09:50:37Z</time>
      </trkpt>
      <trkpt lat="48.07863" lon="-4.24312">
        <ele>90.2</ele>
        <time>2015-02-26T09:50:37Z</time>
      </trkpt>
      <trkpt lat="48.07853" lon="-4.24303">
        <ele>89.9</ele>
        <time>2015-02-26T09:50:37Z</time>
      </trkpt>
      <trkpt lat="48.07844" lon="-4.2429">
        <ele>89.5</ele>
        <time>2015-02-26T09:50:37Z</time>
      </trkpt>
      <trkpt lat="48.07841" lon="-4.24279">
        <ele>89.4</ele>
        <time>2015-02-26T09:50:37Z</time>
      </trkpt>
      <trkpt lat="48.07841" lon="-4.24269">
        <ele>89.4</ele>
        <time>2015-02-26T09:50:37Z</time>
      </trkpt>
      <trkpt lat="48.07832" lon="-4.24268">
        <ele>88.9</ele>
        <time>2015-02-26T09:50:37Z</time>
      </trkpt>
      <trkpt lat="48.07819" lon="-4.24271">
        <ele>88.2</ele>
        <time>2015-02-26T09:50:37Z</time>
      </trkpt>
      <trkpt lat="48.07804" lon="-4.24276">
        <ele>87.4</ele>
        <time>2015-02-26T09:50:37Z</time>
      </trkpt>
      <trkpt lat="48.07789" lon="-4.24281">
        <ele>86.6</ele>
        <time>2015-02-26T09:50:37Z</time>
      </trkpt>
      <trkpt lat="48.07769" lon="-4.24289">
        <ele>85.5</ele>
        <time>2015-02-26T09:50:37Z</time>
      </trkpt>
      <trkpt lat="48.07749" lon="-4.24297">
        <ele>84.5</ele>
        <time>2015-02-26T09:50:37Z</time>
      </trkpt>
      <trkpt lat="48.07742" lon="-4.24304">
        <ele>83.9</ele>
        <time>2015-02-26T09:50:37Z</time>
      </trkpt>
      <trkpt lat="48.07739" lon="-4.24311">
        <ele>83.7</ele>
        <time>2015-02-26T09:50:37Z</time>
      </trkpt>
      <trkpt lat="48.07736" lon="-4.24323">
        <ele>83.4</ele>
        <time>2015-02-26T09:50:37Z</time>
      </trkpt>
      <trkpt lat="48.07733" lon="-4.24335">
        <ele>83.2</ele>
        <time>2015-02-26T09:50:37Z</time>
      </trkpt>
      <trkpt lat="48.07722" lon="-4.2434">
        <ele>82.1</ele>
        <time>2015-02-26T09:50:37Z</time>
      </trkpt>
      <trkpt lat="48.0771" lon="-4.24346">
        <ele>81</ele>
        <time>2015-02-26T09:50:37Z</time>
      </trkpt>
      <trkpt lat="48.07697" lon="-4.24352">
        <ele>79.8</ele>
        <time>2015-02-26T09:50:37Z</time>
      </trkpt>
      <trkpt lat="48.07683" lon="-4.24357">
        <ele>78.6</ele>
        <time>2015-02-26T09:50:37Z</time>
      </trkpt>
      <trkpt lat="48.07669" lon="-4.24358">
        <ele>77.2</ele>
        <time>2015-02-26T09:50:37Z</time>
      </trkpt>
      <trkpt lat="48.07659" lon="-4.24358">
        <ele>76.2</ele>
        <time>2015-02-26T09:50:37Z</time>
      </trkpt>
      <trkpt lat="48.07649" lon="-4.24347">
        <ele>75.1</ele>
        <time>2015-02-26T09:50:37Z</time>
      </trkpt>
      <trkpt lat="48.07637" lon="-4.2433">
        <ele>74.3</ele>
        <time>2015-02-26T09:50:37Z</time>
      </trkpt>
      <trkpt lat="48.07623" lon="-4.24311">
        <ele>74.1</ele>
        <time>2015-02-26T09:50:37Z</time>
      </trkpt>
      <trkpt lat="48.07608" lon="-4.2429">
        <ele>73.7</ele>
        <time>2015-02-26T09:50:37Z</time>
      </trkpt>
      <trkpt lat="48.07592" lon="-4.24266">
        <ele>73.2</ele>
        <time>2015-02-26T09:50:37Z</time>
      </trkpt>
      <trkpt lat="48.07581" lon="-4.24255">
        <ele>72.7</ele>
        <time>2015-02-26T09:50:37Z</time>
      </trkpt>
      <trkpt lat="48.07573" lon="-4.24253">
        <ele>71.8</ele>
        <time>2015-02-26T09:50:37Z</time>
      </trkpt>
      <trkpt lat="48.07559" lon="-4.24256">
        <ele>70.2</ele>
        <time>2015-02-26T09:50:37Z</time>
      </trkpt>
      <trkpt lat="48.07543" lon="-4.2426">
        <ele>68.5</ele>
        <time>2015-02-26T09:50:37Z</time>
      </trkpt>
      <trkpt lat="48.07532" lon="-4.24267">
        <ele>67.2</ele>
        <time>2015-02-26T09:50:37Z</time>
      </trkpt>
      <trkpt lat="48.07521" lon="-4.2428">
        <ele>66.1</ele>
        <time>2015-02-26T09:50:37Z</time>
      </trkpt>
      <trkpt lat="48.07513" lon="-4.24293">
        <ele>65.3</ele>
        <time>2015-02-26T09:50:37Z</time>
      </trkpt>
      <trkpt lat="48.07511" lon="-4.24311">
        <ele>65</ele>
        <time>2015-02-26T09:50:37Z</time>
      </trkpt>
      <trkpt lat="48.07511" lon="-4.24324">
        <ele>65</ele>
        <time>2015-02-26T09:50:37Z</time>
      </trkpt>
      <trkpt lat="48.07516" lon="-4.24339">
        <ele>64.9</ele>
        <time>2015-02-26T09:50:37Z</time>
      </trkpt>
      <trkpt lat="48.07519" lon="-4.24356">
        <ele>63.9</ele>
        <time>2015-02-26T09:50:37Z</time>
      </trkpt>
      <trkpt lat="48.0752" lon="-4.24371">
        <ele>63</ele>
        <time>2015-02-26T09:50:37Z</time>
      </trkpt>
      <trkpt lat="48.07515" lon="-4.24384">
        <ele>61.6</ele>
        <time>2015-02-26T09:50:37Z</time>
      </trkpt>
      <trkpt lat="48.07509" lon="-4.24397">
        <ele>60.1</ele>
        <time>2015-02-26T09:50:37Z</time>
      </trkpt>
      <trkpt lat="48.07504" lon="-4.2441">
        <ele>58.7</ele>
        <time>2015-02-26T09:50:37Z</time>
      </trkpt>
      <trkpt lat="48.07496" lon="-4.24422">
        <ele>57</ele>
        <time>2015-02-26T09:50:37Z</time>
      </trkpt>
      <trkpt lat="48.07488" lon="-4.24433">
        <ele>55.2</ele>
        <time>2015-02-26T09:50:37Z</time>
      </trkpt>
      <trkpt lat="48.07478" lon="-4.24439">
        <ele>54</ele>
        <time>2015-02-26T09:50:37Z</time>
      </trkpt>
      <trkpt lat="48.07465" lon="-4.24438">
        <ele>53.4</ele>
        <time>2015-02-26T09:50:37Z</time>
      </trkpt>
      <trkpt lat="48.07452" lon="-4.24436">
        <ele>52.8</ele>
        <time>2015-02-26T09:50:37Z</time>
      </trkpt>
      <trkpt lat="48.07443" lon="-4.24437">
        <ele>52.1</ele>
        <time>2015-02-26T09:50:37Z</time>
      </trkpt>
      <trkpt lat="48.07434" lon="-4.24431">
        <ele>52.2</ele>
        <time>2015-02-26T09:50:37Z</time>
      </trkpt>
      <trkpt lat="48.07426" lon="-4.24422">
        <ele>52.8</ele>
        <time>2015-02-26T09:50:37Z</time>
      </trkpt>
      <trkpt lat="48.0742" lon="-4.24411">
        <ele>53.5</ele>
        <time>2015-02-26T09:50:37Z</time>
      </trkpt>
      <trkpt lat="48.07416" lon="-4.244">
        <ele>54</ele>
        <time>2015-02-26T09:50:37Z</time>
      </trkpt>
      <trkpt lat="48.07413" lon="-4.24387">
        <ele>54.4</ele>
        <time>2015-02-26T09:50:37Z</time>
      </trkpt>
      <trkpt lat="48.07411" lon="-4.24376">
        <ele>54.9</ele>
        <time>2015-02-26T09:50:37Z</time>
      </trkpt>
      <trkpt lat="48.07412" lon="-4.24365">
        <ele>55.6</ele>
        <time>2015-02-26T09:50:37Z</time>
      </trkpt>
      <trkpt lat="48.07415" lon="-4.24354">
        <ele>56.5</ele>
        <time>2015-02-26T09:50:37Z</time>
      </trkpt>
      <trkpt lat="48.07424" lon="-4.24336">
        <ele>58.4</ele>
        <time>2015-02-26T09:50:37Z</time>
      </trkpt>
      <trkpt lat="48.07433" lon="-4.24317">
        <ele>59</ele>
        <time>2015-02-26T09:50:37Z</time>
      </trkpt>
      <trkpt lat="48.07439" lon="-4.24303">
        <ele>59.4</ele>
        <time>2015-02-26T09:50:37Z</time>
      </trkpt>
      <trkpt lat="48.07442" lon="-4.24285">
        <ele>59.5</ele>
        <time>2015-02-26T09:50:37Z</time>
      </trkpt>
      <trkpt lat="48.07445" lon="-4.24266">
        <ele>59.5</ele>
        <time>2015-02-26T09:50:37Z</time>
      </trkpt>
      <trkpt lat="48.07443" lon="-4.24245">
        <ele>59</ele>
        <time>2015-02-26T09:50:37Z</time>
      </trkpt>
      <trkpt lat="48.07442" lon="-4.24226">
        <ele>58.1</ele>
        <time>2015-02-26T09:50:37Z</time>
      </trkpt>
      <trkpt lat="48.07439" lon="-4.24222">
        <ele>57.6</ele>
        <time>2015-02-26T09:50:37Z</time>
      </trkpt>
      <trkpt lat="48.07401" lon="-4.24244">
        <ele>54.1</ele>
        <time>2015-02-26T09:50:37Z</time>
      </trkpt>
      <trkpt lat="48.07386" lon="-4.24248">
        <ele>51.9</ele>
        <time>2015-02-26T09:50:37Z</time>
      </trkpt>
      <trkpt lat="48.07386" lon="-4.24261">
        <ele>52.1</ele>
        <time>2015-02-26T09:50:37Z</time>
      </trkpt>
      <trkpt lat="48.07383" lon="-4.24278">
        <ele>52</ele>
        <time>2015-02-26T09:50:37Z</time>
      </trkpt>
      <trkpt lat="48.07381" lon="-4.24296">
        <ele>52</ele>
        <time>2015-02-26T09:50:37Z</time>
      </trkpt>
      <trkpt lat="48.07378" lon="-4.24314">
        <ele>52</ele>
        <time>2015-02-26T09:50:37Z</time>
      </trkpt>
      <trkpt lat="48.07375" lon="-4.24327">
        <ele>51.9</ele>
        <time>2015-02-26T09:50:37Z</time>
      </trkpt>
      <trkpt lat="48.07369" lon="-4.24339">
        <ele>51</ele>
        <time>2015-02-26T09:50:37Z</time>
      </trkpt>
      <trkpt lat="48.07364" lon="-4.24352">
        <ele>50.2</ele>
        <time>2015-02-26T09:50:37Z</time>
      </trkpt>
      <trkpt lat="48.07359" lon="-4.24365">
        <ele>49.3</ele>
        <time>2015-02-26T09:50:37Z</time>
      </trkpt>
      <trkpt lat="48.07356" lon="-4.24382">
        <ele>48.9</ele>
        <time>2015-02-26T09:50:37Z</time>
      </trkpt>
      <trkpt lat="48.07353" lon="-4.24399">
        <ele>48.5</ele>
        <time>2015-02-26T09:50:37Z</time>
      </trkpt>
      <trkpt lat="48.0735" lon="-4.24417">
        <ele>48.1</ele>
        <time>2015-02-26T09:50:37Z</time>
      </trkpt>
      <trkpt lat="48.07348" lon="-4.24435">
        <ele>46.6</ele>
        <time>2015-02-26T09:50:37Z</time>
      </trkpt>
      <trkpt lat="48.07346" lon="-4.24453">
        <ele>45</ele>
        <time>2015-02-26T09:50:37Z</time>
      </trkpt>
      <trkpt lat="48.07346" lon="-4.24472">
        <ele>43.5</ele>
        <time>2015-02-26T09:50:37Z</time>
      </trkpt>
      <trkpt lat="48.0734" lon="-4.24479">
        <ele>42.8</ele>
        <time>2015-02-26T09:50:37Z</time>
      </trkpt>
      <trkpt lat="48.07331" lon="-4.24482">
        <ele>42</ele>
        <time>2015-02-26T09:50:37Z</time>
      </trkpt>
      <trkpt lat="48.07325" lon="-4.24489">
        <ele>40.7</ele>
        <time>2015-02-26T09:50:37Z</time>
      </trkpt>
      <trkpt lat="48.0732" lon="-4.24502">
        <ele>39.6</ele>
        <time>2015-02-26T09:50:37Z</time>
      </trkpt>
      <trkpt lat="48.07316" lon="-4.24518">
        <ele>39.7</ele>
        <time>2015-02-26T09:50:37Z</time>
      </trkpt>
      <trkpt lat="48.07311" lon="-4.24534">
        <ele>40</ele>
        <time>2015-02-26T09:50:37Z</time>
      </trkpt>
      <trkpt lat="48.07307" lon="-4.24551">
        <ele>40.1</ele>
        <time>2015-02-26T09:50:37Z</time>
      </trkpt>
      <trkpt lat="48.07303" lon="-4.24553">
        <ele>39.6</ele>
        <time>2015-02-26T09:50:37Z</time>
      </trkpt>
      <trkpt lat="48.07294" lon="-4.24563">
        <ele>38.9</ele>
        <time>2015-02-26T09:50:37Z</time>
      </trkpt>
      <trkpt lat="48.07286" lon="-4.24574">
        <ele>38.4</ele>
        <time>2015-02-26T09:50:37Z</time>
      </trkpt>
      <trkpt lat="48.07278" lon="-4.24585">
        <ele>38</ele>
        <time>2015-02-26T09:50:37Z</time>
      </trkpt>
      <trkpt lat="48.07273" lon="-4.24599">
        <ele>39</ele>
        <time>2015-02-26T09:50:37Z</time>
      </trkpt>
      <trkpt lat="48.07268" lon="-4.24619">
        <ele>40.9</ele>
        <time>2015-02-26T09:50:37Z</time>
      </trkpt>
      <trkpt lat="48.07264" lon="-4.24633">
        <ele>42.1</ele>
        <time>2015-02-26T09:50:37Z</time>
      </trkpt>
      <trkpt lat="48.07257" lon="-4.24647">
        <ele>42.6</ele>
        <time>2015-02-26T09:50:37Z</time>
      </trkpt>
      <trkpt lat="48.07247" lon="-4.24658">
        <ele>42.6</ele>
        <time>2015-02-26T09:50:37Z</time>
      </trkpt>
      <trkpt lat="48.07235" lon="-4.24665">
        <ele>41.2</ele>
        <time>2015-02-26T09:50:37Z</time>
      </trkpt>
      <trkpt lat="48.07224" lon="-4.24662">
        <ele>39</ele>
        <time>2015-02-26T09:50:37Z</time>
      </trkpt>
      <trkpt lat="48.07214" lon="-4.24671">
        <ele>37.7</ele>
        <time>2015-02-26T09:50:37Z</time>
      </trkpt>
      <trkpt lat="48.07205" lon="-4.2468">
        <ele>36.7</ele>
        <time>2015-02-26T09:50:37Z</time>
      </trkpt>
      <trkpt lat="48.07185" lon="-4.24679">
        <ele>32.7</ele>
        <time>2015-02-26T09:50:37Z</time>
      </trkpt>
      <trkpt lat="48.07176" lon="-4.24689">
        <ele>31.3</ele>
        <time>2015-02-26T09:50:37Z</time>
      </trkpt>
      <trkpt lat="48.07166" lon="-4.24702">
        <ele>29.9</ele>
        <time>2015-02-26T09:50:37Z</time>
      </trkpt>
      <trkpt lat="48.07157" lon="-4.24715">
        <ele>29.6</ele>
        <time>2015-02-26T09:50:37Z</time>
      </trkpt>
      <trkpt lat="48.0715" lon="-4.24733">
        <ele>29.5</ele>
        <time>2015-02-26T09:50:37Z</time>
      </trkpt>
      <trkpt lat="48.07146" lon="-4.2475">
        <ele>29.5</ele>
        <time>2015-02-26T09:50:37Z</time>
      </trkpt>
      <trkpt lat="48.07143" lon="-4.24769">
        <ele>29.4</ele>
        <time>2015-02-26T09:50:37Z</time>
      </trkpt>
      <trkpt lat="48.07141" lon="-4.24789">
        <ele>29.4</ele>
        <time>2015-02-26T09:50:37Z</time>
      </trkpt>
      <trkpt lat="48.0714" lon="-4.24816">
        <ele>29.4</ele>
        <time>2015-02-26T09:50:37Z</time>
      </trkpt>
      <trkpt lat="48.07138" lon="-4.24859">
        <ele>29.3</ele>
        <time>2015-02-26T09:50:37Z</time>
      </trkpt>
      <trkpt lat="48.07136" lon="-4.24916">
        <ele>29.1</ele>
        <time>2015-02-26T09:50:37Z</time>
      </trkpt>
      <trkpt lat="48.07133" lon="-4.2496">
        <ele>28.6</ele>
        <time>2015-02-26T09:50:37Z</time>
      </trkpt>
      <trkpt lat="48.07134" lon="-4.24974">
        <ele>28.6</ele>
        <time>2015-02-26T09:50:37Z</time>
      </trkpt>
      <trkpt lat="48.07136" lon="-4.24989">
        <ele>28.7</ele>
        <time>2015-02-26T09:50:37Z</time>
      </trkpt>
      <trkpt lat="48.0714" lon="-4.25007">
        <ele>29</ele>
        <time>2015-02-26T09:50:37Z</time>
      </trkpt>
      <trkpt lat="48.07151" lon="-4.25042">
        <ele>29.3</ele>
        <time>2015-02-26T09:50:37Z</time>
      </trkpt>
      <trkpt lat="48.07171" lon="-4.25093">
        <ele>30.1</ele>
        <time>2015-02-26T09:50:37Z</time>
      </trkpt>
      <trkpt lat="48.0719" lon="-4.25142">
        <ele>29.9</ele>
        <time>2015-02-26T09:50:37Z</time>
      </trkpt>
      <trkpt lat="48.07207" lon="-4.25192">
        <ele>29</ele>
        <time>2015-02-26T09:50:37Z</time>
      </trkpt>
      <trkpt lat="48.07215" lon="-4.2522">
        <ele>28.1</ele>
        <time>2015-02-26T09:50:37Z</time>
      </trkpt>
      <trkpt lat="48.07218" lon="-4.25248">
        <ele>26.8</ele>
        <time>2015-02-26T09:50:37Z</time>
      </trkpt>
      <trkpt lat="48.07217" lon="-4.25274">
        <ele>28</ele>
        <time>2015-02-26T09:50:37Z</time>
      </trkpt>
      <trkpt lat="48.07214" lon="-4.253">
        <ele>29.2</ele>
        <time>2015-02-26T09:50:37Z</time>
      </trkpt>
      <trkpt lat="48.07211" lon="-4.25327">
        <ele>30.5</ele>
        <time>2015-02-26T09:50:37Z</time>
      </trkpt>
      <trkpt lat="48.07209" lon="-4.25355">
        <ele>31.2</ele>
        <time>2015-02-26T09:50:37Z</time>
      </trkpt>
      <trkpt lat="48.07206" lon="-4.25384">
        <ele>31.7</ele>
        <time>2015-02-26T09:50:37Z</time>
      </trkpt>
      <trkpt lat="48.07203" lon="-4.25413">
        <ele>32.3</ele>
        <time>2015-02-26T09:50:37Z</time>
      </trkpt>
      <trkpt lat="48.072" lon="-4.25442">
        <ele>30.9</ele>
        <time>2015-02-26T09:50:37Z</time>
      </trkpt>
      <trkpt lat="48.07199" lon="-4.2547">
        <ele>29.5</ele>
        <time>2015-02-26T09:50:37Z</time>
      </trkpt>
      <trkpt lat="48.072" lon="-4.25493">
        <ele>28.4</ele>
        <time>2015-02-26T09:50:37Z</time>
      </trkpt>
      <trkpt lat="48.07203" lon="-4.25511">
        <ele>27.7</ele>
        <time>2015-02-26T09:50:37Z</time>
      </trkpt>
      <trkpt lat="48.07206" lon="-4.25525">
        <ele>27</ele>
        <time>2015-02-26T09:50:37Z</time>
      </trkpt>
      <trkpt lat="48.07208" lon="-4.25537">
        <ele>26</ele>
        <time>2015-02-26T09:50:37Z</time>
      </trkpt>
      <trkpt lat="48.07204" lon="-4.25548">
        <ele>24.6</ele>
        <time>2015-02-26T09:50:37Z</time>
      </trkpt>
      <trkpt lat="48.07192" lon="-4.25566">
        <ele>21.7</ele>
        <time>2015-02-26T09:50:37Z</time>
      </trkpt>
      <trkpt lat="48.07178" lon="-4.25589">
        <ele>19.3</ele>
        <time>2015-02-26T09:50:37Z</time>
      </trkpt>
      <trkpt lat="48.07165" lon="-4.25609">
        <ele>18.9</ele>
        <time>2015-02-26T09:50:37Z</time>
      </trkpt>
      <trkpt lat="48.07155" lon="-4.25621">
        <ele>19.3</ele>
        <time>2015-02-26T09:50:37Z</time>
      </trkpt>
      <trkpt lat="48.07146" lon="-4.25624">
        <ele>19.5</ele>
        <time>2015-02-26T09:50:37Z</time>
      </trkpt>
      <trkpt lat="48.07132" lon="-4.25622">
        <ele>19.3</ele>
        <time>2015-02-26T09:50:37Z</time>
      </trkpt>
      <trkpt lat="48.07118" lon="-4.2562">
        <ele>19.1</ele>
        <time>2015-02-26T09:50:37Z</time>
      </trkpt>
      <trkpt lat="48.07101" lon="-4.25615">
        <ele>18.5</ele>
        <time>2015-02-26T09:50:37Z</time>
      </trkpt>
      <trkpt lat="48.07084" lon="-4.2561">
        <ele>18</ele>
        <time>2015-02-26T09:50:37Z</time>
      </trkpt>
      <trkpt lat="48.07068" lon="-4.25608">
        <ele>18.5</ele>
        <time>2015-02-26T09:50:37Z</time>
      </trkpt>
      <trkpt lat="48.07051" lon="-4.25606">
        <ele>19.3</ele>
        <time>2015-02-26T09:50:37Z</time>
      </trkpt>
      <trkpt lat="48.07033" lon="-4.25605">
        <ele>20.1</ele>
        <time>2015-02-26T09:50:37Z</time>
      </trkpt>
      <trkpt lat="48.07015" lon="-4.25605">
        <ele>21.1</ele>
        <time>2015-02-26T09:50:37Z</time>
      </trkpt>
      <trkpt lat="48.06996" lon="-4.25605">
        <ele>21.8</ele>
        <time>2015-02-26T09:50:37Z</time>
      </trkpt>
      <trkpt lat="48.06982" lon="-4.25602">
        <ele>21.1</ele>
        <time>2015-02-26T09:50:37Z</time>
      </trkpt>
      <trkpt lat="48.06966" lon="-4.25597">
        <ele>20.1</ele>
        <time>2015-02-26T09:50:37Z</time>
      </trkpt>
      <trkpt lat="48.06951" lon="-4.25595">
        <ele>19.5</ele>
        <time>2015-02-26T09:50:37Z</time>
      </trkpt>
      <trkpt lat="48.06933" lon="-4.25592">
        <ele>19</ele>
        <time>2015-02-26T09:50:37Z</time>
      </trkpt>
      <trkpt lat="48.06915" lon="-4.2559">
        <ele>18.5</ele>
        <time>2015-02-26T09:50:37Z</time>
      </trkpt>
      <trkpt lat="48.06904" lon="-4.25592">
        <ele>18.7</ele>
        <time>2015-02-26T09:50:37Z</time>
      </trkpt>
      <trkpt lat="48.06897" lon="-4.25595">
        <ele>18.9</ele>
        <time>2015-02-26T09:50:37Z</time>
      </trkpt>
      <trkpt lat="48.06891" lon="-4.25594">
        <ele>18.9</ele>
        <time>2015-02-26T09:50:37Z</time>
      </trkpt>
      <trkpt lat="48.06886" lon="-4.25588">
        <ele>18.6</ele>
        <time>2015-02-26T09:50:37Z</time>
      </trkpt>
      <trkpt lat="48.06878" lon="-4.25558">
        <ele>17.4</ele>
        <time>2015-02-26T09:50:37Z</time>
      </trkpt>
      <trkpt lat="48.0687" lon="-4.25528">
        <ele>16.3</ele>
        <time>2015-02-26T09:50:37Z</time>
      </trkpt>
      <trkpt lat="48.06863" lon="-4.25499">
        <ele>15.3</ele>
        <time>2015-02-26T09:50:37Z</time>
      </trkpt>
      <trkpt lat="48.06855" lon="-4.25469">
        <ele>15.9</ele>
        <time>2015-02-26T09:50:37Z</time>
      </trkpt>
      <trkpt lat="48.06847" lon="-4.25439">
        <ele>16.5</ele>
        <time>2015-02-26T09:50:37Z</time>
      </trkpt>
      <trkpt lat="48.06839" lon="-4.2541">
        <ele>17.2</ele>
        <time>2015-02-26T09:50:37Z</time>
      </trkpt>
      <trkpt lat="48.06827" lon="-4.25381">
        <ele>18.7</ele>
        <time>2015-02-26T09:50:37Z</time>
      </trkpt>
      <trkpt lat="48.06818" lon="-4.25348">
        <ele>20.3</ele>
        <time>2015-02-26T09:50:37Z</time>
      </trkpt>
      <trkpt lat="48.06807" lon="-4.25326">
        <ele>21.4</ele>
        <time>2015-02-26T09:50:37Z</time>
      </trkpt>
      <trkpt lat="48.06795" lon="-4.25302">
        <ele>22.5</ele>
        <time>2015-02-26T09:50:37Z</time>
      </trkpt>
      <trkpt lat="48.0678" lon="-4.25278">
        <ele>23.3</ele>
        <time>2015-02-26T09:50:37Z</time>
      </trkpt>
      <trkpt lat="48.06765" lon="-4.25253">
        <ele>23.6</ele>
        <time>2015-02-26T09:50:37Z</time>
      </trkpt>
      <trkpt lat="48.06748" lon="-4.25229">
        <ele>25.4</ele>
        <time>2015-02-26T09:50:37Z</time>
      </trkpt>
      <trkpt lat="48.0673" lon="-4.25207">
        <ele>27.2</ele>
        <time>2015-02-26T09:50:37Z</time>
      </trkpt>
      <trkpt lat="48.06709" lon="-4.25187">
        <ele>28.1</ele>
        <time>2015-02-26T09:50:37Z</time>
      </trkpt>
      <trkpt lat="48.06689" lon="-4.25167">
        <ele>28.6</ele>
        <time>2015-02-26T09:50:37Z</time>
      </trkpt>
      <trkpt lat="48.06666" lon="-4.2515">
        <ele>28.7</ele>
        <time>2015-02-26T09:50:37Z</time>
      </trkpt>
      <trkpt lat="48.06643" lon="-4.25136">
        <ele>28.7</ele>
        <time>2015-02-26T09:50:37Z</time>
      </trkpt>
      <trkpt lat="48.06622" lon="-4.25124">
        <ele>28.7</ele>
        <time>2015-02-26T09:50:37Z</time>
      </trkpt>
      <trkpt lat="48.066" lon="-4.25111">
        <ele>28.4</ele>
        <time>2015-02-26T09:50:37Z</time>
      </trkpt>
      <trkpt lat="48.06579" lon="-4.25098">
        <ele>28.3</ele>
        <time>2015-02-26T09:50:37Z</time>
      </trkpt>
      <trkpt lat="48.06557" lon="-4.25082">
        <ele>27.6</ele>
        <time>2015-02-26T09:50:37Z</time>
      </trkpt>
      <trkpt lat="48.06535" lon="-4.25066">
        <ele>26.8</ele>
        <time>2015-02-26T09:50:37Z</time>
      </trkpt>
      <trkpt lat="48.06511" lon="-4.25051">
        <ele>25.4</ele>
        <time>2015-02-26T09:50:37Z</time>
      </trkpt>
      <trkpt lat="48.06487" lon="-4.25036">
        <ele>24.5</ele>
        <time>2015-02-26T09:50:37Z</time>
      </trkpt>
      <trkpt lat="48.06462" lon="-4.25019">
        <ele>23.9</ele>
        <time>2015-02-26T09:50:37Z</time>
      </trkpt>
      <trkpt lat="48.06437" lon="-4.25001">
        <ele>23.4</ele>
        <time>2015-02-26T09:50:37Z</time>
      </trkpt>
      <trkpt lat="48.06414" lon="-4.24982">
        <ele>25.2</ele>
        <time>2015-02-26T09:50:37Z</time>
      </trkpt>
      <trkpt lat="48.06392" lon="-4.24954">
        <ele>28.6</ele>
        <time>2015-02-26T09:50:37Z</time>
      </trkpt>
      <trkpt lat="48.0637" lon="-4.24925">
        <ele>31</ele>
        <time>2015-02-26T09:50:37Z</time>
      </trkpt>
      <trkpt lat="48.06349" lon="-4.24893">
        <ele>32.2</ele>
        <time>2015-02-26T09:50:37Z</time>
      </trkpt>
      <trkpt lat="48.06331" lon="-4.24858">
        <ele>34</ele>
        <time>2015-02-26T09:50:37Z</time>
      </trkpt>
      <trkpt lat="48.06314" lon="-4.24823">
        <ele>35.9</ele>
        <time>2015-02-26T09:50:37Z</time>
      </trkpt>
      <trkpt lat="48.06306" lon="-4.24806">
        <ele>36.8</ele>
        <time>2015-02-26T09:50:37Z</time>
      </trkpt>
      <trkpt lat="48.063" lon="-4.24789">
        <ele>37.6</ele>
        <time>2015-02-26T09:50:37Z</time>
      </trkpt>
      <trkpt lat="48.06288" lon="-4.24744">
        <ele>39.6</ele>
        <time>2015-02-26T09:50:37Z</time>
      </trkpt>
      <trkpt lat="48.06276" lon="-4.24697">
        <ele>40.2</ele>
        <time>2015-02-26T09:50:37Z</time>
      </trkpt>
      <trkpt lat="48.06265" lon="-4.24649">
        <ele>40.7</ele>
        <time>2015-02-26T09:50:37Z</time>
      </trkpt>
      <trkpt lat="48.06253" lon="-4.246">
        <ele>41.4</ele>
        <time>2015-02-26T09:50:37Z</time>
      </trkpt>
      <trkpt lat="48.06238" lon="-4.24541">
        <ele>44.1</ele>
        <time>2015-02-26T09:50:37Z</time>
      </trkpt>
      <trkpt lat="48.06223" lon="-4.24481">
        <ele>44.6</ele>
        <time>2015-02-26T09:50:37Z</time>
      </trkpt>
      <trkpt lat="48.06208" lon="-4.24421">
        <ele>41.4</ele>
        <time>2015-02-26T09:50:37Z</time>
      </trkpt>
      <trkpt lat="48.06199" lon="-4.24391">
        <ele>39.5</ele>
        <time>2015-02-26T09:50:37Z</time>
      </trkpt>
      <trkpt lat="48.06184" lon="-4.24359">
        <ele>36.5</ele>
        <time>2015-02-26T09:50:37Z</time>
      </trkpt>
      <trkpt lat="48.06168" lon="-4.24326">
        <ele>33.4</ele>
        <time>2015-02-26T09:50:37Z</time>
      </trkpt>
      <trkpt lat="48.06149" lon="-4.24294">
        <ele>33.5</ele>
        <time>2015-02-26T09:50:37Z</time>
      </trkpt>
      <trkpt lat="48.06129" lon="-4.24263">
        <ele>34.4</ele>
        <time>2015-02-26T09:50:37Z</time>
      </trkpt>
      <trkpt lat="48.06106" lon="-4.24232">
        <ele>36</ele>
        <time>2015-02-26T09:50:37Z</time>
      </trkpt>
      <trkpt lat="48.06089" lon="-4.24214">
        <ele>37.1</ele>
        <time>2015-02-26T09:50:37Z</time>
      </trkpt>
      <trkpt lat="48.0607" lon="-4.24194">
        <ele>38.2</ele>
        <time>2015-02-26T09:50:37Z</time>
      </trkpt>
      <trkpt lat="48.06046" lon="-4.24171">
        <ele>39.6</ele>
        <time>2015-02-26T09:50:37Z</time>
      </trkpt>
      <trkpt lat="48.06021" lon="-4.24145">
        <ele>41.2</ele>
        <time>2015-02-26T09:50:37Z</time>
      </trkpt>
      <trkpt lat="48.05996" lon="-4.24118">
        <ele>42</ele>
        <time>2015-02-26T09:50:37Z</time>
      </trkpt>
      <trkpt lat="48.05978" lon="-4.24099">
        <ele>41.4</ele>
        <time>2015-02-26T09:50:37Z</time>
      </trkpt>
      <trkpt lat="48.05958" lon="-4.24079">
        <ele>41.2</ele>
        <time>2015-02-26T09:50:37Z</time>
      </trkpt>
      <trkpt lat="48.05945" lon="-4.24064">
        <ele>41.1</ele>
        <time>2015-02-26T09:50:37Z</time>
      </trkpt>
      <trkpt lat="48.05932" lon="-4.24049">
        <ele>41</ele>
        <time>2015-02-26T09:50:37Z</time>
      </trkpt>
      <trkpt lat="48.05916" lon="-4.24027">
        <ele>41.3</ele>
        <time>2015-02-26T09:50:37Z</time>
      </trkpt>
      <trkpt lat="48.05899" lon="-4.24">
        <ele>42.6</ele>
        <time>2015-02-26T09:50:37Z</time>
      </trkpt>
      <trkpt lat="48.05888" lon="-4.23972">
        <ele>44.5</ele>
        <time>2015-02-26T09:50:37Z</time>
      </trkpt>
      <trkpt lat="48.05875" lon="-4.23944">
        <ele>46.7</ele>
        <time>2015-02-26T09:50:37Z</time>
      </trkpt>
      <trkpt lat="48.05865" lon="-4.23915">
        <ele>49.1</ele>
        <time>2015-02-26T09:50:37Z</time>
      </trkpt>
      <trkpt lat="48.05855" lon="-4.23886">
        <ele>51</ele>
        <time>2015-02-26T09:50:37Z</time>
      </trkpt>
      <trkpt lat="48.05849" lon="-4.23859">
        <ele>53.2</ele>
        <time>2015-02-26T09:50:37Z</time>
      </trkpt>
      <trkpt lat="48.05845" lon="-4.23826">
        <ele>54.7</ele>
        <time>2015-02-26T09:50:37Z</time>
      </trkpt>
      <trkpt lat="48.05839" lon="-4.23791">
        <ele>51.8</ele>
        <time>2015-02-26T09:50:37Z</time>
      </trkpt>
      <trkpt lat="48.05835" lon="-4.23753">
        <ele>48.3</ele>
        <time>2015-02-26T09:50:37Z</time>
      </trkpt>
      <trkpt lat="48.05835" lon="-4.23709">
        <ele>43</ele>
        <time>2015-02-26T09:50:37Z</time>
      </trkpt>
      <trkpt lat="48.05834" lon="-4.2366">
        <ele>37.5</ele>
        <time>2015-02-26T09:50:37Z</time>
      </trkpt>
      <trkpt lat="48.05833" lon="-4.23612">
        <ele>33.4</ele>
        <time>2015-02-26T09:50:37Z</time>
      </trkpt>
      <trkpt lat="48.05831" lon="-4.23563">
        <ele>31.2</ele>
        <time>2015-02-26T09:50:37Z</time>
      </trkpt>
      <trkpt lat="48.05825" lon="-4.23513">
        <ele>31.9</ele>
        <time>2015-02-26T09:50:37Z</time>
      </trkpt>
      <trkpt lat="48.05818" lon="-4.23464">
        <ele>33.4</ele>
        <time>2015-02-26T09:50:37Z</time>
      </trkpt>
      <trkpt lat="48.05806" lon="-4.23421">
        <ele>36.3</ele>
        <time>2015-02-26T09:50:37Z</time>
      </trkpt>
      <trkpt lat="48.058" lon="-4.23397">
        <ele>37.6</ele>
        <time>2015-02-26T09:50:37Z</time>
      </trkpt>
      <trkpt lat="48.05787" lon="-4.23366">
        <ele>39.4</ele>
        <time>2015-02-26T09:50:37Z</time>
      </trkpt>
      <trkpt lat="48.05772" lon="-4.23335">
        <ele>40.9</ele>
        <time>2015-02-26T09:50:37Z</time>
      </trkpt>
      <trkpt lat="48.05756" lon="-4.23303">
        <ele>40.1</ele>
        <time>2015-02-26T09:50:37Z</time>
      </trkpt>
      <trkpt lat="48.05738" lon="-4.2327">
        <ele>38.9</ele>
        <time>2015-02-26T09:50:37Z</time>
      </trkpt>
      <trkpt lat="48.0572" lon="-4.23238">
        <ele>38.7</ele>
        <time>2015-02-26T09:50:37Z</time>
      </trkpt>
      <trkpt lat="48.05703" lon="-4.23206">
        <ele>39.7</ele>
        <time>2015-02-26T09:50:37Z</time>
      </trkpt>
      <trkpt lat="48.05691" lon="-4.23182">
        <ele>39.5</ele>
        <time>2015-02-26T09:50:37Z</time>
      </trkpt>
      <trkpt lat="48.05684" lon="-4.23164">
        <ele>39.2</ele>
        <time>2015-02-26T09:50:37Z</time>
      </trkpt>
      <trkpt lat="48.05676" lon="-4.23144">
        <ele>39.6</ele>
        <time>2015-02-26T09:50:37Z</time>
      </trkpt>
      <trkpt lat="48.05667" lon="-4.23117">
        <ele>40</ele>
        <time>2015-02-26T09:50:37Z</time>
      </trkpt>
      <trkpt lat="48.05657" lon="-4.23082">
        <ele>41</ele>
        <time>2015-02-26T09:50:37Z</time>
      </trkpt>
      <trkpt lat="48.05649" lon="-4.23051">
        <ele>43.6</ele>
        <time>2015-02-26T09:50:37Z</time>
      </trkpt>
      <trkpt lat="48.05644" lon="-4.23017">
        <ele>45.8</ele>
        <time>2015-02-26T09:50:37Z</time>
      </trkpt>
      <trkpt lat="48.05638" lon="-4.22979">
        <ele>48.8</ele>
        <time>2015-02-26T09:50:37Z</time>
      </trkpt>
      <trkpt lat="48.05634" lon="-4.22937">
        <ele>52.2</ele>
        <time>2015-02-26T09:50:37Z</time>
      </trkpt>
      <trkpt lat="48.05631" lon="-4.22895">
        <ele>53.5</ele>
        <time>2015-02-26T09:50:37Z</time>
      </trkpt>
      <trkpt lat="48.05629" lon="-4.22853">
        <ele>53.1</ele>
        <time>2015-02-26T09:50:37Z</time>
      </trkpt>
      <trkpt lat="48.05625" lon="-4.22811">
        <ele>52.1</ele>
        <time>2015-02-26T09:50:37Z</time>
      </trkpt>
      <trkpt lat="48.05618" lon="-4.22768">
        <ele>50.3</ele>
        <time>2015-02-26T09:50:37Z</time>
      </trkpt>
      <trkpt lat="48.05611" lon="-4.22734">
        <ele>49.2</ele>
        <time>2015-02-26T09:50:37Z</time>
      </trkpt>
      <trkpt lat="48.05601" lon="-4.22701">
        <ele>48.4</ele>
        <time>2015-02-26T09:50:37Z</time>
      </trkpt>
      <trkpt lat="48.0559" lon="-4.22668">
        <ele>47.8</ele>
        <time>2015-02-26T09:50:37Z</time>
      </trkpt>
      <trkpt lat="48.05578" lon="-4.22637">
        <ele>47.9</ele>
        <time>2015-02-26T09:50:37Z</time>
      </trkpt>
      <trkpt lat="48.05561" lon="-4.22606">
        <ele>48</ele>
        <time>2015-02-26T09:50:37Z</time>
      </trkpt>
      <trkpt lat="48.0554" lon="-4.22576">
        <ele>47.9</ele>
        <time>2015-02-26T09:50:37Z</time>
      </trkpt>
      <trkpt lat="48.0552" lon="-4.22545">
        <ele>47.3</ele>
        <time>2015-02-26T09:50:37Z</time>
      </trkpt>
      <trkpt lat="48.05499" lon="-4.22513">
        <ele>45.7</ele>
        <time>2015-02-26T09:50:37Z</time>
      </trkpt>
      <trkpt lat="48.05478" lon="-4.2248">
        <ele>46</ele>
        <time>2015-02-26T09:50:37Z</time>
      </trkpt>
      <trkpt lat="48.05458" lon="-4.22447">
        <ele>47</ele>
        <time>2015-02-26T09:50:37Z</time>
      </trkpt>
      <trkpt lat="48.05437" lon="-4.22414">
        <ele>48</ele>
        <time>2015-02-26T09:50:37Z</time>
      </trkpt>
      <trkpt lat="48.05417" lon="-4.22381">
        <ele>48.2</ele>
        <time>2015-02-26T09:50:37Z</time>
      </trkpt>
      <trkpt lat="48.05405" lon="-4.22355">
        <ele>48.7</ele>
        <time>2015-02-26T09:50:37Z</time>
      </trkpt>
      <trkpt lat="48.05392" lon="-4.22322">
        <ele>49.6</ele>
        <time>2015-02-26T09:50:37Z</time>
      </trkpt>
      <trkpt lat="48.0538" lon="-4.22288">
        <ele>50.8</ele>
        <time>2015-02-26T09:50:37Z</time>
      </trkpt>
      <trkpt lat="48.05367" lon="-4.22254">
        <ele>51.9</ele>
        <time>2015-02-26T09:50:37Z</time>
      </trkpt>
      <trkpt lat="48.05354" lon="-4.2222">
        <ele>52.9</ele>
        <time>2015-02-26T09:50:37Z</time>
      </trkpt>
      <trkpt lat="48.05341" lon="-4.22184">
        <ele>53.6</ele>
        <time>2015-02-26T09:50:37Z</time>
      </trkpt>
      <trkpt lat="48.05328" lon="-4.22148">
        <ele>54.1</ele>
        <time>2015-02-26T09:50:37Z</time>
      </trkpt>
      <trkpt lat="48.05315" lon="-4.22111">
        <ele>54.4</ele>
        <time>2015-02-26T09:50:37Z</time>
      </trkpt>
      <trkpt lat="48.05301" lon="-4.22074">
        <ele>54.5</ele>
        <time>2015-02-26T09:50:37Z</time>
      </trkpt>
      <trkpt lat="48.05288" lon="-4.22034">
        <ele>54.6</ele>
        <time>2015-02-26T09:50:37Z</time>
      </trkpt>
      <trkpt lat="48.0528" lon="-4.22008">
        <ele>54.5</ele>
        <time>2015-02-26T09:50:37Z</time>
      </trkpt>
      <trkpt lat="48.0527" lon="-4.21969">
        <ele>54.1</ele>
        <time>2015-02-26T09:50:37Z</time>
      </trkpt>
      <trkpt lat="48.05262" lon="-4.2193">
        <ele>53.2</ele>
        <time>2015-02-26T09:50:37Z</time>
      </trkpt>
      <trkpt lat="48.05253" lon="-4.21892">
        <ele>53.8</ele>
        <time>2015-02-26T09:50:37Z</time>
      </trkpt>
      <trkpt lat="48.05244" lon="-4.21853">
        <ele>55.6</ele>
        <time>2015-02-26T09:50:37Z</time>
      </trkpt>
      <trkpt lat="48.05236" lon="-4.21814">
        <ele>57.1</ele>
        <time>2015-02-26T09:50:37Z</time>
      </trkpt>
      <trkpt lat="48.05228" lon="-4.21773">
        <ele>58.5</ele>
        <time>2015-02-26T09:50:37Z</time>
      </trkpt>
      <trkpt lat="48.0522" lon="-4.21733">
        <ele>60.1</ele>
        <time>2015-02-26T09:50:37Z</time>
      </trkpt>
      <trkpt lat="48.05212" lon="-4.21692">
        <ele>61.4</ele>
        <time>2015-02-26T09:50:37Z</time>
      </trkpt>
      <trkpt lat="48.05204" lon="-4.2165">
        <ele>62.3</ele>
        <time>2015-02-26T09:50:37Z</time>
      </trkpt>
      <trkpt lat="48.05197" lon="-4.21608">
        <ele>62.7</ele>
        <time>2015-02-26T09:50:37Z</time>
      </trkpt>
      <trkpt lat="48.05189" lon="-4.21566">
        <ele>62.8</ele>
        <time>2015-02-26T09:50:37Z</time>
      </trkpt>
      <trkpt lat="48.05184" lon="-4.21526">
        <ele>63.3</ele>
        <time>2015-02-26T09:50:37Z</time>
      </trkpt>
      <trkpt lat="48.05184" lon="-4.21485">
        <ele>63.7</ele>
        <time>2015-02-26T09:50:37Z</time>
      </trkpt>
      <trkpt lat="48.05184" lon="-4.21445">
        <ele>62.9</ele>
        <time>2015-02-26T09:50:37Z</time>
      </trkpt>
      <trkpt lat="48.05186" lon="-4.21404">
        <ele>63</ele>
        <time>2015-02-26T09:50:37Z</time>
      </trkpt>
      <trkpt lat="48.05189" lon="-4.21363">
        <ele>64.7</ele>
        <time>2015-02-26T09:50:37Z</time>
      </trkpt>
      <trkpt lat="48.05191" lon="-4.21341">
        <ele>65.4</ele>
        <time>2015-02-26T09:50:37Z</time>
      </trkpt>
      <trkpt lat="48.05204" lon="-4.21289">
        <ele>67.2</ele>
        <time>2015-02-26T09:50:37Z</time>
      </trkpt>
      <trkpt lat="48.05213" lon="-4.21253">
        <ele>68.2</ele>
        <time>2015-02-26T09:50:37Z</time>
      </trkpt>
      <trkpt lat="48.05228" lon="-4.21205">
        <ele>68.7</ele>
        <time>2015-02-26T09:50:37Z</time>
      </trkpt>
      <trkpt lat="48.05239" lon="-4.21176">
        <ele>69</ele>
        <time>2015-02-26T09:50:37Z</time>
      </trkpt>
      <trkpt lat="48.05259" lon="-4.21134">
        <ele>70.3</ele>
        <time>2015-02-26T09:50:37Z</time>
      </trkpt>
      <trkpt lat="48.0528" lon="-4.21095">
        <ele>71.7</ele>
        <time>2015-02-26T09:50:37Z</time>
      </trkpt>
      <trkpt lat="48.05295" lon="-4.21076">
        <ele>72.4</ele>
        <time>2015-02-26T09:50:37Z</time>
      </trkpt>
      <trkpt lat="48.05319" lon="-4.21046">
        <ele>73.8</ele>
        <time>2015-02-26T09:50:37Z</time>
      </trkpt>
      <trkpt lat="48.05345" lon="-4.21019">
        <ele>75</ele>
        <time>2015-02-26T09:50:37Z</time>
      </trkpt>
      <trkpt lat="48.05371" lon="-4.20991">
        <ele>76.2</ele>
        <time>2015-02-26T09:50:37Z</time>
      </trkpt>
      <trkpt lat="48.054" lon="-4.20969">
        <ele>76.7</ele>
        <time>2015-02-26T09:50:37Z</time>
      </trkpt>
      <trkpt lat="48.05432" lon="-4.20942">
        <ele>76.5</ele>
        <time>2015-02-26T09:50:37Z</time>
      </trkpt>
      <trkpt lat="48.05464" lon="-4.20916">
        <ele>76.3</ele>
        <time>2015-02-26T09:50:37Z</time>
      </trkpt>
      <trkpt lat="48.05496" lon="-4.20889">
        <ele>76.5</ele>
        <time>2015-02-26T09:50:37Z</time>
      </trkpt>
      <trkpt lat="48.0553" lon="-4.20863">
        <ele>76.4</ele>
        <time>2015-02-26T09:50:37Z</time>
      </trkpt>
      <trkpt lat="48.05564" lon="-4.20837">
        <ele>75.8</ele>
        <time>2015-02-26T09:50:37Z</time>
      </trkpt>
      <trkpt lat="48.05597" lon="-4.20811">
        <ele>76.2</ele>
        <time>2015-02-26T09:50:37Z</time>
      </trkpt>
      <trkpt lat="48.05632" lon="-4.20782">
        <ele>77.9</ele>
        <time>2015-02-26T09:50:37Z</time>
      </trkpt>
      <trkpt lat="48.05663" lon="-4.20751">
        <ele>78.9</ele>
        <time>2015-02-26T09:50:37Z</time>
      </trkpt>
      <trkpt lat="48.05685" lon="-4.2072">
        <ele>79.4</ele>
        <time>2015-02-26T09:50:37Z</time>
      </trkpt>
      <trkpt lat="48.05705" lon="-4.2069">
        <ele>79.9</ele>
        <time>2015-02-26T09:50:37Z</time>
      </trkpt>
      <trkpt lat="48.05719" lon="-4.20668">
        <ele>80.3</ele>
        <time>2015-02-26T09:50:37Z</time>
      </trkpt>
      <trkpt lat="48.05734" lon="-4.20632">
        <ele>81.8</ele>
        <time>2015-02-26T09:50:37Z</time>
      </trkpt>
      <trkpt lat="48.05749" lon="-4.20596">
        <ele>83.5</ele>
        <time>2015-02-26T09:50:37Z</time>
      </trkpt>
      <trkpt lat="48.05763" lon="-4.20549">
        <ele>86</ele>
        <time>2015-02-26T09:50:37Z</time>
      </trkpt>
      <trkpt lat="48.05772" lon="-4.20498">
        <ele>87.9</ele>
        <time>2015-02-26T09:50:37Z</time>
      </trkpt>
      <trkpt lat="48.05775" lon="-4.20459">
        <ele>88.9</ele>
        <time>2015-02-26T09:50:37Z</time>
      </trkpt>
      <trkpt lat="48.05773" lon="-4.20418">
        <ele>89.6</ele>
        <time>2015-02-26T09:50:37Z</time>
      </trkpt>
      <trkpt lat="48.0577" lon="-4.20378">
        <ele>89.3</ele>
        <time>2015-02-26T09:50:37Z</time>
      </trkpt>
      <trkpt lat="48.05767" lon="-4.2034">
        <ele>88.9</ele>
        <time>2015-02-26T09:50:37Z</time>
      </trkpt>
      <trkpt lat="48.05762" lon="-4.20309">
        <ele>87.9</ele>
        <time>2015-02-26T09:50:37Z</time>
      </trkpt>
      <trkpt lat="48.05754" lon="-4.20278">
        <ele>86.8</ele>
        <time>2015-02-26T09:50:37Z</time>
      </trkpt>
      <trkpt lat="48.05747" lon="-4.20248">
        <ele>86</ele>
        <time>2015-02-26T09:50:37Z</time>
      </trkpt>
      <trkpt lat="48.05737" lon="-4.20221">
        <ele>86</ele>
        <time>2015-02-26T09:50:37Z</time>
      </trkpt>
      <trkpt lat="48.05728" lon="-4.20198">
        <ele>86</ele>
        <time>2015-02-26T09:50:37Z</time>
      </trkpt>
      <trkpt lat="48.05716" lon="-4.20176">
        <ele>86</ele>
        <time>2015-02-26T09:50:37Z</time>
      </trkpt>
      <trkpt lat="48.05705" lon="-4.20154">
        <ele>86.2</ele>
        <time>2015-02-26T09:50:37Z</time>
      </trkpt>
      <trkpt lat="48.05692" lon="-4.20133">
        <ele>86.3</ele>
        <time>2015-02-26T09:50:37Z</time>
      </trkpt>
      <trkpt lat="48.05677" lon="-4.20113">
        <ele>86.2</ele>
        <time>2015-02-26T09:50:37Z</time>
      </trkpt>
      <trkpt lat="48.0566" lon="-4.20096">
        <ele>85.9</ele>
        <time>2015-02-26T09:50:37Z</time>
      </trkpt>
      <trkpt lat="48.05642" lon="-4.20081">
        <ele>85.5</ele>
        <time>2015-02-26T09:50:37Z</time>
      </trkpt>
      <trkpt lat="48.05623" lon="-4.20064">
        <ele>85.3</ele>
        <time>2015-02-26T09:50:37Z</time>
      </trkpt>
      <trkpt lat="48.05604" lon="-4.20048">
        <ele>85</ele>
        <time>2015-02-26T09:50:37Z</time>
      </trkpt>
      <trkpt lat="48.05586" lon="-4.20037">
        <ele>84.6</ele>
        <time>2015-02-26T09:50:37Z</time>
      </trkpt>
      <trkpt lat="48.05564" lon="-4.20026">
        <ele>84.4</ele>
        <time>2015-02-26T09:50:37Z</time>
      </trkpt>
      <trkpt lat="48.05542" lon="-4.20016">
        <ele>84</ele>
        <time>2015-02-26T09:50:37Z</time>
      </trkpt>
      <trkpt lat="48.05517" lon="-4.20011">
        <ele>83.5</ele>
        <time>2015-02-26T09:50:37Z</time>
      </trkpt>
      <trkpt lat="48.05493" lon="-4.20002">
        <ele>83</ele>
        <time>2015-02-26T09:50:37Z</time>
      </trkpt>
      <trkpt lat="48.05469" lon="-4.19995">
        <ele>83.1</ele>
        <time>2015-02-26T09:50:37Z</time>
      </trkpt>
      <trkpt lat="48.05445" lon="-4.19987">
        <ele>83</ele>
        <time>2015-02-26T09:50:37Z</time>
      </trkpt>
      <trkpt lat="48.05422" lon="-4.1998">
        <ele>82.8</ele>
        <time>2015-02-26T09:50:37Z</time>
      </trkpt>
      <trkpt lat="48.05398" lon="-4.19973">
        <ele>82.7</ele>
        <time>2015-02-26T09:50:37Z</time>
      </trkpt>
      <trkpt lat="48.05374" lon="-4.19967">
        <ele>82.7</ele>
        <time>2015-02-26T09:50:37Z</time>
      </trkpt>
      <trkpt lat="48.0535" lon="-4.19961">
        <ele>82.6</ele>
        <time>2015-02-26T09:50:37Z</time>
      </trkpt>
      <trkpt lat="48.05326" lon="-4.19955">
        <ele>82.6</ele>
        <time>2015-02-26T09:50:37Z</time>
      </trkpt>
      <trkpt lat="48.05302" lon="-4.19948">
        <ele>82.9</ele>
        <time>2015-02-26T09:50:37Z</time>
      </trkpt>
      <trkpt lat="48.05277" lon="-4.19941">
        <ele>83.2</ele>
        <time>2015-02-26T09:50:37Z</time>
      </trkpt>
      <trkpt lat="48.05253" lon="-4.19934">
        <ele>83.5</ele>
        <time>2015-02-26T09:50:37Z</time>
      </trkpt>
      <trkpt lat="48.05228" lon="-4.19926">
        <ele>83.1</ele>
        <time>2015-02-26T09:50:37Z</time>
      </trkpt>
      <trkpt lat="48.05204" lon="-4.19918">
        <ele>82.5</ele>
        <time>2015-02-26T09:50:37Z</time>
      </trkpt>
      <trkpt lat="48.05179" lon="-4.19906">
        <ele>82.2</ele>
        <time>2015-02-26T09:50:37Z</time>
      </trkpt>
      <trkpt lat="48.05152" lon="-4.19888">
        <ele>82.4</ele>
        <time>2015-02-26T09:50:37Z</time>
      </trkpt>
      <trkpt lat="48.05124" lon="-4.1987">
        <ele>82.8</ele>
        <time>2015-02-26T09:50:37Z</time>
      </trkpt>
      <trkpt lat="48.05096" lon="-4.19848">
        <ele>83.5</ele>
        <time>2015-02-26T09:50:37Z</time>
      </trkpt>
      <trkpt lat="48.05068" lon="-4.19827">
        <ele>84.3</ele>
        <time>2015-02-26T09:50:37Z</time>
      </trkpt>
      <trkpt lat="48.05039" lon="-4.19805">
        <ele>85</ele>
        <time>2015-02-26T09:50:37Z</time>
      </trkpt>
      <trkpt lat="48.0501" lon="-4.19783">
        <ele>85.5</ele>
        <time>2015-02-26T09:50:37Z</time>
      </trkpt>
      <trkpt lat="48.04981" lon="-4.19762">
        <ele>85.7</ele>
        <time>2015-02-26T09:50:37Z</time>
      </trkpt>
      <trkpt lat="48.0495" lon="-4.19736">
        <ele>84.9</ele>
        <time>2015-02-26T09:50:37Z</time>
      </trkpt>
      <trkpt lat="48.04919" lon="-4.1971">
        <ele>83.6</ele>
        <time>2015-02-26T09:50:37Z</time>
      </trkpt>
      <trkpt lat="48.04888" lon="-4.1968">
        <ele>82.2</ele>
        <time>2015-02-26T09:50:37Z</time>
      </trkpt>
      <trkpt lat="48.0486" lon="-4.19653">
        <ele>81.4</ele>
        <time>2015-02-26T09:50:37Z</time>
      </trkpt>
      <trkpt lat="48.04836" lon="-4.19616">
        <ele>82.2</ele>
        <time>2015-02-26T09:50:37Z</time>
      </trkpt>
      <trkpt lat="48.04815" lon="-4.19578">
        <ele>82.6</ele>
        <time>2015-02-26T09:50:37Z</time>
      </trkpt>
      <trkpt lat="48.04794" lon="-4.19533">
        <ele>84.3</ele>
        <time>2015-02-26T09:50:37Z</time>
      </trkpt>
      <trkpt lat="48.04775" lon="-4.19485">
        <ele>85.6</ele>
        <time>2015-02-26T09:50:37Z</time>
      </trkpt>
      <trkpt lat="48.04755" lon="-4.19427">
        <ele>86</ele>
        <time>2015-02-26T09:50:37Z</time>
      </trkpt>
      <trkpt lat="48.04736" lon="-4.19371">
        <ele>84.5</ele>
        <time>2015-02-26T09:50:37Z</time>
      </trkpt>
      <trkpt lat="48.04716" lon="-4.19315">
        <ele>82</ele>
        <time>2015-02-26T09:50:37Z</time>
      </trkpt>
      <trkpt lat="48.04704" lon="-4.19286">
        <ele>80.2</ele>
        <time>2015-02-26T09:50:37Z</time>
      </trkpt>
      <trkpt lat="48.04692" lon="-4.19261">
        <ele>78.6</ele>
        <time>2015-02-26T09:50:37Z</time>
      </trkpt>
      <trkpt lat="48.0468" lon="-4.19237">
        <ele>77.1</ele>
        <time>2015-02-26T09:50:37Z</time>
      </trkpt>
      <trkpt lat="48.04668" lon="-4.19212">
        <ele>75.6</ele>
        <time>2015-02-26T09:50:37Z</time>
      </trkpt>
      <trkpt lat="48.04655" lon="-4.1919">
        <ele>75.2</ele>
        <time>2015-02-26T09:50:37Z</time>
      </trkpt>
      <trkpt lat="48.04641" lon="-4.19168">
        <ele>74.7</ele>
        <time>2015-02-26T09:50:37Z</time>
      </trkpt>
      <trkpt lat="48.04625" lon="-4.19145">
        <ele>74.4</ele>
        <time>2015-02-26T09:50:37Z</time>
      </trkpt>
      <trkpt lat="48.04607" lon="-4.19122">
        <ele>74.1</ele>
        <time>2015-02-26T09:50:37Z</time>
      </trkpt>
      <trkpt lat="48.04585" lon="-4.19097">
        <ele>74</ele>
        <time>2015-02-26T09:50:37Z</time>
      </trkpt>
      <trkpt lat="48.0456" lon="-4.1907">
        <ele>74.4</ele>
        <time>2015-02-26T09:50:37Z</time>
      </trkpt>
      <trkpt lat="48.04534" lon="-4.19042">
        <ele>74.8</ele>
        <time>2015-02-26T09:50:37Z</time>
      </trkpt>
      <trkpt lat="48.04508" lon="-4.19014">
        <ele>75</ele>
        <time>2015-02-26T09:50:37Z</time>
      </trkpt>
      <trkpt lat="48.04481" lon="-4.18988">
        <ele>75</ele>
        <time>2015-02-26T09:50:37Z</time>
      </trkpt>
      <trkpt lat="48.04454" lon="-4.18961">
        <ele>75.1</ele>
        <time>2015-02-26T09:50:37Z</time>
      </trkpt>
      <trkpt lat="48.04427" lon="-4.18936">
        <ele>75</ele>
        <time>2015-02-26T09:50:37Z</time>
      </trkpt>
      <trkpt lat="48.04401" lon="-4.18909">
        <ele>75.6</ele>
        <time>2015-02-26T09:50:37Z</time>
      </trkpt>
      <trkpt lat="48.04375" lon="-4.18882">
        <ele>77</ele>
        <time>2015-02-26T09:50:37Z</time>
      </trkpt>
      <trkpt lat="48.04357" lon="-4.18862">
        <ele>77.9</ele>
        <time>2015-02-26T09:50:37Z</time>
      </trkpt>
      <trkpt lat="48.0434" lon="-4.1884">
        <ele>78.7</ele>
        <time>2015-02-26T09:50:37Z</time>
      </trkpt>
      <trkpt lat="48.0432" lon="-4.18808">
        <ele>78</ele>
        <time>2015-02-26T09:50:37Z</time>
      </trkpt>
      <trkpt lat="48.04299" lon="-4.18766">
        <ele>76.8</ele>
        <time>2015-02-26T09:50:37Z</time>
      </trkpt>
      <trkpt lat="48.0428" lon="-4.18719">
        <ele>75.8</ele>
        <time>2015-02-26T09:50:37Z</time>
      </trkpt>
      <trkpt lat="48.04261" lon="-4.18671">
        <ele>75.1</ele>
        <time>2015-02-26T09:50:37Z</time>
      </trkpt>
      <trkpt lat="48.04244" lon="-4.18618">
        <ele>74.1</ele>
        <time>2015-02-26T09:50:37Z</time>
      </trkpt>
      <trkpt lat="48.0423" lon="-4.18564">
        <ele>73.7</ele>
        <time>2015-02-26T09:50:37Z</time>
      </trkpt>
      <trkpt lat="48.04217" lon="-4.18504">
        <ele>73.8</ele>
        <time>2015-02-26T09:50:37Z</time>
      </trkpt>
      <trkpt lat="48.04203" lon="-4.18444">
        <ele>74.2</ele>
        <time>2015-02-26T09:50:37Z</time>
      </trkpt>
      <trkpt lat="48.04189" lon="-4.18383">
        <ele>74.6</ele>
        <time>2015-02-26T09:50:37Z</time>
      </trkpt>
      <trkpt lat="48.04176" lon="-4.18323">
        <ele>75.9</ele>
        <time>2015-02-26T09:50:37Z</time>
      </trkpt>
      <trkpt lat="48.04162" lon="-4.18262">
        <ele>78</ele>
        <time>2015-02-26T09:50:37Z</time>
      </trkpt>
      <trkpt lat="48.0415" lon="-4.18199">
        <ele>78.7</ele>
        <time>2015-02-26T09:50:37Z</time>
      </trkpt>
      <trkpt lat="48.04136" lon="-4.18134">
        <ele>77.2</ele>
        <time>2015-02-26T09:50:37Z</time>
      </trkpt>
      <trkpt lat="48.04121" lon="-4.18069">
        <ele>74.5</ele>
        <time>2015-02-26T09:50:37Z</time>
      </trkpt>
      <trkpt lat="48.04107" lon="-4.18005">
        <ele>72.6</ele>
        <time>2015-02-26T09:50:37Z</time>
      </trkpt>
      <trkpt lat="48.0409" lon="-4.17947">
        <ele>70.9</ele>
        <time>2015-02-26T09:50:37Z</time>
      </trkpt>
      <trkpt lat="48.04072" lon="-4.17892">
        <ele>69.8</ele>
        <time>2015-02-26T09:50:37Z</time>
      </trkpt>
      <trkpt lat="48.04054" lon="-4.17836">
        <ele>69.2</ele>
        <time>2015-02-26T09:50:37Z</time>
      </trkpt>
      <trkpt lat="48.04029" lon="-4.17779">
        <ele>69.1</ele>
        <time>2015-02-26T09:50:37Z</time>
      </trkpt>
      <trkpt lat="48.04005" lon="-4.17714">
        <ele>68</ele>
        <time>2015-02-26T09:50:37Z</time>
      </trkpt>
      <trkpt lat="48.0398" lon="-4.17649">
        <ele>67.6</ele>
        <time>2015-02-26T09:50:37Z</time>
      </trkpt>
      <trkpt lat="48.03957" lon="-4.17584">
        <ele>66.4</ele>
        <time>2015-02-26T09:50:37Z</time>
      </trkpt>
      <trkpt lat="48.03935" lon="-4.17523">
        <ele>66.1</ele>
        <time>2015-02-26T09:50:37Z</time>
      </trkpt>
      <trkpt lat="48.0391" lon="-4.17466">
        <ele>66</ele>
        <time>2015-02-26T09:50:37Z</time>
      </trkpt>
      <trkpt lat="48.03887" lon="-4.17405">
        <ele>67.5</ele>
        <time>2015-02-26T09:50:37Z</time>
      </trkpt>
      <trkpt lat="48.03863" lon="-4.17344">
        <ele>67.7</ele>
        <time>2015-02-26T09:50:37Z</time>
      </trkpt>
      <trkpt lat="48.03839" lon="-4.17283">
        <ele>67.2</ele>
        <time>2015-02-26T09:50:37Z</time>
      </trkpt>
      <trkpt lat="48.03816" lon="-4.17222">
        <ele>67.3</ele>
        <time>2015-02-26T09:50:37Z</time>
      </trkpt>
      <trkpt lat="48.03793" lon="-4.1716">
        <ele>67.3</ele>
        <time>2015-02-26T09:50:37Z</time>
      </trkpt>
      <trkpt lat="48.0377" lon="-4.17099">
        <ele>65.8</ele>
        <time>2015-02-26T09:50:37Z</time>
      </trkpt>
      <trkpt lat="48.03748" lon="-4.17037">
        <ele>64</ele>
        <time>2015-02-26T09:50:37Z</time>
      </trkpt>
      <trkpt lat="48.03727" lon="-4.16978">
        <ele>64.4</ele>
        <time>2015-02-26T09:50:37Z</time>
      </trkpt>
      <trkpt lat="48.0372" lon="-4.16941">
        <ele>65.1</ele>
        <time>2015-02-26T09:50:37Z</time>
      </trkpt>
      <trkpt lat="48.03711" lon="-4.16899">
        <ele>66.3</ele>
        <time>2015-02-26T09:50:37Z</time>
      </trkpt>
      <trkpt lat="48.03703" lon="-4.16843">
        <ele>68.4</ele>
        <time>2015-02-26T09:50:37Z</time>
      </trkpt>
      <trkpt lat="48.037" lon="-4.16799">
        <ele>70.9</ele>
        <time>2015-02-26T09:50:37Z</time>
      </trkpt>
      <trkpt lat="48.03699" lon="-4.16747">
        <ele>74.5</ele>
        <time>2015-02-26T09:50:37Z</time>
      </trkpt>
      <trkpt lat="48.03701" lon="-4.16695">
        <ele>77</ele>
        <time>2015-02-26T09:50:37Z</time>
      </trkpt>
      <trkpt lat="48.03705" lon="-4.1664">
        <ele>77.3</ele>
        <time>2015-02-26T09:50:37Z</time>
      </trkpt>
      <trkpt lat="48.03709" lon="-4.16605">
        <ele>75.7</ele>
        <time>2015-02-26T09:50:37Z</time>
      </trkpt>
      <trkpt lat="48.03715" lon="-4.16574">
        <ele>73.4</ele>
        <time>2015-02-26T09:50:37Z</time>
      </trkpt>
      <trkpt lat="48.03725" lon="-4.16532">
        <ele>66.2</ele>
        <time>2015-02-26T09:50:37Z</time>
      </trkpt>
      <trkpt lat="48.03735" lon="-4.1649">
        <ele>59.6</ele>
        <time>2015-02-26T09:50:37Z</time>
      </trkpt>
      <trkpt lat="48.03747" lon="-4.16448">
        <ele>57</ele>
        <time>2015-02-26T09:50:37Z</time>
      </trkpt>
      <trkpt lat="48.03763" lon="-4.16395">
        <ele>54.6</ele>
        <time>2015-02-26T09:50:37Z</time>
      </trkpt>
      <trkpt lat="48.03778" lon="-4.16343">
        <ele>53</ele>
        <time>2015-02-26T09:50:37Z</time>
      </trkpt>
      <trkpt lat="48.03784" lon="-4.16317">
        <ele>52.9</ele>
        <time>2015-02-26T09:50:37Z</time>
      </trkpt>
      <trkpt lat="48.0379" lon="-4.16279">
        <ele>53</ele>
        <time>2015-02-26T09:50:37Z</time>
      </trkpt>
      <trkpt lat="48.03793" lon="-4.16239">
        <ele>53</ele>
        <time>2015-02-26T09:50:37Z</time>
      </trkpt>
      <trkpt lat="48.03795" lon="-4.16199">
        <ele>53</ele>
        <time>2015-02-26T09:50:37Z</time>
      </trkpt>
      <trkpt lat="48.03792" lon="-4.1616">
        <ele>53</ele>
        <time>2015-02-26T09:50:37Z</time>
      </trkpt>
      <trkpt lat="48.03788" lon="-4.16122">
        <ele>53</ele>
        <time>2015-02-26T09:50:37Z</time>
      </trkpt>
      <trkpt lat="48.03783" lon="-4.16084">
        <ele>52.8</ele>
        <time>2015-02-26T09:50:37Z</time>
      </trkpt>
      <trkpt lat="48.03773" lon="-4.16044">
        <ele>53.3</ele>
        <time>2015-02-26T09:50:37Z</time>
      </trkpt>
      <trkpt lat="48.03759" lon="-4.16008">
        <ele>53.3</ele>
        <time>2015-02-26T09:50:37Z</time>
      </trkpt>
      <trkpt lat="48.03741" lon="-4.15972">
        <ele>57.3</ele>
        <time>2015-02-26T09:50:37Z</time>
      </trkpt>
      <trkpt lat="48.03721" lon="-4.15938">
        <ele>61.4</ele>
        <time>2015-02-26T09:50:37Z</time>
      </trkpt>
      <trkpt lat="48.03704" lon="-4.15911">
        <ele>63.6</ele>
        <time>2015-02-26T09:50:37Z</time>
      </trkpt>
      <trkpt lat="48.03684" lon="-4.15886">
        <ele>66.2</ele>
        <time>2015-02-26T09:50:37Z</time>
      </trkpt>
      <trkpt lat="48.03666" lon="-4.15864">
        <ele>67.7</ele>
        <time>2015-02-26T09:50:37Z</time>
      </trkpt>
      <trkpt lat="48.03648" lon="-4.15843">
        <ele>66.8</ele>
        <time>2015-02-26T09:50:37Z</time>
      </trkpt>
      <trkpt lat="48.03629" lon="-4.15821">
        <ele>64.4</ele>
        <time>2015-02-26T09:50:37Z</time>
      </trkpt>
      <trkpt lat="48.03608" lon="-4.15801">
        <ele>60.8</ele>
        <time>2015-02-26T09:50:37Z</time>
      </trkpt>
      <trkpt lat="48.03588" lon="-4.15779">
        <ele>56.9</ele>
        <time>2015-02-26T09:50:37Z</time>
      </trkpt>
      <trkpt lat="48.03569" lon="-4.15757">
        <ele>56.1</ele>
        <time>2015-02-26T09:50:37Z</time>
      </trkpt>
      <trkpt lat="48.03549" lon="-4.1573">
        <ele>57.6</ele>
        <time>2015-02-26T09:50:37Z</time>
      </trkpt>
      <trkpt lat="48.03531" lon="-4.15703">
        <ele>59.3</ele>
        <time>2015-02-26T09:50:37Z</time>
      </trkpt>
      <trkpt lat="48.03519" lon="-4.15678">
        <ele>60.5</ele>
        <time>2015-02-26T09:50:37Z</time>
      </trkpt>
      <trkpt lat="48.03507" lon="-4.15652">
        <ele>61.4</ele>
        <time>2015-02-26T09:50:37Z</time>
      </trkpt>
      <trkpt lat="48.03495" lon="-4.15627">
        <ele>61.9</ele>
        <time>2015-02-26T09:50:37Z</time>
      </trkpt>
      <trkpt lat="48.03482" lon="-4.15592">
        <ele>62.1</ele>
        <time>2015-02-26T09:50:37Z</time>
      </trkpt>
      <trkpt lat="48.03468" lon="-4.15555">
        <ele>57.8</ele>
        <time>2015-02-26T09:50:37Z</time>
      </trkpt>
      <trkpt lat="48.03454" lon="-4.15518">
        <ele>51.8</ele>
        <time>2015-02-26T09:50:37Z</time>
      </trkpt>
      <trkpt lat="48.03439" lon="-4.15481">
        <ele>45.8</ele>
        <time>2015-02-26T09:50:37Z</time>
      </trkpt>
      <trkpt lat="48.03424" lon="-4.15443">
        <ele>40.6</ele>
        <time>2015-02-26T09:50:37Z</time>
      </trkpt>
      <trkpt lat="48.03406" lon="-4.15406">
        <ele>39.7</ele>
        <time>2015-02-26T09:50:37Z</time>
      </trkpt>
      <trkpt lat="48.03393" lon="-4.15377">
        <ele>40.5</ele>
        <time>2015-02-26T09:50:37Z</time>
      </trkpt>
      <trkpt lat="48.03378" lon="-4.15351">
        <ele>40.3</ele>
        <time>2015-02-26T09:50:37Z</time>
      </trkpt>
      <trkpt lat="48.03361" lon="-4.1533">
        <ele>39.2</ele>
        <time>2015-02-26T09:50:37Z</time>
      </trkpt>
      <trkpt lat="48.03344" lon="-4.15314">
        <ele>37.8</ele>
        <time>2015-02-26T09:50:37Z</time>
      </trkpt>
      <trkpt lat="48.0333" lon="-4.15298">
        <ele>36.4</ele>
        <time>2015-02-26T09:50:37Z</time>
      </trkpt>
      <trkpt lat="48.03316" lon="-4.15285">
        <ele>36.6</ele>
        <time>2015-02-26T09:50:37Z</time>
      </trkpt>
      <trkpt lat="48.03306" lon="-4.15277">
        <ele>37</ele>
        <time>2015-02-26T09:50:37Z</time>
      </trkpt>
      <trkpt lat="48.03296" lon="-4.15271">
        <ele>37.4</ele>
        <time>2015-02-26T09:50:37Z</time>
      </trkpt>
      <trkpt lat="48.03288" lon="-4.15264">
        <ele>37.2</ele>
        <time>2015-02-26T09:50:37Z</time>
      </trkpt>
      <trkpt lat="48.03291" lon="-4.1524">
        <ele>34.2</ele>
        <time>2015-02-26T09:50:37Z</time>
      </trkpt>
      <trkpt lat="48.03293" lon="-4.1523">
        <ele>33.5</ele>
        <time>2015-02-26T09:50:37Z</time>
      </trkpt>
      <trkpt lat="48.03309" lon="-4.15231">
        <ele>32.3</ele>
        <time>2015-02-26T09:50:37Z</time>
      </trkpt>
      <trkpt lat="48.03324" lon="-4.15235">
        <ele>31.1</ele>
        <time>2015-02-26T09:50:37Z</time>
      </trkpt>
      <trkpt lat="48.03342" lon="-4.15246">
        <ele>31.4</ele>
        <time>2015-02-26T09:50:37Z</time>
      </trkpt>
      <trkpt lat="48.03362" lon="-4.1526">
        <ele>34.7</ele>
        <time>2015-02-26T09:50:37Z</time>
      </trkpt>
      <trkpt lat="48.03381" lon="-4.15273">
        <ele>37.4</ele>
        <time>2015-02-26T09:50:37Z</time>
      </trkpt>
      <trkpt lat="48.03398" lon="-4.15286">
        <ele>38.9</ele>
        <time>2015-02-26T09:50:37Z</time>
      </trkpt>
      <trkpt lat="48.03414" lon="-4.15302">
        <ele>39.4</ele>
        <time>2015-02-26T09:50:37Z</time>
      </trkpt>
      <trkpt lat="48.03427" lon="-4.15325">
        <ele>41.6</ele>
        <time>2015-02-26T09:50:37Z</time>
      </trkpt>
      <trkpt lat="48.03433" lon="-4.15334">
        <ele>43.4</ele>
        <time>2015-02-26T09:50:37Z</time>
      </trkpt>
      <trkpt lat="48.03444" lon="-4.15335">
        <ele>46.9</ele>
        <time>2015-02-26T09:50:37Z</time>
      </trkpt>
      <trkpt lat="48.03456" lon="-4.15333">
        <ele>50.9</ele>
        <time>2015-02-26T09:50:37Z</time>
      </trkpt>
      <trkpt lat="48.0347" lon="-4.15329">
        <ele>55.4</ele>
        <time>2015-02-26T09:50:37Z</time>
      </trkpt>
      <trkpt lat="48.03486" lon="-4.15322">
        <ele>60.5</ele>
        <time>2015-02-26T09:50:37Z</time>
      </trkpt>
      <trkpt lat="48.03496" lon="-4.15315">
        <ele>63.8</ele>
        <time>2015-02-26T09:50:37Z</time>
      </trkpt>
      <trkpt lat="48.03498" lon="-4.15307">
        <ele>64.7</ele>
        <time>2015-02-26T09:50:37Z</time>
      </trkpt>
      <trkpt lat="48.03496" lon="-4.15297">
        <ele>64.1</ele>
        <time>2015-02-26T09:50:37Z</time>
      </trkpt>
      <trkpt lat="48.03493" lon="-4.15286">
        <ele>63.4</ele>
        <time>2015-02-26T09:50:37Z</time>
      </trkpt>
      <trkpt lat="48.03489" lon="-4.15276">
        <ele>62.5</ele>
        <time>2015-02-26T09:50:37Z</time>
      </trkpt>
      <trkpt lat="48.03485" lon="-4.15265">
        <ele>61.5</ele>
        <time>2015-02-26T09:50:37Z</time>
      </trkpt>
      <trkpt lat="48.03482" lon="-4.15255">
        <ele>60.6</ele>
        <time>2015-02-26T09:50:37Z</time>
      </trkpt>
      <trkpt lat="48.03478" lon="-4.15244">
        <ele>59.8</ele>
        <time>2015-02-26T09:50:37Z</time>
      </trkpt>
      <trkpt lat="48.03474" lon="-4.15233">
        <ele>59.1</ele>
        <time>2015-02-26T09:50:37Z</time>
      </trkpt>
      <trkpt lat="48.0347" lon="-4.15222">
        <ele>58.4</ele>
        <time>2015-02-26T09:50:37Z</time>
      </trkpt>
      <trkpt lat="48.03466" lon="-4.15211">
        <ele>57.6</ele>
        <time>2015-02-26T09:50:37Z</time>
      </trkpt>
      <trkpt lat="48.0346" lon="-4.15197">
        <ele>56.8</ele>
        <time>2015-02-26T09:50:37Z</time>
      </trkpt>
      <trkpt lat="48.03454" lon="-4.15183">
        <ele>56.2</ele>
        <time>2015-02-26T09:50:37Z</time>
      </trkpt>
      <trkpt lat="48.03448" lon="-4.15169">
        <ele>55.8</ele>
        <time>2015-02-26T09:50:37Z</time>
      </trkpt>
      <trkpt lat="48.03442" lon="-4.15155">
        <ele>56.8</ele>
        <time>2015-02-26T09:50:37Z</time>
      </trkpt>
      <trkpt lat="48.03435" lon="-4.15141">
        <ele>58.2</ele>
        <time>2015-02-26T09:50:37Z</time>
      </trkpt>
      <trkpt lat="48.03428" lon="-4.15128">
        <ele>59.1</ele>
        <time>2015-02-26T09:50:37Z</time>
      </trkpt>
      <trkpt lat="48.0342" lon="-4.15116">
        <ele>60.4</ele>
        <time>2015-02-26T09:50:37Z</time>
      </trkpt>
      <trkpt lat="48.03413" lon="-4.15103">
        <ele>61.3</ele>
        <time>2015-02-26T09:50:37Z</time>
      </trkpt>
      <trkpt lat="48.03406" lon="-4.15091">
        <ele>61.4</ele>
        <time>2015-02-26T09:50:37Z</time>
      </trkpt>
      <trkpt lat="48.03398" lon="-4.15079">
        <ele>61.3</ele>
        <time>2015-02-26T09:50:37Z</time>
      </trkpt>
      <trkpt lat="48.03388" lon="-4.15069">
        <ele>59.9</ele>
        <time>2015-02-26T09:50:37Z</time>
      </trkpt>
      <trkpt lat="48.03378" lon="-4.15057">
        <ele>58.7</ele>
        <time>2015-02-26T09:50:37Z</time>
      </trkpt>
      <trkpt lat="48.03373" lon="-4.15047">
        <ele>58.4</ele>
        <time>2015-02-26T09:50:37Z</time>
      </trkpt>
      <trkpt lat="48.03373" lon="-4.15034">
        <ele>60.6</ele>
        <time>2015-02-26T09:50:37Z</time>
      </trkpt>
      <trkpt lat="48.03377" lon="-4.15014">
        <ele>64.9</ele>
        <time>2015-02-26T09:50:37Z</time>
      </trkpt>
      <trkpt lat="48.03382" lon="-4.14989">
        <ele>68.4</ele>
        <time>2015-02-26T09:50:37Z</time>
      </trkpt>
      <trkpt lat="48.03385" lon="-4.14961">
        <ele>69.8</ele>
        <time>2015-02-26T09:50:37Z</time>
      </trkpt>
      <trkpt lat="48.03389" lon="-4.14933">
        <ele>71.1</ele>
        <time>2015-02-26T09:50:37Z</time>
      </trkpt>
      <trkpt lat="48.03393" lon="-4.14906">
        <ele>71.6</ele>
        <time>2015-02-26T09:50:37Z</time>
      </trkpt>
      <trkpt lat="48.03397" lon="-4.14874">
        <ele>70</ele>
        <time>2015-02-26T09:50:37Z</time>
      </trkpt>
      <trkpt lat="48.034" lon="-4.14837">
        <ele>67.7</ele>
        <time>2015-02-26T09:50:37Z</time>
      </trkpt>
      <trkpt lat="48.03403" lon="-4.148">
        <ele>66.7</ele>
        <time>2015-02-26T09:50:37Z</time>
      </trkpt>
      <trkpt lat="48.03406" lon="-4.14762">
        <ele>66.2</ele>
        <time>2015-02-26T09:50:37Z</time>
      </trkpt>
      <trkpt lat="48.03408" lon="-4.14716">
        <ele>65.3</ele>
        <time>2015-02-26T09:50:37Z</time>
      </trkpt>
      <trkpt lat="48.0341" lon="-4.14668">
        <ele>64.3</ele>
        <time>2015-02-26T09:50:37Z</time>
      </trkpt>
      <trkpt lat="48.03411" lon="-4.14619">
        <ele>62.9</ele>
        <time>2015-02-26T09:50:37Z</time>
      </trkpt>
      <trkpt lat="48.03412" lon="-4.14564">
        <ele>61.4</ele>
        <time>2015-02-26T09:50:37Z</time>
      </trkpt>
      <trkpt lat="48.03412" lon="-4.14508">
        <ele>59</ele>
        <time>2015-02-26T09:50:37Z</time>
      </trkpt>
      <trkpt lat="48.03411" lon="-4.14459">
        <ele>55.1</ele>
        <time>2015-02-26T09:50:37Z</time>
      </trkpt>
      <trkpt lat="48.03411" lon="-4.1441">
        <ele>51.3</ele>
        <time>2015-02-26T09:50:37Z</time>
      </trkpt>
      <trkpt lat="48.03411" lon="-4.14361">
        <ele>48.6</ele>
        <time>2015-02-26T09:50:37Z</time>
      </trkpt>
      <trkpt lat="48.03412" lon="-4.14337">
        <ele>47.5</ele>
        <time>2015-02-26T09:50:37Z</time>
      </trkpt>
      <trkpt lat="48.03418" lon="-4.14315">
        <ele>47.7</ele>
        <time>2015-02-26T09:50:37Z</time>
      </trkpt>
      <trkpt lat="48.03425" lon="-4.14293">
        <ele>48.2</ele>
        <time>2015-02-26T09:50:37Z</time>
      </trkpt>
      <trkpt lat="48.03431" lon="-4.14272">
        <ele>48.6</ele>
        <time>2015-02-26T09:50:37Z</time>
      </trkpt>
      <trkpt lat="48.03436" lon="-4.14264">
        <ele>49.1</ele>
        <time>2015-02-26T09:50:37Z</time>
      </trkpt>
      <trkpt lat="48.03442" lon="-4.14271">
        <ele>50.2</ele>
        <time>2015-02-26T09:50:37Z</time>
      </trkpt>
      <trkpt lat="48.03447" lon="-4.14279">
        <ele>50.9</ele>
        <time>2015-02-26T09:50:37Z</time>
      </trkpt>
      <trkpt lat="48.0345" lon="-4.14292">
        <ele>51.7</ele>
        <time>2015-02-26T09:50:37Z</time>
      </trkpt>
      <trkpt lat="48.03453" lon="-4.14306">
        <ele>52.2</ele>
        <time>2015-02-26T09:50:37Z</time>
      </trkpt>
      <trkpt lat="48.03454" lon="-4.1432">
        <ele>52.7</ele>
        <time>2015-02-26T09:50:37Z</time>
      </trkpt>
      <trkpt lat="48.03458" lon="-4.14318">
        <ele>53.2</ele>
        <time>2015-02-26T09:50:37Z</time>
      </trkpt>
      <trkpt lat="48.03465" lon="-4.14305">
        <ele>53.9</ele>
        <time>2015-02-26T09:50:37Z</time>
      </trkpt>
      <trkpt lat="48.03474" lon="-4.14284">
        <ele>54.8</ele>
        <time>2015-02-26T09:50:37Z</time>
      </trkpt>
      <trkpt lat="48.03484" lon="-4.1426">
        <ele>55.8</ele>
        <time>2015-02-26T09:50:37Z</time>
      </trkpt>
      <trkpt lat="48.03494" lon="-4.14236">
        <ele>56.6</ele>
        <time>2015-02-26T09:50:37Z</time>
      </trkpt>
      <trkpt lat="48.03505" lon="-4.14213">
        <ele>57.1</ele>
        <time>2015-02-26T09:50:37Z</time>
      </trkpt>
      <trkpt lat="48.0351" lon="-4.14205">
        <ele>57.2</ele>
        <time>2015-02-26T09:50:37Z</time>
      </trkpt>
      <trkpt lat="48.03519" lon="-4.14202">
        <ele>58</ele>
        <time>2015-02-26T09:50:37Z</time>
      </trkpt>
      <trkpt lat="48.03525" lon="-4.14199">
        <ele>58.4</ele>
        <time>2015-02-26T09:50:37Z</time>
      </trkpt>
      <trkpt lat="48.03527" lon="-4.14194">
        <ele>58.6</ele>
        <time>2015-02-26T09:50:37Z</time>
      </trkpt>
      <trkpt lat="48.03527" lon="-4.14179">
        <ele>58.4</ele>
        <time>2015-02-26T09:50:37Z</time>
      </trkpt>
      <trkpt lat="48.03527" lon="-4.14161">
        <ele>58.4</ele>
        <time>2015-02-26T09:50:37Z</time>
      </trkpt>
      <trkpt lat="48.03529" lon="-4.14142">
        <ele>59.1</ele>
        <time>2015-02-26T09:50:37Z</time>
      </trkpt>
      <trkpt lat="48.03531" lon="-4.14125">
        <ele>60</ele>
        <time>2015-02-26T09:50:37Z</time>
      </trkpt>
      <trkpt lat="48.03539" lon="-4.14108">
        <ele>61.8</ele>
        <time>2015-02-26T09:50:37Z</time>
      </trkpt>
      <trkpt lat="48.0355" lon="-4.14092">
        <ele>64.1</ele>
        <time>2015-02-26T09:50:37Z</time>
      </trkpt>
      <trkpt lat="48.03562" lon="-4.14081">
        <ele>66.3</ele>
        <time>2015-02-26T09:50:37Z</time>
      </trkpt>
      <trkpt lat="48.03568" lon="-4.14079">
        <ele>67.2</ele>
        <time>2015-02-26T09:50:37Z</time>
      </trkpt>
      <trkpt lat="48.03617" lon="-4.1406">
        <ele>74.9</ele>
        <time>2015-02-26T09:50:37Z</time>
      </trkpt>
      <trkpt lat="48.03636" lon="-4.14046">
        <ele>77.7</ele>
        <time>2015-02-26T09:50:37Z</time>
      </trkpt>
      <trkpt lat="48.03659" lon="-4.14028">
        <ele>81.5</ele>
        <time>2015-02-26T09:50:37Z</time>
      </trkpt>
      <trkpt lat="48.03684" lon="-4.14015">
        <ele>85.2</ele>
        <time>2015-02-26T09:50:37Z</time>
      </trkpt>
      <trkpt lat="48.03709" lon="-4.13999">
        <ele>88.6</ele>
        <time>2015-02-26T09:50:37Z</time>
      </trkpt>
      <trkpt lat="48.03729" lon="-4.13989">
        <ele>91.1</ele>
        <time>2015-02-26T09:50:37Z</time>
      </trkpt>
      <trkpt lat="48.03732" lon="-4.13984">
        <ele>91.5</ele>
        <time>2015-02-26T09:50:37Z</time>
      </trkpt>
      <trkpt lat="48.03731" lon="-4.13972">
        <ele>91.4</ele>
        <time>2015-02-26T09:50:37Z</time>
      </trkpt>
      <trkpt lat="48.03731" lon="-4.13961">
        <ele>91.4</ele>
        <time>2015-02-26T09:50:37Z</time>
      </trkpt>
      <trkpt lat="48.03734" lon="-4.13951">
        <ele>91.8</ele>
        <time>2015-02-26T09:50:37Z</time>
      </trkpt>
      <trkpt lat="48.03741" lon="-4.1394">
        <ele>93</ele>
        <time>2015-02-26T09:50:37Z</time>
      </trkpt>
      <trkpt lat="48.03753" lon="-4.13925">
        <ele>95.2</ele>
        <time>2015-02-26T09:50:37Z</time>
      </trkpt>
      <trkpt lat="48.03765" lon="-4.13909">
        <ele>95.9</ele>
        <time>2015-02-26T09:50:37Z</time>
      </trkpt>
      <trkpt lat="48.03771" lon="-4.13893">
        <ele>95.5</ele>
        <time>2015-02-26T09:50:37Z</time>
      </trkpt>
      <trkpt lat="48.03775" lon="-4.13862">
        <ele>93.9</ele>
        <time>2015-02-26T09:50:37Z</time>
      </trkpt>
      <trkpt lat="48.03779" lon="-4.13831">
        <ele>92.5</ele>
        <time>2015-02-26T09:50:37Z</time>
      </trkpt>
      <trkpt lat="48.03782" lon="-4.13799">
        <ele>88.3</ele>
        <time>2015-02-26T09:50:37Z</time>
      </trkpt>
      <trkpt lat="48.03785" lon="-4.13768">
        <ele>84.5</ele>
        <time>2015-02-26T09:50:37Z</time>
      </trkpt>
      <trkpt lat="48.03789" lon="-4.13736">
        <ele>81.2</ele>
        <time>2015-02-26T09:50:37Z</time>
      </trkpt>
      <trkpt lat="48.03793" lon="-4.13703">
        <ele>78.8</ele>
        <time>2015-02-26T09:50:37Z</time>
      </trkpt>
      <trkpt lat="48.03797" lon="-4.1367">
        <ele>76.9</ele>
        <time>2015-02-26T09:50:37Z</time>
      </trkpt>
      <trkpt lat="48.03804" lon="-4.13644">
        <ele>77.3</ele>
        <time>2015-02-26T09:50:37Z</time>
      </trkpt>
      <trkpt lat="48.03816" lon="-4.13614">
        <ele>79.7</ele>
        <time>2015-02-26T09:50:37Z</time>
      </trkpt>
      <trkpt lat="48.03827" lon="-4.13584">
        <ele>82.7</ele>
        <time>2015-02-26T09:50:37Z</time>
      </trkpt>
      <trkpt lat="48.03845" lon="-4.13542">
        <ele>80.3</ele>
        <time>2015-02-26T09:50:37Z</time>
      </trkpt>
      <trkpt lat="48.03862" lon="-4.135">
        <ele>74.5</ele>
        <time>2015-02-26T09:50:37Z</time>
      </trkpt>
      <trkpt lat="48.03878" lon="-4.13465">
        <ele>64.5</ele>
        <time>2015-02-26T09:50:37Z</time>
      </trkpt>
      <trkpt lat="48.03892" lon="-4.13461">
        <ele>63.5</ele>
        <time>2015-02-26T09:50:37Z</time>
      </trkpt>
      <trkpt lat="48.03915" lon="-4.13472">
        <ele>65.8</ele>
        <time>2015-02-26T09:50:37Z</time>
      </trkpt>
      <trkpt lat="48.03938" lon="-4.13483">
        <ele>66.3</ele>
        <time>2015-02-26T09:50:37Z</time>
      </trkpt>
      <trkpt lat="48.03961" lon="-4.13494">
        <ele>66.6</ele>
        <time>2015-02-26T09:50:37Z</time>
      </trkpt>
      <trkpt lat="48.03987" lon="-4.13508">
        <ele>66.8</ele>
        <time>2015-02-26T09:50:37Z</time>
      </trkpt>
      <trkpt lat="48.04" lon="-4.13528">
        <ele>68.9</ele>
        <time>2015-02-26T09:50:37Z</time>
      </trkpt>
      <trkpt lat="48.04013" lon="-4.13549">
        <ele>71</ele>
        <time>2015-02-26T09:50:37Z</time>
      </trkpt>
      <trkpt lat="48.04031" lon="-4.13564">
        <ele>71.5</ele>
        <time>2015-02-26T09:50:37Z</time>
      </trkpt>
      <trkpt lat="48.04052" lon="-4.13582">
        <ele>72.2</ele>
        <time>2015-02-26T09:50:37Z</time>
      </trkpt>
      <trkpt lat="48.04066" lon="-4.13612">
        <ele>76.2</ele>
        <time>2015-02-26T09:50:37Z</time>
      </trkpt>
      <trkpt lat="48.0408" lon="-4.13643">
        <ele>80.2</ele>
        <time>2015-02-26T09:50:37Z</time>
      </trkpt>
      <trkpt lat="48.04094" lon="-4.13675">
        <ele>85.4</ele>
        <time>2015-02-26T09:50:37Z</time>
      </trkpt>
      <trkpt lat="48.0411" lon="-4.13709">
        <ele>89.6</ele>
        <time>2015-02-26T09:50:37Z</time>
      </trkpt>
      <trkpt lat="48.0413" lon="-4.13742">
        <ele>91.8</ele>
        <time>2015-02-26T09:50:37Z</time>
      </trkpt>
      <trkpt lat="48.04141" lon="-4.13756">
        <ele>92.3</ele>
        <time>2015-02-26T09:50:37Z</time>
      </trkpt>
      <trkpt lat="48.04164" lon="-4.13775">
        <ele>93</ele>
        <time>2015-02-26T09:50:37Z</time>
      </trkpt>
      <trkpt lat="48.04187" lon="-4.13796">
        <ele>96.6</ele>
        <time>2015-02-26T09:50:37Z</time>
      </trkpt>
      <trkpt lat="48.0421" lon="-4.13817">
        <ele>100.7</ele>
        <time>2015-02-26T09:50:37Z</time>
      </trkpt>
      <trkpt lat="48.04234" lon="-4.13836">
        <ele>104.5</ele>
        <time>2015-02-26T09:50:37Z</time>
      </trkpt>
      <trkpt lat="48.04258" lon="-4.13852">
        <ele>105.4</ele>
        <time>2015-02-26T09:50:37Z</time>
      </trkpt>
      <trkpt lat="48.04281" lon="-4.13856">
        <ele>103.4</ele>
        <time>2015-02-26T09:50:37Z</time>
      </trkpt>
      <trkpt lat="48.04314" lon="-4.13859">
        <ele>100.6</ele>
        <time>2015-02-26T09:50:37Z</time>
      </trkpt>
      <trkpt lat="48.0433" lon="-4.13866">
        <ele>99.8</ele>
        <time>2015-02-26T09:50:37Z</time>
      </trkpt>
      <trkpt lat="48.04347" lon="-4.13882">
        <ele>100.7</ele>
        <time>2015-02-26T09:50:37Z</time>
      </trkpt>
      <trkpt lat="48.04366" lon="-4.13902">
        <ele>101.3</ele>
        <time>2015-02-26T09:50:37Z</time>
      </trkpt>
      <trkpt lat="48.04391" lon="-4.13922">
        <ele>100.7</ele>
        <time>2015-02-26T09:50:37Z</time>
      </trkpt>
      <trkpt lat="48.04416" lon="-4.13943">
        <ele>101.3</ele>
        <time>2015-02-26T09:50:37Z</time>
      </trkpt>
      <trkpt lat="48.04443" lon="-4.13965">
        <ele>104.4</ele>
        <time>2015-02-26T09:50:37Z</time>
      </trkpt>
      <trkpt lat="48.04471" lon="-4.13987">
        <ele>107.1</ele>
        <time>2015-02-26T09:50:37Z</time>
      </trkpt>
      <trkpt lat="48.04501" lon="-4.14011">
        <ele>109.1</ele>
        <time>2015-02-26T09:50:37Z</time>
      </trkpt>
      <trkpt lat="48.04518" lon="-4.14027">
        <ele>110.7</ele>
        <time>2015-02-26T09:50:37Z</time>
      </trkpt>
      <trkpt lat="48.0454" lon="-4.1405">
        <ele>112.4</ele>
        <time>2015-02-26T09:50:37Z</time>
      </trkpt>
      <trkpt lat="48.04566" lon="-4.14082">
        <ele>113.6</ele>
        <time>2015-02-26T09:50:37Z</time>
      </trkpt>
      <trkpt lat="48.04592" lon="-4.14114">
        <ele>115.5</ele>
        <time>2015-02-26T09:50:37Z</time>
      </trkpt>
      <trkpt lat="48.04618" lon="-4.14146">
        <ele>117.7</ele>
        <time>2015-02-26T09:50:37Z</time>
      </trkpt>
      <trkpt lat="48.04644" lon="-4.14177">
        <ele>119.1</ele>
        <time>2015-02-26T09:50:37Z</time>
      </trkpt>
      <trkpt lat="48.04669" lon="-4.14209">
        <ele>121.6</ele>
        <time>2015-02-26T09:50:37Z</time>
      </trkpt>
      <trkpt lat="48.04695" lon="-4.14243">
        <ele>123.5</ele>
        <time>2015-02-26T09:50:37Z</time>
      </trkpt>
      <trkpt lat="48.04721" lon="-4.14277">
        <ele>125.1</ele>
        <time>2015-02-26T09:50:37Z</time>
      </trkpt>
      <trkpt lat="48.04729" lon="-4.14288">
        <ele>125.8</ele>
        <time>2015-02-26T09:50:37Z</time>
      </trkpt>
      <trkpt lat="48.04734" lon="-4.14285">
        <ele>125.5</ele>
        <time>2015-02-26T09:50:37Z</time>
      </trkpt>
      <trkpt lat="48.04741" lon="-4.14279">
        <ele>124.9</ele>
        <time>2015-02-26T09:50:37Z</time>
      </trkpt>
      <trkpt lat="48.0475" lon="-4.14267">
        <ele>123.6</ele>
        <time>2015-02-26T09:50:37Z</time>
      </trkpt>
      <trkpt lat="48.04764" lon="-4.14257">
        <ele>122.8</ele>
        <time>2015-02-26T09:50:37Z</time>
      </trkpt>
      <trkpt lat="48.04781" lon="-4.14248">
        <ele>122.3</ele>
        <time>2015-02-26T09:50:37Z</time>
      </trkpt>
      <trkpt lat="48.04802" lon="-4.1424">
        <ele>122.5</ele>
        <time>2015-02-26T09:50:37Z</time>
      </trkpt>
      <trkpt lat="48.04828" lon="-4.14232">
        <ele>122.9</ele>
        <time>2015-02-26T09:50:37Z</time>
      </trkpt>
      <trkpt lat="48.04855" lon="-4.14225">
        <ele>124.2</ele>
        <time>2015-02-26T09:50:37Z</time>
      </trkpt>
      <trkpt lat="48.04882" lon="-4.14217">
        <ele>125.7</ele>
        <time>2015-02-26T09:50:37Z</time>
      </trkpt>
      <trkpt lat="48.04902" lon="-4.14207">
        <ele>126.7</ele>
        <time>2015-02-26T09:50:37Z</time>
      </trkpt>
      <trkpt lat="48.04918" lon="-4.14195">
        <ele>127.3</ele>
        <time>2015-02-26T09:50:37Z</time>
      </trkpt>
      <trkpt lat="48.04931" lon="-4.14184">
        <ele>127.2</ele>
        <time>2015-02-26T09:50:37Z</time>
      </trkpt>
      <trkpt lat="48.04946" lon="-4.14167">
        <ele>126.6</ele>
        <time>2015-02-26T09:50:37Z</time>
      </trkpt>
      <trkpt lat="48.04953" lon="-4.14156">
        <ele>126.1</ele>
        <time>2015-02-26T09:50:37Z</time>
      </trkpt>
      <trkpt lat="48.04966" lon="-4.14133">
        <ele>124.8</ele>
        <time>2015-02-26T09:50:37Z</time>
      </trkpt>
      <trkpt lat="48.0499" lon="-4.1409">
        <ele>121.8</ele>
        <time>2015-02-26T09:50:37Z</time>
      </trkpt>
      <trkpt lat="48.05014" lon="-4.14046">
        <ele>119.2</ele>
        <time>2015-02-26T09:50:37Z</time>
      </trkpt>
      <trkpt lat="48.05047" lon="-4.13983">
        <ele>116</ele>
        <time>2015-02-26T09:50:37Z</time>
      </trkpt>
      <trkpt lat="48.05082" lon="-4.13919">
        <ele>113.1</ele>
        <time>2015-02-26T09:50:37Z</time>
      </trkpt>
      <trkpt lat="48.05101" lon="-4.1388">
        <ele>112.7</ele>
        <time>2015-02-26T09:50:37Z</time>
      </trkpt>
      <trkpt lat="48.05116" lon="-4.13841">
        <ele>112.4</ele>
        <time>2015-02-26T09:50:37Z</time>
      </trkpt>
      <trkpt lat="48.0513" lon="-4.13793">
        <ele>112.8</ele>
        <time>2015-02-26T09:50:37Z</time>
      </trkpt>
      <trkpt lat="48.05139" lon="-4.1375">
        <ele>113.7</ele>
        <time>2015-02-26T09:50:37Z</time>
      </trkpt>
      <trkpt lat="48.05147" lon="-4.13696">
        <ele>112.8</ele>
        <time>2015-02-26T09:50:37Z</time>
      </trkpt>
      <trkpt lat="48.05156" lon="-4.13635">
        <ele>112.5</ele>
        <time>2015-02-26T09:50:37Z</time>
      </trkpt>
      <trkpt lat="48.05165" lon="-4.13568">
        <ele>113</ele>
        <time>2015-02-26T09:50:37Z</time>
      </trkpt>
      <trkpt lat="48.05175" lon="-4.13498">
        <ele>113.4</ele>
        <time>2015-02-26T09:50:37Z</time>
      </trkpt>
      <trkpt lat="48.05183" lon="-4.1343">
        <ele>113.3</ele>
        <time>2015-02-26T09:50:37Z</time>
      </trkpt>
      <trkpt lat="48.05187" lon="-4.13354">
        <ele>114.6</ele>
        <time>2015-02-26T09:50:37Z</time>
      </trkpt>
      <trkpt lat="48.05191" lon="-4.1328">
        <ele>116</ele>
        <time>2015-02-26T09:50:37Z</time>
      </trkpt>
      <trkpt lat="48.05197" lon="-4.13215">
        <ele>117.5</ele>
        <time>2015-02-26T09:50:37Z</time>
      </trkpt>
      <trkpt lat="48.05202" lon="-4.13188">
        <ele>118.3</ele>
        <time>2015-02-26T09:50:37Z</time>
      </trkpt>
      <trkpt lat="48.05209" lon="-4.13166">
        <ele>119</ele>
        <time>2015-02-26T09:50:37Z</time>
      </trkpt>
      <trkpt lat="48.05217" lon="-4.13142">
        <ele>119.7</ele>
        <time>2015-02-26T09:50:37Z</time>
      </trkpt>
      <trkpt lat="48.05233" lon="-4.13115">
        <ele>120.8</ele>
        <time>2015-02-26T09:50:37Z</time>
      </trkpt>
      <trkpt lat="48.05254" lon="-4.13083">
        <ele>122.1</ele>
        <time>2015-02-26T09:50:37Z</time>
      </trkpt>
      <trkpt lat="48.05278" lon="-4.1305">
        <ele>122.4</ele>
        <time>2015-02-26T09:50:37Z</time>
      </trkpt>
      <trkpt lat="48.05301" lon="-4.13019">
        <ele>122.9</ele>
        <time>2015-02-26T09:50:37Z</time>
      </trkpt>
      <trkpt lat="48.05304" lon="-4.13021">
        <ele>123</ele>
        <time>2015-02-26T09:50:37Z</time>
      </trkpt>
      <trkpt lat="48.0531" lon="-4.13028">
        <ele>123.2</ele>
        <time>2015-02-26T09:50:37Z</time>
      </trkpt>
      <trkpt lat="48.05322" lon="-4.13076">
        <ele>123.7</ele>
        <time>2015-02-26T09:50:37Z</time>
      </trkpt>
      <trkpt lat="48.05334" lon="-4.13124">
        <ele>123.5</ele>
        <time>2015-02-26T09:50:37Z</time>
      </trkpt>
      <trkpt lat="48.05344" lon="-4.13173">
        <ele>122.9</ele>
        <time>2015-02-26T09:50:37Z</time>
      </trkpt>
      <trkpt lat="48.05352" lon="-4.13227">
        <ele>122.4</ele>
        <time>2015-02-26T09:50:37Z</time>
      </trkpt>
      <trkpt lat="48.05361" lon="-4.13282">
        <ele>121.7</ele>
        <time>2015-02-26T09:50:37Z</time>
      </trkpt>
      <trkpt lat="48.05371" lon="-4.13337">
        <ele>120.9</ele>
        <time>2015-02-26T09:50:37Z</time>
      </trkpt>
      <trkpt lat="48.05374" lon="-4.13358">
        <ele>121</ele>
        <time>2015-02-26T09:50:37Z</time>
      </trkpt>
      <trkpt lat="48.05377" lon="-4.13358">
        <ele>121.1</ele>
        <time>2015-02-26T09:50:37Z</time>
      </trkpt>
      <trkpt lat="48.05382" lon="-4.13359">
        <ele>121.2</ele>
        <time>2015-02-26T09:50:37Z</time>
      </trkpt>
      <trkpt lat="48.05389" lon="-4.13356">
        <ele>121.4</ele>
        <time>2015-02-26T09:50:37Z</time>
      </trkpt>
      <trkpt lat="48.05417" lon="-4.13345">
        <ele>122.1</ele>
        <time>2015-02-26T09:50:37Z</time>
      </trkpt>
      <trkpt lat="48.05446" lon="-4.13333">
        <ele>122.3</ele>
        <time>2015-02-26T09:50:37Z</time>
      </trkpt>
      <trkpt lat="48.05474" lon="-4.13322">
        <ele>122.6</ele>
        <time>2015-02-26T09:50:37Z</time>
      </trkpt>
      <trkpt lat="48.05503" lon="-4.13311">
        <ele>122.5</ele>
        <time>2015-02-26T09:50:37Z</time>
      </trkpt>
      <trkpt lat="48.05527" lon="-4.133">
        <ele>120.6</ele>
        <time>2015-02-26T09:50:37Z</time>
      </trkpt>
      <trkpt lat="48.05538" lon="-4.13294">
        <ele>119.7</ele>
        <time>2015-02-26T09:50:37Z</time>
      </trkpt>
      <trkpt lat="48.05545" lon="-4.13287">
        <ele>119.2</ele>
        <time>2015-02-26T09:50:37Z</time>
      </trkpt>
      <trkpt lat="48.05551" lon="-4.13278">
        <ele>118.9</ele>
        <time>2015-02-26T09:50:37Z</time>
      </trkpt>
      <trkpt lat="48.05556" lon="-4.13269">
        <ele>118.6</ele>
        <time>2015-02-26T09:50:37Z</time>
      </trkpt>
      <trkpt lat="48.0556" lon="-4.13258">
        <ele>118.4</ele>
        <time>2015-02-26T09:50:37Z</time>
      </trkpt>
      <trkpt lat="48.05562" lon="-4.13243">
        <ele>118.3</ele>
        <time>2015-02-26T09:50:37Z</time>
      </trkpt>
      <trkpt lat="48.05563" lon="-4.13216">
        <ele>118.1</ele>
        <time>2015-02-26T09:50:37Z</time>
      </trkpt>
      <trkpt lat="48.05565" lon="-4.13188">
        <ele>117.9</ele>
        <time>2015-02-26T09:50:37Z</time>
      </trkpt>
      <trkpt lat="48.05567" lon="-4.13157">
        <ele>118</ele>
        <time>2015-02-26T09:50:37Z</time>
      </trkpt>
      <trkpt lat="48.05568" lon="-4.13126">
        <ele>119.1</ele>
        <time>2015-02-26T09:50:37Z</time>
      </trkpt>
      <trkpt lat="48.0557" lon="-4.13095">
        <ele>120.3</ele>
        <time>2015-02-26T09:50:37Z</time>
      </trkpt>
      <trkpt lat="48.05572" lon="-4.13062">
        <ele>121.1</ele>
        <time>2015-02-26T09:50:37Z</time>
      </trkpt>
      <trkpt lat="48.05574" lon="-4.1303">
        <ele>121.7</ele>
        <time>2015-02-26T09:50:37Z</time>
      </trkpt>
      <trkpt lat="48.05577" lon="-4.12996">
        <ele>122.1</ele>
        <time>2015-02-26T09:50:37Z</time>
      </trkpt>
      <trkpt lat="48.05582" lon="-4.12956">
        <ele>121</ele>
        <time>2015-02-26T09:50:37Z</time>
      </trkpt>
      <trkpt lat="48.05586" lon="-4.12917">
        <ele>119.9</ele>
        <time>2015-02-26T09:50:37Z</time>
      </trkpt>
      <trkpt lat="48.05592" lon="-4.12887">
        <ele>119.5</ele>
        <time>2015-02-26T09:50:37Z</time>
      </trkpt>
      <trkpt lat="48.05603" lon="-4.12877">
        <ele>118.9</ele>
        <time>2015-02-26T09:50:37Z</time>
      </trkpt>
      <trkpt lat="48.05623" lon="-4.12875">
        <ele>117.9</ele>
        <time>2015-02-26T09:50:37Z</time>
      </trkpt>
      <trkpt lat="48.05644" lon="-4.12874">
        <ele>116.7</ele>
        <time>2015-02-26T09:50:37Z</time>
      </trkpt>
      <trkpt lat="48.05668" lon="-4.12876">
        <ele>115.4</ele>
        <time>2015-02-26T09:50:37Z</time>
      </trkpt>
      <trkpt lat="48.05693" lon="-4.12878">
        <ele>113.9</ele>
        <time>2015-02-26T09:50:37Z</time>
      </trkpt>
      <trkpt lat="48.05709" lon="-4.12878">
        <ele>112.9</ele>
        <time>2015-02-26T09:50:37Z</time>
      </trkpt>
      <trkpt lat="48.05727" lon="-4.12891">
        <ele>111.7</ele>
        <time>2015-02-26T09:50:37Z</time>
      </trkpt>
      <trkpt lat="48.05739" lon="-4.12906">
        <ele>110.8</ele>
        <time>2015-02-26T09:50:37Z</time>
      </trkpt>
      <trkpt lat="48.05756" lon="-4.12934">
        <ele>107.3</ele>
        <time>2015-02-26T09:50:37Z</time>
      </trkpt>
      <trkpt lat="48.05773" lon="-4.12962">
        <ele>103.1</ele>
        <time>2015-02-26T09:50:37Z</time>
      </trkpt>
      <trkpt lat="48.05789" lon="-4.12991">
        <ele>100.1</ele>
        <time>2015-02-26T09:50:37Z</time>
      </trkpt>
      <trkpt lat="48.05806" lon="-4.13019">
        <ele>99.2</ele>
        <time>2015-02-26T09:50:37Z</time>
      </trkpt>
      <trkpt lat="48.05824" lon="-4.13047">
        <ele>98.9</ele>
        <time>2015-02-26T09:50:37Z</time>
      </trkpt>
      <trkpt lat="48.05842" lon="-4.1308">
        <ele>99.3</ele>
        <time>2015-02-26T09:50:37Z</time>
      </trkpt>
      <trkpt lat="48.05856" lon="-4.13105">
        <ele>100.2</ele>
        <time>2015-02-26T09:50:37Z</time>
      </trkpt>
      <trkpt lat="48.05868" lon="-4.13116">
        <ele>100.9</ele>
        <time>2015-02-26T09:50:37Z</time>
      </trkpt>
      <trkpt lat="48.05881" lon="-4.13124">
        <ele>101.8</ele>
        <time>2015-02-26T09:50:37Z</time>
      </trkpt>
      <trkpt lat="48.05895" lon="-4.13129">
        <ele>102.6</ele>
        <time>2015-02-26T09:50:37Z</time>
      </trkpt>
      <trkpt lat="48.0591" lon="-4.13134">
        <ele>103.5</ele>
        <time>2015-02-26T09:50:37Z</time>
      </trkpt>
      <trkpt lat="48.05925" lon="-4.1314">
        <ele>105</ele>
        <time>2015-02-26T09:50:37Z</time>
      </trkpt>
      <trkpt lat="48.05941" lon="-4.13147">
        <ele>106.9</ele>
        <time>2015-02-26T09:50:37Z</time>
      </trkpt>
      <trkpt lat="48.05958" lon="-4.13157">
        <ele>109.2</ele>
        <time>2015-02-26T09:50:37Z</time>
      </trkpt>
      <trkpt lat="48.05975" lon="-4.13168">
        <ele>111.3</ele>
        <time>2015-02-26T09:50:37Z</time>
      </trkpt>
      <trkpt lat="48.05991" lon="-4.13181">
        <ele>113.4</ele>
        <time>2015-02-26T09:50:37Z</time>
      </trkpt>
      <trkpt lat="48.06008" lon="-4.13195">
        <ele>115.6</ele>
        <time>2015-02-26T09:50:37Z</time>
      </trkpt>
      <trkpt lat="48.06025" lon="-4.1321">
        <ele>117.9</ele>
        <time>2015-02-26T09:50:37Z</time>
      </trkpt>
      <trkpt lat="48.06042" lon="-4.13225">
        <ele>120.1</ele>
        <time>2015-02-26T09:50:37Z</time>
      </trkpt>
      <trkpt lat="48.06059" lon="-4.1324">
        <ele>122.3</ele>
        <time>2015-02-26T09:50:37Z</time>
      </trkpt>
      <trkpt lat="48.06073" lon="-4.13249">
        <ele>123.9</ele>
        <time>2015-02-26T09:50:37Z</time>
      </trkpt>
      <trkpt lat="48.06089" lon="-4.13252">
        <ele>125.4</ele>
        <time>2015-02-26T09:50:37Z</time>
      </trkpt>
      <trkpt lat="48.06107" lon="-4.13254">
        <ele>126.5</ele>
        <time>2015-02-26T09:50:37Z</time>
      </trkpt>
      <trkpt lat="48.06124" lon="-4.13256">
        <ele>127.6</ele>
        <time>2015-02-26T09:50:37Z</time>
      </trkpt>
      <trkpt lat="48.06144" lon="-4.13258">
        <ele>128.8</ele>
        <time>2015-02-26T09:50:37Z</time>
      </trkpt>
      <trkpt lat="48.06165" lon="-4.13262">
        <ele>130</ele>
        <time>2015-02-26T09:50:37Z</time>
      </trkpt>
      <trkpt lat="48.06188" lon="-4.13263">
        <ele>130.8</ele>
        <time>2015-02-26T09:50:37Z</time>
      </trkpt>
      <trkpt lat="48.06212" lon="-4.13265">
        <ele>131.5</ele>
        <time>2015-02-26T09:50:37Z</time>
      </trkpt>
      <trkpt lat="48.06236" lon="-4.13263">
        <ele>132.1</ele>
        <time>2015-02-26T09:50:37Z</time>
      </trkpt>
      <trkpt lat="48.06248" lon="-4.13258">
        <ele>132.3</ele>
        <time>2015-02-26T09:50:37Z</time>
      </trkpt>
      <trkpt lat="48.06251" lon="-4.13247">
        <ele>131.9</ele>
        <time>2015-02-26T09:50:37Z</time>
      </trkpt>
      <trkpt lat="48.06254" lon="-4.13232">
        <ele>131.4</ele>
        <time>2015-02-26T09:50:37Z</time>
      </trkpt>
      <trkpt lat="48.06258" lon="-4.13222">
        <ele>131</ele>
        <time>2015-02-26T09:50:37Z</time>
      </trkpt>
      <trkpt lat="48.06267" lon="-4.13222">
        <ele>130.7</ele>
        <time>2015-02-26T09:50:37Z</time>
      </trkpt>
      <trkpt lat="48.0628" lon="-4.13229">
        <ele>130.2</ele>
        <time>2015-02-26T09:50:37Z</time>
      </trkpt>
      <trkpt lat="48.06295" lon="-4.13236">
        <ele>129.7</ele>
        <time>2015-02-26T09:50:37Z</time>
      </trkpt>
      <trkpt lat="48.06312" lon="-4.13245">
        <ele>129</ele>
        <time>2015-02-26T09:50:37Z</time>
      </trkpt>
      <trkpt lat="48.0633" lon="-4.13253">
        <ele>128.2</ele>
        <time>2015-02-26T09:50:37Z</time>
      </trkpt>
      <trkpt lat="48.06348" lon="-4.13261">
        <ele>126.1</ele>
        <time>2015-02-26T09:50:37Z</time>
      </trkpt>
      <trkpt lat="48.06367" lon="-4.13269">
        <ele>123.8</ele>
        <time>2015-02-26T09:50:37Z</time>
      </trkpt>
      <trkpt lat="48.06385" lon="-4.13276">
        <ele>121.6</ele>
        <time>2015-02-26T09:50:37Z</time>
      </trkpt>
      <trkpt lat="48.06406" lon="-4.13284">
        <ele>119.1</ele>
        <time>2015-02-26T09:50:37Z</time>
      </trkpt>
      <trkpt lat="48.06429" lon="-4.1329">
        <ele>116.3</ele>
        <time>2015-02-26T09:50:37Z</time>
      </trkpt>
      <trkpt lat="48.06448" lon="-4.13292">
        <ele>113.8</ele>
        <time>2015-02-26T09:50:37Z</time>
      </trkpt>
      <trkpt lat="48.06475" lon="-4.13296">
        <ele>110.4</ele>
        <time>2015-02-26T09:50:37Z</time>
      </trkpt>
      <trkpt lat="48.06494" lon="-4.13305">
        <ele>107.8</ele>
        <time>2015-02-26T09:50:37Z</time>
      </trkpt>
      <trkpt lat="48.06516" lon="-4.13314">
        <ele>105.3</ele>
        <time>2015-02-26T09:50:37Z</time>
      </trkpt>
      <trkpt lat="48.06538" lon="-4.13322">
        <ele>102.7</ele>
        <time>2015-02-26T09:50:37Z</time>
      </trkpt>
      <trkpt lat="48.06564" lon="-4.13335">
        <ele>99.2</ele>
        <time>2015-02-26T09:50:37Z</time>
      </trkpt>
      <trkpt lat="48.0659" lon="-4.13347">
        <ele>93.9</ele>
        <time>2015-02-26T09:50:37Z</time>
      </trkpt>
      <trkpt lat="48.06598" lon="-4.13353">
        <ele>91.5</ele>
        <time>2015-02-26T09:50:37Z</time>
      </trkpt>
      <trkpt lat="48.06602" lon="-4.13365">
        <ele>89.4</ele>
        <time>2015-02-26T09:50:37Z</time>
      </trkpt>
      <trkpt lat="48.06602" lon="-4.13384">
        <ele>87.8</ele>
        <time>2015-02-26T09:50:37Z</time>
      </trkpt>
      <trkpt lat="48.06603" lon="-4.13404">
        <ele>85.9</ele>
        <time>2015-02-26T09:50:37Z</time>
      </trkpt>
      <trkpt lat="48.06604" lon="-4.13412">
        <ele>85.2</ele>
        <time>2015-02-26T09:50:37Z</time>
      </trkpt>
      <trkpt lat="48.06607" lon="-4.13415">
        <ele>84.4</ele>
        <time>2015-02-26T09:50:37Z</time>
      </trkpt>
      <trkpt lat="48.06611" lon="-4.13416">
        <ele>83.6</ele>
        <time>2015-02-26T09:50:37Z</time>
      </trkpt>
      <trkpt lat="48.06619" lon="-4.13408">
        <ele>83</ele>
        <time>2015-02-26T09:50:37Z</time>
      </trkpt>
      <trkpt lat="48.06627" lon="-4.13396">
        <ele>82.2</ele>
        <time>2015-02-26T09:50:37Z</time>
      </trkpt>
      <trkpt lat="48.06638" lon="-4.13379">
        <ele>80.9</ele>
        <time>2015-02-26T09:50:37Z</time>
      </trkpt>
      <trkpt lat="48.06652" lon="-4.13355">
        <ele>78.4</ele>
        <time>2015-02-26T09:50:37Z</time>
      </trkpt>
      <trkpt lat="48.06667" lon="-4.13328">
        <ele>75.2</ele>
        <time>2015-02-26T09:50:37Z</time>
      </trkpt>
      <trkpt lat="48.06687" lon="-4.1329">
        <ele>77.3</ele>
        <time>2015-02-26T09:50:37Z</time>
      </trkpt>
      <trkpt lat="48.06705" lon="-4.13252">
        <ele>78</ele>
        <time>2015-02-26T09:50:37Z</time>
      </trkpt>
      <trkpt lat="48.06712" lon="-4.13235">
        <ele>77.6</ele>
        <time>2015-02-26T09:50:37Z</time>
      </trkpt>
      <trkpt lat="48.06721" lon="-4.13211">
        <ele>76.8</ele>
        <time>2015-02-26T09:50:37Z</time>
      </trkpt>
      <trkpt lat="48.06731" lon="-4.13183">
        <ele>75.6</ele>
        <time>2015-02-26T09:50:37Z</time>
      </trkpt>
      <trkpt lat="48.06739" lon="-4.13151">
        <ele>74.6</ele>
        <time>2015-02-26T09:50:37Z</time>
      </trkpt>
      <trkpt lat="48.06744" lon="-4.13135">
        <ele>74.3</ele>
        <time>2015-02-26T09:50:37Z</time>
      </trkpt>
      <trkpt lat="48.06747" lon="-4.13125">
        <ele>74.1</ele>
        <time>2015-02-26T09:50:37Z</time>
      </trkpt>
      <trkpt lat="48.06756" lon="-4.13122">
        <ele>75.3</ele>
        <time>2015-02-26T09:50:37Z</time>
      </trkpt>
      <trkpt lat="48.06774" lon="-4.13122">
        <ele>79.1</ele>
        <time>2015-02-26T09:50:37Z</time>
      </trkpt>
      <trkpt lat="48.068" lon="-4.13122">
        <ele>84.7</ele>
        <time>2015-02-26T09:50:37Z</time>
      </trkpt>
      <trkpt lat="48.06811" lon="-4.13119">
        <ele>87</ele>
        <time>2015-02-26T09:50:37Z</time>
      </trkpt>
      <trkpt lat="48.06819" lon="-4.13112">
        <ele>88.3</ele>
        <time>2015-02-26T09:50:37Z</time>
      </trkpt>
      <trkpt lat="48.06825" lon="-4.13099">
        <ele>89</ele>
        <time>2015-02-26T09:50:37Z</time>
      </trkpt>
      <trkpt lat="48.06833" lon="-4.13088">
        <ele>90.1</ele>
        <time>2015-02-26T09:50:37Z</time>
      </trkpt>
      <trkpt lat="48.06845" lon="-4.13086">
        <ele>91.9</ele>
        <time>2015-02-26T09:50:37Z</time>
      </trkpt>
      <trkpt lat="48.06873" lon="-4.13089">
        <ele>96.3</ele>
        <time>2015-02-26T09:50:37Z</time>
      </trkpt>
      <trkpt lat="48.06889" lon="-4.13094">
        <ele>99</ele>
        <time>2015-02-26T09:50:37Z</time>
      </trkpt>
      <trkpt lat="48.06894" lon="-4.13104">
        <ele>99.9</ele>
        <time>2015-02-26T09:50:37Z</time>
      </trkpt>
      <trkpt lat="48.06897" lon="-4.13116">
        <ele>100.5</ele>
        <time>2015-02-26T09:50:37Z</time>
      </trkpt>
      <trkpt lat="48.06897" lon="-4.13125">
        <ele>100.8</ele>
        <time>2015-02-26T09:50:37Z</time>
      </trkpt>
      <trkpt lat="48.069" lon="-4.13131">
        <ele>101.3</ele>
        <time>2015-02-26T09:50:37Z</time>
      </trkpt>
      <trkpt lat="48.06904" lon="-4.13141">
        <ele>102.1</ele>
        <time>2015-02-26T09:50:37Z</time>
      </trkpt>
      <trkpt lat="48.06911" lon="-4.13144">
        <ele>103.1</ele>
        <time>2015-02-26T09:50:37Z</time>
      </trkpt>
      <trkpt lat="48.06926" lon="-4.13153">
        <ele>104</ele>
        <time>2015-02-26T09:50:37Z</time>
      </trkpt>
      <trkpt lat="48.06941" lon="-4.13161">
        <ele>104.5</ele>
        <time>2015-02-26T09:50:37Z</time>
      </trkpt>
      <trkpt lat="48.06954" lon="-4.13166">
        <ele>104.9</ele>
        <time>2015-02-26T09:50:37Z</time>
      </trkpt>
      <trkpt lat="48.06958" lon="-4.13165">
        <ele>105</ele>
        <time>2015-02-26T09:50:37Z</time>
      </trkpt>
      <trkpt lat="48.06964" lon="-4.13157">
        <ele>104.9</ele>
        <time>2015-02-26T09:50:37Z</time>
      </trkpt>
      <trkpt lat="48.0697" lon="-4.13149">
        <ele>104.8</ele>
        <time>2015-02-26T09:50:37Z</time>
      </trkpt>
      <trkpt lat="48.06977" lon="-4.13147">
        <ele>104.9</ele>
        <time>2015-02-26T09:50:37Z</time>
      </trkpt>
      <trkpt lat="48.06983" lon="-4.13146">
        <ele>105</ele>
        <time>2015-02-26T09:50:37Z</time>
      </trkpt>
      <trkpt lat="48.06988" lon="-4.13156">
        <ele>105.4</ele>
        <time>2015-02-26T09:50:37Z</time>
      </trkpt>
      <trkpt lat="48.06992" lon="-4.1317">
        <ele>105.9</ele>
        <time>2015-02-26T09:50:37Z</time>
      </trkpt>
      <trkpt lat="48.06999" lon="-4.13187">
        <ele>106.5</ele>
        <time>2015-02-26T09:50:37Z</time>
      </trkpt>
      <trkpt lat="48.07011" lon="-4.13215">
        <ele>106.4</ele>
        <time>2015-02-26T09:50:37Z</time>
      </trkpt>
      <trkpt lat="48.07026" lon="-4.13246">
        <ele>106.6</ele>
        <time>2015-02-26T09:50:37Z</time>
      </trkpt>
      <trkpt lat="48.07045" lon="-4.13289">
        <ele>106.8</ele>
        <time>2015-02-26T09:50:37Z</time>
      </trkpt>
      <trkpt lat="48.07065" lon="-4.13332">
        <ele>107.4</ele>
        <time>2015-02-26T09:50:37Z</time>
      </trkpt>
      <trkpt lat="48.07076" lon="-4.13364">
        <ele>106.9</ele>
        <time>2015-02-26T09:50:37Z</time>
      </trkpt>
      <trkpt lat="48.07083" lon="-4.13391">
        <ele>106.3</ele>
        <time>2015-02-26T09:50:37Z</time>
      </trkpt>
      <trkpt lat="48.07087" lon="-4.1342">
        <ele>105.4</ele>
        <time>2015-02-26T09:50:37Z</time>
      </trkpt>
      <trkpt lat="48.0709" lon="-4.13452">
        <ele>105.4</ele>
        <time>2015-02-26T09:50:37Z</time>
      </trkpt>
      <trkpt lat="48.07092" lon="-4.13483">
        <ele>105.6</ele>
        <time>2015-02-26T09:50:37Z</time>
      </trkpt>
      <trkpt lat="48.07095" lon="-4.13523">
        <ele>107</ele>
        <time>2015-02-26T09:50:37Z</time>
      </trkpt>
      <trkpt lat="48.07098" lon="-4.13563">
        <ele>108.9</ele>
        <time>2015-02-26T09:50:37Z</time>
      </trkpt>
      <trkpt lat="48.07104" lon="-4.13628">
        <ele>111.6</ele>
        <time>2015-02-26T09:50:37Z</time>
      </trkpt>
      <trkpt lat="48.07111" lon="-4.13693">
        <ele>113</ele>
        <time>2015-02-26T09:50:37Z</time>
      </trkpt>
      <trkpt lat="48.07121" lon="-4.13747">
        <ele>112.1</ele>
        <time>2015-02-26T09:50:37Z</time>
      </trkpt>
      <trkpt lat="48.07131" lon="-4.138">
        <ele>109.9</ele>
        <time>2015-02-26T09:50:37Z</time>
      </trkpt>
      <trkpt lat="48.07141" lon="-4.13857">
        <ele>108.2</ele>
        <time>2015-02-26T09:50:37Z</time>
      </trkpt>
      <trkpt lat="48.0715" lon="-4.13916">
        <ele>107.5</ele>
        <time>2015-02-26T09:50:37Z</time>
      </trkpt>
      <trkpt lat="48.07159" lon="-4.13967">
        <ele>108.9</ele>
        <time>2015-02-26T09:50:37Z</time>
      </trkpt>
      <trkpt lat="48.0717" lon="-4.13998">
        <ele>109.9</ele>
        <time>2015-02-26T09:50:37Z</time>
      </trkpt>
      <trkpt lat="48.07182" lon="-4.1403">
        <ele>111.2</ele>
        <time>2015-02-26T09:50:37Z</time>
      </trkpt>
      <trkpt lat="48.07204" lon="-4.1409">
        <ele>113.6</ele>
        <time>2015-02-26T09:50:37Z</time>
      </trkpt>
      <trkpt lat="48.07227" lon="-4.14151">
        <ele>116.9</ele>
        <time>2015-02-26T09:50:37Z</time>
      </trkpt>
      <trkpt lat="48.07242" lon="-4.142">
        <ele>118.2</ele>
        <time>2015-02-26T09:50:37Z</time>
      </trkpt>
      <trkpt lat="48.07249" lon="-4.14229">
        <ele>118.6</ele>
        <time>2015-02-26T09:50:37Z</time>
      </trkpt>
      <trkpt lat="48.07253" lon="-4.14265">
        <ele>119.4</ele>
        <time>2015-02-26T09:50:37Z</time>
      </trkpt>
      <trkpt lat="48.07256" lon="-4.14309">
        <ele>121.1</ele>
        <time>2015-02-26T09:50:37Z</time>
      </trkpt>
      <trkpt lat="48.0726" lon="-4.14353">
        <ele>122.3</ele>
        <time>2015-02-26T09:50:37Z</time>
      </trkpt>
      <trkpt lat="48.07263" lon="-4.14388">
        <ele>122.9</ele>
        <time>2015-02-26T09:50:37Z</time>
      </trkpt>
      <trkpt lat="48.07261" lon="-4.14427">
        <ele>123.4</ele>
        <time>2015-02-26T09:50:37Z</time>
      </trkpt>
      <trkpt lat="48.07257" lon="-4.14447">
        <ele>123.1</ele>
        <time>2015-02-26T09:50:37Z</time>
      </trkpt>
      <trkpt lat="48.07253" lon="-4.14467">
        <ele>122.9</ele>
        <time>2015-02-26T09:50:37Z</time>
      </trkpt>
      <trkpt lat="48.07246" lon="-4.14485">
        <ele>122.8</ele>
        <time>2015-02-26T09:50:37Z</time>
      </trkpt>
      <trkpt lat="48.07236" lon="-4.14502">
        <ele>123.1</ele>
        <time>2015-02-26T09:50:37Z</time>
      </trkpt>
      <trkpt lat="48.07223" lon="-4.14518">
        <ele>124.1</ele>
        <time>2015-02-26T09:50:37Z</time>
      </trkpt>
      <trkpt lat="48.07207" lon="-4.14535">
        <ele>125.2</ele>
        <time>2015-02-26T09:50:37Z</time>
      </trkpt>
      <trkpt lat="48.07184" lon="-4.14556">
        <ele>126.9</ele>
        <time>2015-02-26T09:50:37Z</time>
      </trkpt>
      <trkpt lat="48.07158" lon="-4.14578">
        <ele>128.4</ele>
        <time>2015-02-26T09:50:37Z</time>
      </trkpt>
      <trkpt lat="48.07132" lon="-4.14599">
        <ele>128.8</ele>
        <time>2015-02-26T09:50:37Z</time>
      </trkpt>
      <trkpt lat="48.07121" lon="-4.14608">
        <ele>129.1</ele>
        <time>2015-02-26T09:50:37Z</time>
      </trkpt>
      <trkpt lat="48.07118" lon="-4.14612">
        <ele>129.1</ele>
        <time>2015-02-26T09:50:37Z</time>
      </trkpt>
      <trkpt lat="48.0712" lon="-4.14622">
        <ele>128.8</ele>
        <time>2015-02-26T09:50:37Z</time>
      </trkpt>
      <trkpt lat="48.07143" lon="-4.14668">
        <ele>126.4</ele>
        <time>2015-02-26T09:50:37Z</time>
      </trkpt>
      <trkpt lat="48.07166" lon="-4.14717">
        <ele>125</ele>
        <time>2015-02-26T09:50:37Z</time>
      </trkpt>
      <trkpt lat="48.0719" lon="-4.14766">
        <ele>123.8</ele>
        <time>2015-02-26T09:50:37Z</time>
      </trkpt>
      <trkpt lat="48.07214" lon="-4.14815">
        <ele>123</ele>
        <time>2015-02-26T09:50:37Z</time>
      </trkpt>
      <trkpt lat="48.07237" lon="-4.14864">
        <ele>122.4</ele>
        <time>2015-02-26T09:50:37Z</time>
      </trkpt>
      <trkpt lat="48.0725" lon="-4.14887">
        <ele>122.3</ele>
        <time>2015-02-26T09:50:37Z</time>
      </trkpt>
      <trkpt lat="48.07276" lon="-4.14922">
        <ele>123</ele>
        <time>2015-02-26T09:50:37Z</time>
      </trkpt>
      <trkpt lat="48.073" lon="-4.14955">
        <ele>124.6</ele>
        <time>2015-02-26T09:50:37Z</time>
      </trkpt>
      <trkpt lat="48.07325" lon="-4.14992">
        <ele>126.5</ele>
        <time>2015-02-26T09:50:37Z</time>
      </trkpt>
      <trkpt lat="48.0735" lon="-4.15029">
        <ele>127.7</ele>
        <time>2015-02-26T09:50:37Z</time>
      </trkpt>
      <trkpt lat="48.07375" lon="-4.15067">
        <ele>128.4</ele>
        <time>2015-02-26T09:50:37Z</time>
      </trkpt>
      <trkpt lat="48.07399" lon="-4.1511">
        <ele>129.2</ele>
        <time>2015-02-26T09:50:37Z</time>
      </trkpt>
      <trkpt lat="48.07424" lon="-4.15151">
        <ele>130</ele>
        <time>2015-02-26T09:50:37Z</time>
      </trkpt>
      <trkpt lat="48.0744" lon="-4.15183">
        <ele>130.4</ele>
        <time>2015-02-26T09:50:37Z</time>
      </trkpt>
      <trkpt lat="48.07454" lon="-4.15219">
        <ele>130</ele>
        <time>2015-02-26T09:50:37Z</time>
      </trkpt>
      <trkpt lat="48.07469" lon="-4.15256">
        <ele>129.2</ele>
        <time>2015-02-26T09:50:37Z</time>
      </trkpt>
      <trkpt lat="48.07484" lon="-4.15275">
        <ele>128.6</ele>
        <time>2015-02-26T09:50:37Z</time>
      </trkpt>
      <trkpt lat="48.07499" lon="-4.15284">
        <ele>128.2</ele>
        <time>2015-02-26T09:50:37Z</time>
      </trkpt>
      <trkpt lat="48.07515" lon="-4.15287">
        <ele>128.1</ele>
        <time>2015-02-26T09:50:37Z</time>
      </trkpt>
      <trkpt lat="48.0753" lon="-4.1529">
        <ele>128</ele>
        <time>2015-02-26T09:50:37Z</time>
      </trkpt>
      <trkpt lat="48.0755" lon="-4.15294">
        <ele>127.9</ele>
        <time>2015-02-26T09:50:37Z</time>
      </trkpt>
      <trkpt lat="48.07582" lon="-4.153">
        <ele>127.8</ele>
        <time>2015-02-26T09:50:37Z</time>
      </trkpt>
      <trkpt lat="48.07614" lon="-4.15307">
        <ele>128.5</ele>
        <time>2015-02-26T09:50:37Z</time>
      </trkpt>
      <trkpt lat="48.07648" lon="-4.15315">
        <ele>129.1</ele>
        <time>2015-02-26T09:50:37Z</time>
      </trkpt>
      <trkpt lat="48.07682" lon="-4.15322">
        <ele>130.5</ele>
        <time>2015-02-26T09:50:37Z</time>
      </trkpt>
      <trkpt lat="48.07709" lon="-4.15331">
        <ele>132.1</ele>
        <time>2015-02-26T09:50:37Z</time>
      </trkpt>
      <trkpt lat="48.07729" lon="-4.15342">
        <ele>133.5</ele>
        <time>2015-02-26T09:50:37Z</time>
      </trkpt>
      <trkpt lat="48.0774" lon="-4.15351">
        <ele>134.4</ele>
        <time>2015-02-26T09:50:37Z</time>
      </trkpt>
      <trkpt lat="48.07747" lon="-4.15361">
        <ele>135.1</ele>
        <time>2015-02-26T09:50:37Z</time>
      </trkpt>
      <trkpt lat="48.07752" lon="-4.1536">
        <ele>135.4</ele>
        <time>2015-02-26T09:50:37Z</time>
      </trkpt>
      <trkpt lat="48.07754" lon="-4.15353">
        <ele>135.5</ele>
        <time>2015-02-26T09:50:37Z</time>
      </trkpt>
      <trkpt lat="48.07753" lon="-4.15339">
        <ele>135.2</ele>
        <time>2015-02-26T09:50:37Z</time>
      </trkpt>
      <trkpt lat="48.07751" lon="-4.15319">
        <ele>135.4</ele>
        <time>2015-02-26T09:50:37Z</time>
      </trkpt>
      <trkpt lat="48.07746" lon="-4.15279">
        <ele>136.1</ele>
        <time>2015-02-26T09:50:37Z</time>
      </trkpt>
      <trkpt lat="48.07741" lon="-4.15239">
        <ele>137</ele>
        <time>2015-02-26T09:50:37Z</time>
      </trkpt>
      <trkpt lat="48.07737" lon="-4.15203">
        <ele>138.5</ele>
        <time>2015-02-26T09:50:37Z</time>
      </trkpt>
      <trkpt lat="48.07735" lon="-4.15158">
        <ele>140</ele>
        <time>2015-02-26T09:50:37Z</time>
      </trkpt>
      <trkpt lat="48.07733" lon="-4.15112">
        <ele>139.7</ele>
        <time>2015-02-26T09:50:37Z</time>
      </trkpt>
      <trkpt lat="48.07732" lon="-4.15067">
        <ele>139.5</ele>
        <time>2015-02-26T09:50:37Z</time>
      </trkpt>
      <trkpt lat="48.07731" lon="-4.15021">
        <ele>139.4</ele>
        <time>2015-02-26T09:50:37Z</time>
      </trkpt>
      <trkpt lat="48.07729" lon="-4.14975">
        <ele>139.2</ele>
        <time>2015-02-26T09:50:37Z</time>
      </trkpt>
      <trkpt lat="48.07728" lon="-4.14927">
        <ele>139.2</ele>
        <time>2015-02-26T09:50:37Z</time>
      </trkpt>
      <trkpt lat="48.07731" lon="-4.14878">
        <ele>138</ele>
        <time>2015-02-26T09:50:37Z</time>
      </trkpt>
      <trkpt lat="48.07733" lon="-4.14831">
        <ele>136.6</ele>
        <time>2015-02-26T09:50:37Z</time>
      </trkpt>
      <trkpt lat="48.07737" lon="-4.1478">
        <ele>136</ele>
        <time>2015-02-26T09:50:37Z</time>
      </trkpt>
      <trkpt lat="48.0774" lon="-4.14731">
        <ele>135</ele>
        <time>2015-02-26T09:50:37Z</time>
      </trkpt>
      <trkpt lat="48.07741" lon="-4.14712">
        <ele>134.4</ele>
        <time>2015-02-26T09:50:37Z</time>
      </trkpt>
      <trkpt lat="48.07744" lon="-4.14702">
        <ele>134.1</ele>
        <time>2015-02-26T09:50:37Z</time>
      </trkpt>
      <trkpt lat="48.07752" lon="-4.14703">
        <ele>134.3</ele>
        <time>2015-02-26T09:50:37Z</time>
      </trkpt>
      <trkpt lat="48.07781" lon="-4.14712">
        <ele>134.3</ele>
        <time>2015-02-26T09:50:37Z</time>
      </trkpt>
      <trkpt lat="48.07812" lon="-4.1472">
        <ele>134.2</ele>
        <time>2015-02-26T09:50:37Z</time>
      </trkpt>
      <trkpt lat="48.07843" lon="-4.14728">
        <ele>134.5</ele>
        <time>2015-02-26T09:50:37Z</time>
      </trkpt>
      <trkpt lat="48.07874" lon="-4.14736">
        <ele>135.5</ele>
        <time>2015-02-26T09:50:37Z</time>
      </trkpt>
      <trkpt lat="48.07905" lon="-4.14745">
        <ele>136.5</ele>
        <time>2015-02-26T09:50:37Z</time>
      </trkpt>
      <trkpt lat="48.0794" lon="-4.14755">
        <ele>137.5</ele>
        <time>2015-02-26T09:50:37Z</time>
      </trkpt>
      <trkpt lat="48.07976" lon="-4.14765">
        <ele>138.5</ele>
        <time>2015-02-26T09:50:37Z</time>
      </trkpt>
      <trkpt lat="48.08012" lon="-4.14775">
        <ele>139.6</ele>
        <time>2015-02-26T09:50:37Z</time>
      </trkpt>
      <trkpt lat="48.08049" lon="-4.14785">
        <ele>140</ele>
        <time>2015-02-26T09:50:37Z</time>
      </trkpt>
      <trkpt lat="48.08073" lon="-4.14793">
        <ele>140.1</ele>
        <time>2015-02-26T09:50:37Z</time>
      </trkpt>
      <trkpt lat="48.08105" lon="-4.14794">
        <ele>141.1</ele>
        <time>2015-02-26T09:50:37Z</time>
      </trkpt>
      <trkpt lat="48.08108" lon="-4.14796">
        <ele>141.3</ele>
        <time>2015-02-26T09:50:37Z</time>
      </trkpt>
      <trkpt lat="48.08115" lon="-4.14803">
        <ele>141.7</ele>
        <time>2015-02-26T09:50:37Z</time>
      </trkpt>
      <trkpt lat="48.08116" lon="-4.14815">
        <ele>141.9</ele>
        <time>2015-02-26T09:50:37Z</time>
      </trkpt>
      <trkpt lat="48.08115" lon="-4.14848">
        <ele>142.4</ele>
        <time>2015-02-26T09:50:37Z</time>
      </trkpt>
      <trkpt lat="48.08117" lon="-4.14888">
        <ele>143</ele>
        <time>2015-02-26T09:50:37Z</time>
      </trkpt>
      <trkpt lat="48.08117" lon="-4.14929">
        <ele>143.7</ele>
        <time>2015-02-26T09:50:37Z</time>
      </trkpt>
      <trkpt lat="48.08119" lon="-4.1494">
        <ele>144</ele>
        <time>2015-02-26T09:50:37Z</time>
      </trkpt>
      <trkpt lat="48.08122" lon="-4.14947">
        <ele>144.2</ele>
        <time>2015-02-26T09:50:37Z</time>
      </trkpt>
      <trkpt lat="48.08125" lon="-4.14954">
        <ele>144.4</ele>
        <time>2015-02-26T09:50:37Z</time>
      </trkpt>
      <trkpt lat="48.0815" lon="-4.14956">
        <ele>144.7</ele>
        <time>2015-02-26T09:50:37Z</time>
      </trkpt>
      <trkpt lat="48.08178" lon="-4.14959">
        <ele>145.6</ele>
        <time>2015-02-26T09:50:37Z</time>
      </trkpt>
      <trkpt lat="48.08208" lon="-4.14964">
        <ele>147.4</ele>
        <time>2015-02-26T09:50:37Z</time>
      </trkpt>
      <trkpt lat="48.08239" lon="-4.1497">
        <ele>149.1</ele>
        <time>2015-02-26T09:50:37Z</time>
      </trkpt>
      <trkpt lat="48.0827" lon="-4.14976">
        <ele>150.4</ele>
        <time>2015-02-26T09:50:37Z</time>
      </trkpt>
      <trkpt lat="48.08301" lon="-4.14982">
        <ele>151.6</ele>
        <time>2015-02-26T09:50:37Z</time>
      </trkpt>
      <trkpt lat="48.08312" lon="-4.14984">
        <ele>152.1</ele>
        <time>2015-02-26T09:50:37Z</time>
      </trkpt>
      <trkpt lat="48.08316" lon="-4.14991">
        <ele>152.3</ele>
        <time>2015-02-26T09:50:37Z</time>
      </trkpt>
      <trkpt lat="48.08319" lon="-4.15">
        <ele>152.5</ele>
        <time>2015-02-26T09:50:37Z</time>
      </trkpt>
      <trkpt lat="48.08313" lon="-4.15027">
        <ele>152.8</ele>
        <time>2015-02-26T09:50:37Z</time>
      </trkpt>
      <trkpt lat="48.08304" lon="-4.15071">
        <ele>153.4</ele>
        <time>2015-02-26T09:50:37Z</time>
      </trkpt>
      <trkpt lat="48.08295" lon="-4.15121">
        <ele>153.4</ele>
        <time>2015-02-26T09:50:37Z</time>
      </trkpt>
      <trkpt lat="48.08292" lon="-4.15138">
        <ele>153.4</ele>
        <time>2015-02-26T09:50:37Z</time>
      </trkpt>
      <trkpt lat="48.08291" lon="-4.1515">
        <ele>153.4</ele>
        <time>2015-02-26T09:50:37Z</time>
      </trkpt>
      <trkpt lat="48.08291" lon="-4.15162">
        <ele>153.5</ele>
        <time>2015-02-26T09:50:37Z</time>
      </trkpt>
      <trkpt lat="48.08296" lon="-4.15171">
        <ele>153.7</ele>
        <time>2015-02-26T09:50:37Z</time>
      </trkpt>
      <trkpt lat="48.08307" lon="-4.15178">
        <ele>154.1</ele>
        <time>2015-02-26T09:50:37Z</time>
      </trkpt>
      <trkpt lat="48.08327" lon="-4.1519">
        <ele>154.8</ele>
        <time>2015-02-26T09:50:37Z</time>
      </trkpt>
      <trkpt lat="48.08347" lon="-4.15203">
        <ele>155.2</ele>
        <time>2015-02-26T09:50:37Z</time>
      </trkpt>
      <trkpt lat="48.0837" lon="-4.1522">
        <ele>155.4</ele>
        <time>2015-02-26T09:50:37Z</time>
      </trkpt>
      <trkpt lat="48.08389" lon="-4.15228">
        <ele>155.7</ele>
        <time>2015-02-26T09:50:37Z</time>
      </trkpt>
      <trkpt lat="48.08412" lon="-4.15243">
        <ele>155.9</ele>
        <time>2015-02-26T09:50:37Z</time>
      </trkpt>
      <trkpt lat="48.08436" lon="-4.15257">
        <ele>154.8</ele>
        <time>2015-02-26T09:50:37Z</time>
      </trkpt>
      <trkpt lat="48.08459" lon="-4.15272">
        <ele>153.1</ele>
        <time>2015-02-26T09:50:37Z</time>
      </trkpt>
      <trkpt lat="48.08482" lon="-4.15286">
        <ele>151.3</ele>
        <time>2015-02-26T09:50:37Z</time>
      </trkpt>
      <trkpt lat="48.08499" lon="-4.15296">
        <ele>150</ele>
        <time>2015-02-26T09:50:37Z</time>
      </trkpt>
      <trkpt lat="48.08509" lon="-4.15304">
        <ele>149.2</ele>
        <time>2015-02-26T09:50:37Z</time>
      </trkpt>
      <trkpt lat="48.0851" lon="-4.15315">
        <ele>148.9</ele>
        <time>2015-02-26T09:50:37Z</time>
      </trkpt>
      <trkpt lat="48.08495" lon="-4.1537">
        <ele>148.1</ele>
        <time>2015-02-26T09:50:37Z</time>
      </trkpt>
      <trkpt lat="48.08479" lon="-4.15425">
        <ele>147.4</ele>
        <time>2015-02-26T09:50:37Z</time>
      </trkpt>
      <trkpt lat="48.08463" lon="-4.15479">
        <ele>147.3</ele>
        <time>2015-02-26T09:50:37Z</time>
      </trkpt>
      <trkpt lat="48.08449" lon="-4.15532">
        <ele>147.1</ele>
        <time>2015-02-26T09:50:37Z</time>
      </trkpt>
      <trkpt lat="48.08433" lon="-4.15586">
        <ele>147</ele>
        <time>2015-02-26T09:50:37Z</time>
      </trkpt>
      <trkpt lat="48.08417" lon="-4.15641">
        <ele>147</ele>
        <time>2015-02-26T09:50:37Z</time>
      </trkpt>
      <trkpt lat="48.08402" lon="-4.15697">
        <ele>147.2</ele>
        <time>2015-02-26T09:50:37Z</time>
      </trkpt>
      <trkpt lat="48.08386" lon="-4.15756">
        <ele>147.5</ele>
        <time>2015-02-26T09:50:37Z</time>
      </trkpt>
      <trkpt lat="48.08369" lon="-4.15818">
        <ele>147.7</ele>
        <time>2015-02-26T09:50:37Z</time>
      </trkpt>
      <trkpt lat="48.08352" lon="-4.1588">
        <ele>146.7</ele>
        <time>2015-02-26T09:50:37Z</time>
      </trkpt>
      <trkpt lat="48.08337" lon="-4.15927">
        <ele>145.4</ele>
        <time>2015-02-26T09:50:37Z</time>
      </trkpt>
      <trkpt lat="48.08326" lon="-4.15949">
        <ele>145.6</ele>
        <time>2015-02-26T09:50:37Z</time>
      </trkpt>
      <trkpt lat="48.08313" lon="-4.15969">
        <ele>145.7</ele>
        <time>2015-02-26T09:50:37Z</time>
      </trkpt>
      <trkpt lat="48.08297" lon="-4.15992">
        <ele>145.6</ele>
        <time>2015-02-26T09:50:37Z</time>
      </trkpt>
      <trkpt lat="48.08278" lon="-4.16019">
        <ele>145.7</ele>
        <time>2015-02-26T09:50:37Z</time>
      </trkpt>
      <trkpt lat="48.08257" lon="-4.16047">
        <ele>145.9</ele>
        <time>2015-02-26T09:50:37Z</time>
      </trkpt>
      <trkpt lat="48.08236" lon="-4.16075">
        <ele>146.3</ele>
        <time>2015-02-26T09:50:37Z</time>
      </trkpt>
      <trkpt lat="48.08214" lon="-4.16102">
        <ele>146</ele>
        <time>2015-02-26T09:50:37Z</time>
      </trkpt>
      <trkpt lat="48.08194" lon="-4.16128">
        <ele>146.1</ele>
        <time>2015-02-26T09:50:37Z</time>
      </trkpt>
      <trkpt lat="48.08173" lon="-4.16157">
        <ele>146.7</ele>
        <time>2015-02-26T09:50:37Z</time>
      </trkpt>
      <trkpt lat="48.08159" lon="-4.16184">
        <ele>145.6</ele>
        <time>2015-02-26T09:50:37Z</time>
      </trkpt>
      <trkpt lat="48.08149" lon="-4.16209">
        <ele>143.9</ele>
        <time>2015-02-26T09:50:37Z</time>
      </trkpt>
      <trkpt lat="48.08142" lon="-4.16234">
        <ele>142.6</ele>
        <time>2015-02-26T09:50:37Z</time>
      </trkpt>
      <trkpt lat="48.08138" lon="-4.16262">
        <ele>142</ele>
        <time>2015-02-26T09:50:37Z</time>
      </trkpt>
      <trkpt lat="48.08137" lon="-4.16293">
        <ele>142.1</ele>
        <time>2015-02-26T09:50:37Z</time>
      </trkpt>
      <trkpt lat="48.08136" lon="-4.16338">
        <ele>142.1</ele>
        <time>2015-02-26T09:50:37Z</time>
      </trkpt>
      <trkpt lat="48.08135" lon="-4.16384">
        <ele>141.7</ele>
        <time>2015-02-26T09:50:37Z</time>
      </trkpt>
      <trkpt lat="48.08134" lon="-4.1643">
        <ele>141.8</ele>
        <time>2015-02-26T09:50:37Z</time>
      </trkpt>
      <trkpt lat="48.08134" lon="-4.16475">
        <ele>143.1</ele>
        <time>2015-02-26T09:50:37Z</time>
      </trkpt>
      <trkpt lat="48.08135" lon="-4.16521">
        <ele>143.8</ele>
        <time>2015-02-26T09:50:37Z</time>
      </trkpt>
      <trkpt lat="48.08138" lon="-4.16567">
        <ele>143.9</ele>
        <time>2015-02-26T09:50:37Z</time>
      </trkpt>
      <trkpt lat="48.08143" lon="-4.16614">
        <ele>143.7</ele>
        <time>2015-02-26T09:50:37Z</time>
      </trkpt>
      <trkpt lat="48.0815" lon="-4.16659">
        <ele>143.5</ele>
        <time>2015-02-26T09:50:37Z</time>
      </trkpt>
      <trkpt lat="48.0816" lon="-4.16738">
        <ele>143.3</ele>
        <time>2015-02-26T09:50:37Z</time>
      </trkpt>
      <trkpt lat="48.08168" lon="-4.16807">
        <ele>143.5</ele>
        <time>2015-02-26T09:50:37Z</time>
      </trkpt>
      <trkpt lat="48.08179" lon="-4.16885">
        <ele>142.9</ele>
        <time>2015-02-26T09:50:37Z</time>
      </trkpt>
      <trkpt lat="48.08188" lon="-4.16953">
        <ele>141.6</ele>
        <time>2015-02-26T09:50:37Z</time>
      </trkpt>
      <trkpt lat="48.08197" lon="-4.1702">
        <ele>139.4</ele>
        <time>2015-02-26T09:50:37Z</time>
      </trkpt>
      <trkpt lat="48.08208" lon="-4.17078">
        <ele>137.1</ele>
        <time>2015-02-26T09:50:37Z</time>
      </trkpt>
      <trkpt lat="48.08218" lon="-4.17134">
        <ele>134.1</ele>
        <time>2015-02-26T09:50:37Z</time>
      </trkpt>
      <trkpt lat="48.08221" lon="-4.1715">
        <ele>133</ele>
        <time>2015-02-26T09:50:37Z</time>
      </trkpt>
      <trkpt lat="48.08224" lon="-4.1716">
        <ele>132.5</ele>
        <time>2015-02-26T09:50:37Z</time>
      </trkpt>
      <trkpt lat="48.08232" lon="-4.1716">
        <ele>133.9</ele>
        <time>2015-02-26T09:50:37Z</time>
      </trkpt>
      <trkpt lat="48.08244" lon="-4.17158">
        <ele>135.8</ele>
        <time>2015-02-26T09:50:37Z</time>
      </trkpt>
      <trkpt lat="48.08259" lon="-4.17153">
        <ele>138.7</ele>
        <time>2015-02-26T09:50:37Z</time>
      </trkpt>
      <trkpt lat="48.08273" lon="-4.17149">
        <ele>141.3</ele>
        <time>2015-02-26T09:50:37Z</time>
      </trkpt>
      <trkpt lat="48.08285" lon="-4.17148">
        <ele>143.3</ele>
        <time>2015-02-26T09:50:37Z</time>
      </trkpt>
      <trkpt lat="48.08294" lon="-4.17149">
        <ele>144.7</ele>
        <time>2015-02-26T09:50:37Z</time>
      </trkpt>
      <trkpt lat="48.08304" lon="-4.17161">
        <ele>145.4</ele>
        <time>2015-02-26T09:50:37Z</time>
      </trkpt>
      <trkpt lat="48.08315" lon="-4.17178">
        <ele>146.3</ele>
        <time>2015-02-26T09:50:37Z</time>
      </trkpt>
      <trkpt lat="48.08327" lon="-4.17196">
        <ele>147.4</ele>
        <time>2015-02-26T09:50:37Z</time>
      </trkpt>
      <trkpt lat="48.08341" lon="-4.17218">
        <ele>148.5</ele>
        <time>2015-02-26T09:50:37Z</time>
      </trkpt>
      <trkpt lat="48.08354" lon="-4.17239">
        <ele>149.6</ele>
        <time>2015-02-26T09:50:37Z</time>
      </trkpt>
      <trkpt lat="48.08367" lon="-4.17259">
        <ele>151</ele>
        <time>2015-02-26T09:50:37Z</time>
      </trkpt>
      <trkpt lat="48.08376" lon="-4.17277">
        <ele>152.3</ele>
        <time>2015-02-26T09:50:37Z</time>
      </trkpt>
      <trkpt lat="48.08384" lon="-4.17295">
        <ele>153.6</ele>
        <time>2015-02-26T09:50:37Z</time>
      </trkpt>
      <trkpt lat="48.08395" lon="-4.17327">
        <ele>155.6</ele>
        <time>2015-02-26T09:50:37Z</time>
      </trkpt>
      <trkpt lat="48.08407" lon="-4.1736">
        <ele>156.4</ele>
        <time>2015-02-26T09:50:37Z</time>
      </trkpt>
      <trkpt lat="48.08419" lon="-4.17399">
        <ele>156.2</ele>
        <time>2015-02-26T09:50:37Z</time>
      </trkpt>
      <trkpt lat="48.08431" lon="-4.17439">
        <ele>155.6</ele>
        <time>2015-02-26T09:50:37Z</time>
      </trkpt>
      <trkpt lat="48.08445" lon="-4.17483">
        <ele>156</ele>
        <time>2015-02-26T09:50:37Z</time>
      </trkpt>
      <trkpt lat="48.08461" lon="-4.17526">
        <ele>157.7</ele>
        <time>2015-02-26T09:50:37Z</time>
      </trkpt>
      <trkpt lat="48.08473" lon="-4.17571">
        <ele>158.1</ele>
        <time>2015-02-26T09:50:37Z</time>
      </trkpt>
      <trkpt lat="48.08483" lon="-4.17617">
        <ele>156.9</ele>
        <time>2015-02-26T09:50:37Z</time>
      </trkpt>
      <trkpt lat="48.08493" lon="-4.17664">
        <ele>155.1</ele>
        <time>2015-02-26T09:50:37Z</time>
      </trkpt>
      <trkpt lat="48.08503" lon="-4.17709">
        <ele>153.7</ele>
        <time>2015-02-26T09:50:37Z</time>
      </trkpt>
      <trkpt lat="48.08513" lon="-4.17753">
        <ele>152.3</ele>
        <time>2015-02-26T09:50:37Z</time>
      </trkpt>
      <trkpt lat="48.08522" lon="-4.17785">
        <ele>150.3</ele>
        <time>2015-02-26T09:50:37Z</time>
      </trkpt>
      <trkpt lat="48.0853" lon="-4.1781">
        <ele>148.8</ele>
        <time>2015-02-26T09:50:37Z</time>
      </trkpt>
      <trkpt lat="48.08549" lon="-4.17816">
        <ele>150.5</ele>
        <time>2015-02-26T09:50:37Z</time>
      </trkpt>
      <trkpt lat="48.08572" lon="-4.17821">
        <ele>152.8</ele>
        <time>2015-02-26T09:50:37Z</time>
      </trkpt>
      <trkpt lat="48.08595" lon="-4.17824">
        <ele>154.5</ele>
        <time>2015-02-26T09:50:37Z</time>
      </trkpt>
      <trkpt lat="48.08618" lon="-4.17825">
        <ele>155.7</ele>
        <time>2015-02-26T09:50:37Z</time>
      </trkpt>
      <trkpt lat="48.08641" lon="-4.17824">
        <ele>157.1</ele>
        <time>2015-02-26T09:50:37Z</time>
      </trkpt>
      <trkpt lat="48.08665" lon="-4.17819">
        <ele>158.7</ele>
        <time>2015-02-26T09:50:37Z</time>
      </trkpt>
      <trkpt lat="48.0869" lon="-4.17816">
        <ele>159.4</ele>
        <time>2015-02-26T09:50:37Z</time>
      </trkpt>
      <trkpt lat="48.08717" lon="-4.17813">
        <ele>160</ele>
        <time>2015-02-26T09:50:37Z</time>
      </trkpt>
      <trkpt lat="48.08746" lon="-4.1781">
        <ele>160.5</ele>
        <time>2015-02-26T09:50:37Z</time>
      </trkpt>
      <trkpt lat="48.08775" lon="-4.17807">
        <ele>160</ele>
        <time>2015-02-26T09:50:37Z</time>
      </trkpt>
      <trkpt lat="48.08805" lon="-4.178">
        <ele>159.5</ele>
        <time>2015-02-26T09:50:37Z</time>
      </trkpt>
      <trkpt lat="48.08836" lon="-4.17795">
        <ele>159</ele>
        <time>2015-02-26T09:50:37Z</time>
      </trkpt>
      <trkpt lat="48.08863" lon="-4.17788">
        <ele>159.6</ele>
        <time>2015-02-26T09:50:37Z</time>
      </trkpt>
      <trkpt lat="48.08873" lon="-4.17785">
        <ele>159.8</ele>
        <time>2015-02-26T09:50:37Z</time>
      </trkpt>
      <trkpt lat="48.08882" lon="-4.17796">
        <ele>159.8</ele>
        <time>2015-02-26T09:50:37Z</time>
      </trkpt>
      <trkpt lat="48.08892" lon="-4.17818">
        <ele>159.7</ele>
        <time>2015-02-26T09:50:37Z</time>
      </trkpt>
      <trkpt lat="48.08903" lon="-4.17839">
        <ele>160</ele>
        <time>2015-02-26T09:50:37Z</time>
      </trkpt>
      <trkpt lat="48.08903" lon="-4.17848">
        <ele>160.3</ele>
        <time>2015-02-26T09:50:37Z</time>
      </trkpt>
      <trkpt lat="48.08901" lon="-4.1788">
        <ele>161.8</ele>
        <time>2015-02-26T09:50:37Z</time>
      </trkpt>
      <trkpt lat="48.08899" lon="-4.17918">
        <ele>163.4</ele>
        <time>2015-02-26T09:50:37Z</time>
      </trkpt>
      <trkpt lat="48.08898" lon="-4.17957">
        <ele>165.4</ele>
        <time>2015-02-26T09:50:37Z</time>
      </trkpt>
      <trkpt lat="48.08896" lon="-4.18002">
        <ele>167.8</ele>
        <time>2015-02-26T09:50:37Z</time>
      </trkpt>
      <trkpt lat="48.08894" lon="-4.18047">
        <ele>171.8</ele>
        <time>2015-02-26T09:50:37Z</time>
      </trkpt>
      <trkpt lat="48.08893" lon="-4.1809">
        <ele>175.6</ele>
        <time>2015-02-26T09:50:37Z</time>
      </trkpt>
      <trkpt lat="48.08892" lon="-4.18123">
        <ele>177.7</ele>
        <time>2015-02-26T09:50:37Z</time>
      </trkpt>
      <trkpt lat="48.08896" lon="-4.18135">
        <ele>178.9</ele>
        <time>2015-02-26T09:50:37Z</time>
      </trkpt>
      <trkpt lat="48.08909" lon="-4.18157">
        <ele>182.3</ele>
        <time>2015-02-26T09:50:37Z</time>
      </trkpt>
      <trkpt lat="48.08924" lon="-4.18183">
        <ele>184.7</ele>
        <time>2015-02-26T09:50:37Z</time>
      </trkpt>
      <trkpt lat="48.08939" lon="-4.18209">
        <ele>186.2</ele>
        <time>2015-02-26T09:50:37Z</time>
      </trkpt>
      <trkpt lat="48.08945" lon="-4.18218">
        <ele>186.7</ele>
        <time>2015-02-26T09:50:37Z</time>
      </trkpt>
      <trkpt lat="48.08943" lon="-4.18232">
        <ele>186.9</ele>
        <time>2015-02-26T09:50:37Z</time>
      </trkpt>
      <trkpt lat="48.08942" lon="-4.18248">
        <ele>187.1</ele>
        <time>2015-02-26T09:50:37Z</time>
      </trkpt>
      <trkpt lat="48.08935" lon="-4.18302">
        <ele>186.5</ele>
        <time>2015-02-26T09:50:37Z</time>
      </trkpt>
      <trkpt lat="48.0892" lon="-4.183">
        <ele>184.7</ele>
        <time>2015-02-26T09:50:37Z</time>
      </trkpt>
      <trkpt lat="48.08902" lon="-4.18296">
        <ele>183</ele>
        <time>2015-02-26T09:50:37Z</time>
      </trkpt>
      <trkpt lat="48.08884" lon="-4.18291">
        <ele>181.2</ele>
        <time>2015-02-26T09:50:37Z</time>
      </trkpt>
      <trkpt lat="48.08866" lon="-4.18286">
        <ele>179.2</ele>
        <time>2015-02-26T09:50:37Z</time>
      </trkpt>
      <trkpt lat="48.08846" lon="-4.18283">
        <ele>177.2</ele>
        <time>2015-02-26T09:50:37Z</time>
      </trkpt>
      <trkpt lat="48.08827" lon="-4.18279">
        <ele>175.4</ele>
        <time>2015-02-26T09:50:37Z</time>
      </trkpt>
      <trkpt lat="48.08807" lon="-4.18276">
        <ele>174.2</ele>
        <time>2015-02-26T09:50:37Z</time>
      </trkpt>
      <trkpt lat="48.08787" lon="-4.18272">
        <ele>173</ele>
        <time>2015-02-26T09:50:37Z</time>
      </trkpt>
      <trkpt lat="48.08774" lon="-4.18265">
        <ele>172.3</ele>
        <time>2015-02-26T09:50:37Z</time>
      </trkpt>
      <trkpt lat="48.08768" lon="-4.1826">
        <ele>171.9</ele>
        <time>2015-02-26T09:50:37Z</time>
      </trkpt>
      <trkpt lat="48.08766" lon="-4.18249">
        <ele>171.8</ele>
        <time>2015-02-26T09:50:37Z</time>
      </trkpt>
      <trkpt lat="48.08764" lon="-4.18216">
        <ele>171.1</ele>
        <time>2015-02-26T09:50:37Z</time>
      </trkpt>
      <trkpt lat="48.08762" lon="-4.18182">
        <ele>170.5</ele>
        <time>2015-02-26T09:50:37Z</time>
      </trkpt>
      <trkpt lat="48.0876" lon="-4.18145">
        <ele>169.7</ele>
        <time>2015-02-26T09:50:37Z</time>
      </trkpt>
      <trkpt lat="48.08758" lon="-4.18108">
        <ele>168.7</ele>
        <time>2015-02-26T09:50:37Z</time>
      </trkpt>
      <trkpt lat="48.08756" lon="-4.18071">
        <ele>167.6</ele>
        <time>2015-02-26T09:50:37Z</time>
      </trkpt>
      <trkpt lat="48.08754" lon="-4.18033">
        <ele>166.2</ele>
        <time>2015-02-26T09:50:37Z</time>
      </trkpt>
      <trkpt lat="48.08752" lon="-4.18008">
        <ele>165.2</ele>
        <time>2015-02-26T09:50:37Z</time>
      </trkpt>
      <trkpt lat="48.0875" lon="-4.1799">
        <ele>164.6</ele>
        <time>2015-02-26T09:50:37Z</time>
      </trkpt>
      <trkpt lat="48.08746" lon="-4.17978">
        <ele>164.2</ele>
        <time>2015-02-26T09:50:37Z</time>
      </trkpt>
      <trkpt lat="48.08741" lon="-4.17966">
        <ele>163.8</ele>
        <time>2015-02-26T09:50:37Z</time>
      </trkpt>
      <trkpt lat="48.0873" lon="-4.17957">
        <ele>163.3</ele>
        <time>2015-02-26T09:50:37Z</time>
      </trkpt>
      <trkpt lat="48.08712" lon="-4.17955">
        <ele>163.1</ele>
        <time>2015-02-26T09:50:37Z</time>
      </trkpt>
      <trkpt lat="48.0869" lon="-4.17956">
        <ele>163</ele>
        <time>2015-02-26T09:50:37Z</time>
      </trkpt>
      <trkpt lat="48.0866" lon="-4.1796">
        <ele>162.4</ele>
        <time>2015-02-26T09:50:37Z</time>
      </trkpt>
      <trkpt lat="48.08645" lon="-4.17969">
        <ele>161.3</ele>
        <time>2015-02-26T09:50:37Z</time>
      </trkpt>
      <trkpt lat="48.08631" lon="-4.17992">
        <ele>160.8</ele>
        <time>2015-02-26T09:50:37Z</time>
      </trkpt>
      <trkpt lat="48.08625" lon="-4.18045">
        <ele>161.6</ele>
        <time>2015-02-26T09:50:37Z</time>
      </trkpt>
      <trkpt lat="48.08622" lon="-4.18079">
        <ele>162</ele>
        <time>2015-02-26T09:50:37Z</time>
      </trkpt>
      <trkpt lat="48.08617" lon="-4.18144">
        <ele>160.5</ele>
        <time>2015-02-26T09:50:37Z</time>
      </trkpt>
      <trkpt lat="48.08617" lon="-4.18158">
        <ele>160.4</ele>
        <time>2015-02-26T09:50:37Z</time>
      </trkpt>
      <trkpt lat="48.08618" lon="-4.18207">
        <ele>159.4</ele>
        <time>2015-02-26T09:50:37Z</time>
      </trkpt>
      <trkpt lat="48.08618" lon="-4.18255">
        <ele>158.3</ele>
        <time>2015-02-26T09:50:37Z</time>
      </trkpt>
      <trkpt lat="48.08619" lon="-4.18303">
        <ele>157.7</ele>
        <time>2015-02-26T09:50:37Z</time>
      </trkpt>
      <trkpt lat="48.0862" lon="-4.18352">
        <ele>156.2</ele>
        <time>2015-02-26T09:50:37Z</time>
      </trkpt>
      <trkpt lat="48.08618" lon="-4.18367">
        <ele>155.2</ele>
        <time>2015-02-26T09:50:37Z</time>
      </trkpt>
      <trkpt lat="48.08613" lon="-4.18403">
        <ele>152.6</ele>
        <time>2015-02-26T09:50:37Z</time>
      </trkpt>
      <trkpt lat="48.08605" lon="-4.18451">
        <ele>148.3</ele>
        <time>2015-02-26T09:50:37Z</time>
      </trkpt>
      <trkpt lat="48.08603" lon="-4.18469">
        <ele>146.6</ele>
        <time>2015-02-26T09:50:37Z</time>
      </trkpt>
      <trkpt lat="48.08571" lon="-4.18443">
        <ele>143.9</ele>
        <time>2015-02-26T09:50:37Z</time>
      </trkpt>
      <trkpt lat="48.08539" lon="-4.18416">
        <ele>140.6</ele>
        <time>2015-02-26T09:50:37Z</time>
      </trkpt>
      <trkpt lat="48.08507" lon="-4.18389">
        <ele>135.9</ele>
        <time>2015-02-26T09:50:37Z</time>
      </trkpt>
      <trkpt lat="48.08496" lon="-4.18379">
        <ele>134.4</ele>
        <time>2015-02-26T09:50:37Z</time>
      </trkpt>
      <trkpt lat="48.08467" lon="-4.18378">
        <ele>131.6</ele>
        <time>2015-02-26T09:50:37Z</time>
      </trkpt>
      <trkpt lat="48.08435" lon="-4.18378">
        <ele>128.3</ele>
        <time>2015-02-26T09:50:37Z</time>
      </trkpt>
      <trkpt lat="48.08415" lon="-4.18379">
        <ele>126.3</ele>
        <time>2015-02-26T09:50:37Z</time>
      </trkpt>
      <trkpt lat="48.08389" lon="-4.18377">
        <ele>124.7</ele>
        <time>2015-02-26T09:50:37Z</time>
      </trkpt>
      <trkpt lat="48.08373" lon="-4.18374">
        <ele>123.6</ele>
        <time>2015-02-26T09:50:37Z</time>
      </trkpt>
      <trkpt lat="48.0837" lon="-4.18368">
        <ele>123.4</ele>
        <time>2015-02-26T09:50:37Z</time>
      </trkpt>
      <trkpt lat="48.0837" lon="-4.18357">
        <ele>123.3</ele>
        <time>2015-02-26T09:50:37Z</time>
      </trkpt>
      <trkpt lat="48.08371" lon="-4.18342">
        <ele>123.2</ele>
        <time>2015-02-26T09:50:37Z</time>
      </trkpt>
      <trkpt lat="48.08372" lon="-4.18329">
        <ele>123.2</ele>
        <time>2015-02-26T09:50:37Z</time>
      </trkpt>
      <trkpt lat="48.08372" lon="-4.18319">
        <ele>123.2</ele>
        <time>2015-02-26T09:50:37Z</time>
      </trkpt>
      <trkpt lat="48.08357" lon="-4.18313">
        <ele>121.9</ele>
        <time>2015-02-26T09:50:37Z</time>
      </trkpt>
      <trkpt lat="48.08342" lon="-4.18306">
        <ele>120.5</ele>
        <time>2015-02-26T09:50:37Z</time>
      </trkpt>
      <trkpt lat="48.08326" lon="-4.18299">
        <ele>119.5</ele>
        <time>2015-02-26T09:50:37Z</time>
      </trkpt>
      <trkpt lat="48.0831" lon="-4.18291">
        <ele>119.1</ele>
        <time>2015-02-26T09:50:37Z</time>
      </trkpt>
      <trkpt lat="48.08291" lon="-4.18283">
        <ele>118.6</ele>
        <time>2015-02-26T09:50:37Z</time>
      </trkpt>
      <trkpt lat="48.08271" lon="-4.18276">
        <ele>118.1</ele>
        <time>2015-02-26T09:50:37Z</time>
      </trkpt>
      <trkpt lat="48.08252" lon="-4.18268">
        <ele>117.5</ele>
        <time>2015-02-26T09:50:37Z</time>
      </trkpt>
      <trkpt lat="48.08233" lon="-4.1826">
        <ele>117.1</ele>
        <time>2015-02-26T09:50:37Z</time>
      </trkpt>
      <trkpt lat="48.08215" lon="-4.18253">
        <ele>116.6</ele>
        <time>2015-02-26T09:50:37Z</time>
      </trkpt>
      <trkpt lat="48.08193" lon="-4.18245">
        <ele>116.2</ele>
        <time>2015-02-26T09:50:37Z</time>
      </trkpt>
      <trkpt lat="48.08187" lon="-4.18242">
        <ele>116.1</ele>
        <time>2015-02-26T09:50:37Z</time>
      </trkpt>
      <trkpt lat="48.08167" lon="-4.18221">
        <ele>115.3</ele>
        <time>2015-02-26T09:50:37Z</time>
      </trkpt>
      <trkpt lat="48.08147" lon="-4.182">
        <ele>114.9</ele>
        <time>2015-02-26T09:50:37Z</time>
      </trkpt>
      <trkpt lat="48.08127" lon="-4.1818">
        <ele>114.6</ele>
        <time>2015-02-26T09:50:37Z</time>
      </trkpt>
      <trkpt lat="48.08107" lon="-4.18159">
        <ele>114.6</ele>
        <time>2015-02-26T09:50:37Z</time>
      </trkpt>
      <trkpt lat="48.08085" lon="-4.18136">
        <ele>113.9</ele>
        <time>2015-02-26T09:50:37Z</time>
      </trkpt>
      <trkpt lat="48.08064" lon="-4.18113">
        <ele>113.5</ele>
        <time>2015-02-26T09:50:37Z</time>
      </trkpt>
      <trkpt lat="48.08057" lon="-4.18105">
        <ele>113.3</ele>
        <time>2015-02-26T09:50:37Z</time>
      </trkpt>
      <trkpt lat="48.08036" lon="-4.18158">
        <ele>116.3</ele>
        <time>2015-02-26T09:50:37Z</time>
      </trkpt>
      <trkpt lat="48.08016" lon="-4.18208">
        <ele>118.2</ele>
        <time>2015-02-26T09:50:37Z</time>
      </trkpt>
      <trkpt lat="48.07994" lon="-4.18258">
        <ele>119.4</ele>
        <time>2015-02-26T09:50:37Z</time>
      </trkpt>
      <trkpt lat="48.07972" lon="-4.18307">
        <ele>116.3</ele>
        <time>2015-02-26T09:50:37Z</time>
      </trkpt>
      <trkpt lat="48.07951" lon="-4.18358">
        <ele>113.3</ele>
        <time>2015-02-26T09:50:37Z</time>
      </trkpt>
      <trkpt lat="48.07928" lon="-4.18407">
        <ele>110.8</ele>
        <time>2015-02-26T09:50:37Z</time>
      </trkpt>
      <trkpt lat="48.07906" lon="-4.18457">
        <ele>110.1</ele>
        <time>2015-02-26T09:50:37Z</time>
      </trkpt>
      <trkpt lat="48.07902" lon="-4.18467">
        <ele>110.1</ele>
        <time>2015-02-26T09:50:37Z</time>
      </trkpt>
      <trkpt lat="48.07897" lon="-4.18482">
        <ele>110.2</ele>
        <time>2015-02-26T09:50:37Z</time>
      </trkpt>
      <trkpt lat="48.07892" lon="-4.18503">
        <ele>110.4</ele>
        <time>2015-02-26T09:50:37Z</time>
      </trkpt>
      <trkpt lat="48.07887" lon="-4.18519">
        <ele>110.7</ele>
        <time>2015-02-26T09:50:37Z</time>
      </trkpt>
      <trkpt lat="48.07874" lon="-4.18507">
        <ele>110.6</ele>
        <time>2015-02-26T09:50:37Z</time>
      </trkpt>
      <trkpt lat="48.07861" lon="-4.18494">
        <ele>110.6</ele>
        <time>2015-02-26T09:50:37Z</time>
      </trkpt>
      <trkpt lat="48.07848" lon="-4.1848">
        <ele>110.6</ele>
        <time>2015-02-26T09:50:37Z</time>
      </trkpt>
      <trkpt lat="48.07834" lon="-4.18466">
        <ele>110.6</ele>
        <time>2015-02-26T09:50:37Z</time>
      </trkpt>
      <trkpt lat="48.07816" lon="-4.18448">
        <ele>110.3</ele>
        <time>2015-02-26T09:50:37Z</time>
      </trkpt>
      <trkpt lat="48.07801" lon="-4.18468">
        <ele>110.4</ele>
        <time>2015-02-26T09:50:37Z</time>
      </trkpt>
      <trkpt lat="48.07783" lon="-4.18489">
        <ele>110.3</ele>
        <time>2015-02-26T09:50:37Z</time>
      </trkpt>
      <trkpt lat="48.07766" lon="-4.18511">
        <ele>110.4</ele>
        <time>2015-02-26T09:50:37Z</time>
      </trkpt>
      <trkpt lat="48.07753" lon="-4.18523">
        <ele>110.6</ele>
        <time>2015-02-26T09:50:37Z</time>
      </trkpt>
      <trkpt lat="48.07734" lon="-4.18538">
        <ele>110.8</ele>
        <time>2015-02-26T09:50:37Z</time>
      </trkpt>
      <trkpt lat="48.07713" lon="-4.18554">
        <ele>111</ele>
        <time>2015-02-26T09:50:37Z</time>
      </trkpt>
      <trkpt lat="48.07703" lon="-4.18563">
        <ele>111.1</ele>
        <time>2015-02-26T09:50:37Z</time>
      </trkpt>
      <trkpt lat="48.07694" lon="-4.18608">
        <ele>112.3</ele>
        <time>2015-02-26T09:50:37Z</time>
      </trkpt>
      <trkpt lat="48.07685" lon="-4.18652">
        <ele>113.9</ele>
        <time>2015-02-26T09:50:37Z</time>
      </trkpt>
      <trkpt lat="48.07678" lon="-4.18685">
        <ele>114.9</ele>
        <time>2015-02-26T09:50:37Z</time>
      </trkpt>
      <trkpt lat="48.07674" lon="-4.18722">
        <ele>116.1</ele>
        <time>2015-02-26T09:50:37Z</time>
      </trkpt>
      <trkpt lat="48.0767" lon="-4.18762">
        <ele>117.2</ele>
        <time>2015-02-26T09:50:37Z</time>
      </trkpt>
      <trkpt lat="48.07665" lon="-4.18798">
        <ele>117.6</ele>
        <time>2015-02-26T09:50:37Z</time>
      </trkpt>
      <trkpt lat="48.07687" lon="-4.18829">
        <ele>119.1</ele>
        <time>2015-02-26T09:50:37Z</time>
      </trkpt>
      <trkpt lat="48.07709" lon="-4.18863">
        <ele>120.9</ele>
        <time>2015-02-26T09:50:37Z</time>
      </trkpt>
      <trkpt lat="48.07716" lon="-4.18872">
        <ele>121.4</ele>
        <time>2015-02-26T09:50:37Z</time>
      </trkpt>
      <trkpt lat="48.0774" lon="-4.18889">
        <ele>123.1</ele>
        <time>2015-02-26T09:50:37Z</time>
      </trkpt>
      <trkpt lat="48.07769" lon="-4.18909">
        <ele>123</ele>
        <time>2015-02-26T09:50:37Z</time>
      </trkpt>
      <trkpt lat="48.07793" lon="-4.18921">
        <ele>122</ele>
        <time>2015-02-26T09:50:37Z</time>
      </trkpt>
      <trkpt lat="48.07818" lon="-4.18933">
        <ele>121.1</ele>
        <time>2015-02-26T09:50:37Z</time>
      </trkpt>
      <trkpt lat="48.07844" lon="-4.18942">
        <ele>120.1</ele>
        <time>2015-02-26T09:50:37Z</time>
      </trkpt>
      <trkpt lat="48.07846" lon="-4.18946">
        <ele>120.1</ele>
        <time>2015-02-26T09:50:37Z</time>
      </trkpt>
      <trkpt lat="48.07843" lon="-4.1897">
        <ele>120.8</ele>
        <time>2015-02-26T09:50:37Z</time>
      </trkpt>
      <trkpt lat="48.0784" lon="-4.19">
        <ele>121.6</ele>
        <time>2015-02-26T09:50:37Z</time>
      </trkpt>
      <trkpt lat="48.07837" lon="-4.1903">
        <ele>122.2</ele>
        <time>2015-02-26T09:50:37Z</time>
      </trkpt>
      <trkpt lat="48.07831" lon="-4.19064">
        <ele>122.8</ele>
        <time>2015-02-26T09:50:37Z</time>
      </trkpt>
      <trkpt lat="48.07827" lon="-4.19092">
        <ele>123.1</ele>
        <time>2015-02-26T09:50:37Z</time>
      </trkpt>
      <trkpt lat="48.07824" lon="-4.19113">
        <ele>123.1</ele>
        <time>2015-02-26T09:50:37Z</time>
      </trkpt>
      <trkpt lat="48.0782" lon="-4.19113">
        <ele>123.3</ele>
        <time>2015-02-26T09:50:37Z</time>
      </trkpt>
      <trkpt lat="48.07812" lon="-4.19104">
        <ele>123.6</ele>
        <time>2015-02-26T09:50:37Z</time>
      </trkpt>
      <trkpt lat="48.07801" lon="-4.19092">
        <ele>124.1</ele>
        <time>2015-02-26T09:50:37Z</time>
      </trkpt>
      <trkpt lat="48.07787" lon="-4.19075">
        <ele>124.5</ele>
        <time>2015-02-26T09:50:37Z</time>
      </trkpt>
      <trkpt lat="48.07769" lon="-4.19052">
        <ele>124.7</ele>
        <time>2015-02-26T09:50:37Z</time>
      </trkpt>
      <trkpt lat="48.0775" lon="-4.1903">
        <ele>124.7</ele>
        <time>2015-02-26T09:50:37Z</time>
      </trkpt>
      <trkpt lat="48.0773" lon="-4.19007">
        <ele>123.7</ele>
        <time>2015-02-26T09:50:37Z</time>
      </trkpt>
      <trkpt lat="48.0771" lon="-4.18986">
        <ele>122.8</ele>
        <time>2015-02-26T09:50:37Z</time>
      </trkpt>
      <trkpt lat="48.07694" lon="-4.1897">
        <ele>121.9</ele>
        <time>2015-02-26T09:50:37Z</time>
      </trkpt>
      <trkpt lat="48.07691" lon="-4.18971">
        <ele>121.8</ele>
        <time>2015-02-26T09:50:37Z</time>
      </trkpt>
      <trkpt lat="48.07686" lon="-4.18977">
        <ele>121.9</ele>
        <time>2015-02-26T09:50:37Z</time>
      </trkpt>
      <trkpt lat="48.07671" lon="-4.19032">
        <ele>122.9</ele>
        <time>2015-02-26T09:50:37Z</time>
      </trkpt>
      <trkpt lat="48.07655" lon="-4.19091">
        <ele>123.7</ele>
        <time>2015-02-26T09:50:37Z</time>
      </trkpt>
      <trkpt lat="48.07647" lon="-4.19119">
        <ele>124.2</ele>
        <time>2015-02-26T09:50:37Z</time>
      </trkpt>
      <trkpt lat="48.07642" lon="-4.19133">
        <ele>124.3</ele>
        <time>2015-02-26T09:50:37Z</time>
      </trkpt>
      <trkpt lat="48.07634" lon="-4.19141">
        <ele>123.9</ele>
        <time>2015-02-26T09:50:37Z</time>
      </trkpt>
      <trkpt lat="48.07623" lon="-4.19148">
        <ele>123.5</ele>
        <time>2015-02-26T09:50:37Z</time>
      </trkpt>
      <trkpt lat="48.07613" lon="-4.19156">
        <ele>122.9</ele>
        <time>2015-02-26T09:50:37Z</time>
      </trkpt>
      <trkpt lat="48.07603" lon="-4.19162">
        <ele>122.3</ele>
        <time>2015-02-26T09:50:37Z</time>
      </trkpt>
      <trkpt lat="48.07592" lon="-4.19166">
        <ele>121.7</ele>
        <time>2015-02-26T09:50:37Z</time>
      </trkpt>
      <trkpt lat="48.0758" lon="-4.19168">
        <ele>121.1</ele>
        <time>2015-02-26T09:50:37Z</time>
      </trkpt>
      <trkpt lat="48.07568" lon="-4.1917">
        <ele>121.6</ele>
        <time>2015-02-26T09:50:37Z</time>
      </trkpt>
      <trkpt lat="48.07559" lon="-4.19174">
        <ele>122</ele>
        <time>2015-02-26T09:50:37Z</time>
      </trkpt>
      <trkpt lat="48.07555" lon="-4.19185">
        <ele>122.5</ele>
        <time>2015-02-26T09:50:37Z</time>
      </trkpt>
      <trkpt lat="48.07557" lon="-4.19201">
        <ele>123.3</ele>
        <time>2015-02-26T09:50:37Z</time>
      </trkpt>
    </trkseg>
  </trk>
</gpx>